[[{"header":{"parameterUnit":"m.s-1","parameterCategory":1,"la1":31.0,"la2":29.5877,"lo1":-88.7671,"lo2":-86.6584,"dy":0.0162,"dx":0.0185,"nx":115,"ny":88,"refTime":"2026-04-16T12:00:00:Z","depth":0,"parameterNumber":2,"parameterNumberName":"U-component_of_WINDS"},"data":[0.0,0.0,0.0,0.0,0.0,0.0,0.0,0.0,0.0,0.0,0.0,0.0,0.0,0.0,0.0,0.0,0.0,0.0,0.0,0.0,0.0,0.0,0.0,0.0,0.0,0.0,0.0,0.0,0.0,0.0,0.0,0.0,0.0,0.0,0.0,0.0,0.0,0.0,0.0,0.0,0.0,0.0,0.0,0.0,0.0,0.0,0.0,0.0,0.0,0.0,0.0,0.0,0.0,0.0,0.0,0.0,0.0,0.0,0.0,0.0,0.0,0.0,0.0,0.0,0.0,0.0,0.0,0.0,0.0,0.0,0.0,0.0,0.0,0.0,0.0,0.0,0.0,0.0,0.0,0.0,0.0,0.0,0.0,0.0,0.0,0.0,0.0,0.0,0.0,0.0,0.0,0.0,0.0,0.0,0.0,0.0,0.0,0.0,0.0,0.0,0.0,0.0,0.0,0.0,0.0,0.0,0.0,0.0,0.0,0.0,0.0,0.0,0.0,0.0,0.0,0.0,0.0,0.0,0.0,0.0,0.0,0.0,0.0,0.0,0.0,0.0,0.0,0.0,0.0,0.0,0.0,0.0,0.0,0.0,0.0,0.0,0.0,0.0,0.0,0.0,0.0,0.0,0.0,0.0,0.0,0.0,0.0,0.0,0.0,0.0,0.0,0.0,0.0,0.0,0.0,0.0,0.0,0.0,0.0,0.0,0.0,0.0,0.0,0.0,0.0,0.0,0.0,0.0,0.0,0.0,0.0,0.0,0.0,0.0,0.0,0.0,0.0,0.0,0.0,0.0,0.0,0.0,0.0,0.0,0.0,0.0,0.0,0.0,0.0,0.0,0.0,0.0,0.0,0.0,0.0,0.0,0.0,0.0,0.0,0.0,0.0,0.0,0.0,0.0,0.0,0.0,0.0,0.0,0.0,0.0,0.0,0.0,0.0,0.0,0.0,0.0,0.0,0.0,0.0,0.0,0.0,0.0,0.0,0.0,0.0,0.0,0.0,0.0,0.0,0.0,0.0,0.0,0.0,0.0,0.0,0.0,0.0,0.0,0.0,0.0,0.0,0.0,0.0,0.0,0.0,0.0,0.0,0.0,0.0,0.0,0.0,0.0,0.0,0.0,0.0,0.0,0.0,0.0,0.0,0.0,0.0,0.0,0.0,0.0,0.0,0.0,0.0,0.0,0.0,0.0,0.0,0.0,0.0,0.0,0.0,0.0,0.0,0.0,0.0,0.0,0.0,0.0,0.0,0.0,0.0,0.0,0.0,0.0,0.0,0.0,0.0,0.0,0.0,0.0,0.0,0.0,0.0,0.0,0.0,0.0,0.0,0.0,0.0,0.0,0.0,0.0,0.0,0.0,0.0,0.0,0.0,0.0,0.0,0.0,0.0,0.0,0.0,0.0,0.0,0.0,0.0,0.0,0.0,0.0,0.0,0.0,0.0,0.0,0.0,0.0,0.0,0.0,0.0,0.0,0.0,0.0,0.0,0.0,0.0,0.0,0.0,0.0,0.0,0.0,0.0,0.0,0.0,0.0,0.0,0.0,0.0,0.0,0.0,0.0,0.0,0.0,0.0,0.0,0.0,0.0,0.0,0.0,0.0,0.0,0.0,0.0,0.0,0.0,0.0,0.0,0.0,0.0,0.0,0.0,0.0,0.0,0.0,0.0,0.0,0.0,0.0,0.0,0.0,0.0,0.0,0.0,0.0,0.0,0.0,0.0,0.0,0.0,0.0,0.0,0.0,0.0,0.0,0.0,0.0,0.0,0.0,0.0,0.0,0.0,0.0,0.0,0.0,0.0,0.0,0.0,0.0,0.0,0.0,0.0,0.0,0.0,0.0,0.0,0.0,0.0,0.0,0.0,0.0,0.0,0.0,0.0,0.0,0.0,0.0,0.0,0.0,0.0,0.0,0.0,0.0,0.0,0.0,0.0,0.0,0.0,0.0,0.0,0.0,0.0,0.0,0.0,0.0,0.0,0.0,0.0,0.0,0.0,0.0,0.0,0.0,0.0,0.0,0.0,0.0,0.0,0.0,0.0,0.0,0.0,0.0,0.0,0.0,0.0,0.0,0.0,0.0,0.0,0.0,0.0,0.0,0.0,0.0,0.0,0.0,0.0,0.0,0.0,0.0,0.0,0.0,0.0,0.0,0.0,0.0,0.0,0.0,0.0,0.0,0.0,0.0,0.0,0.0,0.0,0.0,0.0,0.0,0.0,0.0,0.0,0.0,0.0,0.0,0.0,0.0,0.0,0.0,0.0,0.0,0.0,0.0,0.0,0.0,0.0,0.0,0.0,0.0,0.0,0.0,0.0,0.0,0.0,0.0,0.0,0.0,0.0,0.0,0.0,0.0,0.0,0.0,0.0,0.0,0.0,0.0,0.0,0.0,0.0,0.0,0.0,0.0,0.0,0.0,0.0,0.0,0.0,0.0,0.0,0.0,0.0,0.0,0.0,0.0,0.0,0.0,0.0,0.0,0.0,0.0,0.0,0.0,0.0,0.0,0.0,0.0,0.0,0.0,0.0,0.0,0.0,0.0,0.0,0.0,0.0,0.0,0.0,0.0,0.0,0.0,0.0,0.0,0.0,0.0,0.0,0.0,0.0,0.0,0.0,0.0,0.0,0.0,0.0,0.0,0.0,0.0,0.0,0.0,0.0,0.0,0.0,0.0,0.0,0.0,0.0,0.0,0.0,0.0,0.0,0.0,0.0,0.0,0.0,0.0,0.0,0.0,0.0,0.0,0.0,0.0,0.0,0.0,0.0,0.0,0.0,0.0,0.0,0.0,0.0,0.0,0.0,0.0,0.0,0.0,0.0,0.0,0.0,0.0,0.0,0.0,0.0,0.0,0.0,0.0,0.0,0.0,0.0,0.0,0.0,0.0,0.0,0.0,0.0,0.0,0.0,0.0,0.0,0.0,0.0,0.0,0.0,0.0,0.0,0.0,0.0,0.0,0.0,0.0,0.0,0.0,0.0,0.0,0.0,0.0,0.0,0.0,0.0,0.0,0.0,0.0,0.0,0.0,0.0,0.0,0.0,0.0,0.0,0.0,0.0,0.0,0.0,0.0,0.0,0.0,0.0,0.0,0.0,0.0,0.0,0.0,0.0,0.0,0.0,0.0,0.0,0.0,0.0,0.0,0.0,0.0,0.0,0.0,0.0,0.0,0.0,0.0,0.0,0.0,0.0,0.0,0.0,0.0,0.0,0.0,0.0,0.0,0.0,0.0,0.0,0.0,0.0,0.0,0.0,0.0,0.0,0.0,0.0,0.0,0.0,0.0,0.0,0.0,0.0,0.0,0.0,0.0,0.0,0.0,0.0,0.0,0.0,0.0,0.0,0.0,0.0,0.0,0.0,0.0,0.0,0.0,0.0,0.0,0.0,0.0,0.0,0.0,0.0,0.0,0.0,0.0,0.0,0.0,0.0,0.0,0.0,0.0,0.0,0.0,0.0,0.0,0.0,0.0,0.0,0.0,0.0,0.0,0.0,0.0,0.0,0.0,0.0,0.0,0.0,0.0,0.0,0.0,0.0,0.0,0.0,0.0,0.0,0.0,0.0,0.0,0.0,0.0,0.0,0.0,0.0,0.0,0.0,0.0,0.0,0.0,0.0,0.0,0.0,0.0,0.0,0.0,0.0,0.0,0.0,0.0,0.0,0.0,0.0,0.0,0.0,0.0,0.0,0.0,0.0,0.0,0.0,0.0,0.0,0.0,0.0,0.0,0.0,0.0,0.0,0.0,0.0,0.0,0.0,0.0,0.0,0.0,0.0,0.0,0.0,0.0,0.0,0.0,0.0,0.0,0.0,0.0,0.0,0.0,0.0,0.0,0.0,0.0,0.0,0.0,0.0,0.0,0.0,0.0,0.0,0.0,0.0,0.0,0.0,0.0,0.0,0.0,0.0,0.0,0.0,0.0,0.0,0.0,0.0,0.0,0.0,0.0,0.0,0.0,0.0,0.0,0.0,0.0,0.0,0.0,0.0,0.0,0.0,0.0,0.0,0.0,0.0,0.0,0.0,0.0,0.0,0.0,0.0,0.0,0.0,0.0,0.0,0.0,0.0,0.0,0.0,0.0,0.0,0.0,0.0,0.0,0.0,0.0,0.0,0.0,0.0,0.0,0.0,0.0,0.0,0.0,0.0,0.0,0.0,0.0,0.0,0.0,0.0,0.0,0.0,0.0,0.0,0.0,0.0,0.0,0.0,0.0,0.0,0.0,0.0,0.0,0.0,0.0,0.0,0.0,0.0,0.0,0.0,0.0,0.0,-1.7364,0.0,0.0,0.0,0.0,0.0,0.0,0.0,0.0,0.0,0.0,0.0,0.0,0.0,0.0,0.0,0.0,0.0,0.0,0.0,0.0,0.0,0.0,0.0,0.0,0.0,0.0,0.0,0.0,0.0,0.0,0.0,0.0,0.0,0.0,0.0,0.0,0.0,0.0,0.0,0.0,0.0,0.0,0.0,0.0,0.0,0.0,0.0,0.0,0.0,0.0,0.0,0.0,0.0,0.0,0.0,0.0,0.0,0.0,0.0,0.0,0.0,0.0,0.0,0.0,0.0,0.0,0.0,0.0,0.0,0.0,0.0,0.0,0.0,0.0,0.0,0.0,0.0,0.0,0.0,0.0,0.0,0.0,0.0,0.0,0.0,0.0,0.0,0.0,0.0,0.0,0.0,0.0,0.0,0.0,0.0,0.0,0.0,0.0,0.0,0.0,0.0,0.0,0.0,0.0,0.0,0.0,0.0,0.0,0.0,0.0,-1.8603,-1.8803,-1.7733,-1.6958,-1.6629,0.0,0.0,0.0,0.0,0.0,0.0,0.0,0.0,0.0,0.0,0.0,0.0,0.0,0.0,0.0,0.0,0.0,0.0,0.0,0.0,0.0,0.0,0.0,0.0,0.0,0.0,0.0,0.0,0.0,0.0,0.0,0.0,0.0,0.0,0.0,0.0,0.0,0.0,0.0,0.0,0.0,0.0,0.0,0.0,0.0,0.0,0.0,0.0,0.0,0.0,0.0,0.0,0.0,0.0,0.0,0.0,0.0,0.0,0.0,0.0,0.0,0.0,0.0,0.0,0.0,0.0,0.0,0.0,0.0,0.0,0.0,0.0,0.0,0.0,0.0,0.0,0.0,0.0,0.0,0.0,0.0,0.0,0.0,0.0,0.0,0.0,0.0,0.0,0.0,0.0,0.0,0.0,0.0,0.0,0.0,0.0,0.0,0.0,0.0,0.0,0.0,0.0,0.0,0.0,0.0,0.0,0.0,0.0,0.0,0.0,0.0,0.0,-1.7878,-1.7182,-1.64,0.0,0.0,0.0,0.0,0.0,0.0,0.0,0.0,0.0,0.0,0.0,0.0,0.0,0.0,0.0,0.0,0.0,0.0,0.0,0.0,0.0,0.0,0.0,0.0,0.0,0.0,0.0,0.0,0.0,0.0,0.0,0.0,0.0,0.0,0.0,0.0,0.0,0.0,0.0,0.0,0.0,0.0,0.0,0.0,0.0,0.0,0.0,0.0,0.0,0.0,0.0,0.0,0.0,0.0,0.0,0.0,0.0,0.0,0.0,0.0,0.0,0.0,0.0,0.0,0.0,0.0,0.0,0.0,0.0,0.0,0.0,0.0,0.0,0.0,0.0,0.0,0.0,0.0,0.0,0.0,0.0,0.0,0.0,0.0,0.0,0.0,0.0,0.0,0.0,0.0,0.0,0.0,0.0,0.0,0.0,0.0,0.0,0.0,0.0,0.0,0.0,0.0,0.0,0.0,0.0,0.0,0.0,0.0,0.0,0.0,-1.8083,-1.9501,-1.9578,0.0,-1.752,0.0,0.0,0.0,0.0,0.0,0.0,0.0,0.0,0.0,0.0,0.0,0.0,0.0,0.0,0.0,0.0,0.0,0.0,0.0,0.0,0.0,0.0,0.0,0.0,0.0,0.0,0.0,0.0,0.0,0.0,0.0,0.0,0.0,0.0,0.0,0.0,0.0,0.0,0.0,0.0,0.0,0.0,0.0,0.0,0.0,0.0,0.0,0.0,0.0,0.0,0.0,0.0,0.0,0.0,0.0,0.0,0.0,0.0,0.0,0.0,0.0,0.0,0.0,0.0,0.0,0.0,0.0,0.0,0.0,0.0,0.0,0.0,0.0,0.0,0.0,0.0,0.0,0.0,0.0,0.0,0.0,0.0,0.0,0.0,0.0,0.0,0.0,0.0,0.0,0.0,0.0,0.0,0.0,0.0,0.0,0.0,0.0,0.0,0.0,0.0,0.0,0.0,0.0,0.0,0.0,0.0,0.0,0.0,0.0,0.0,0.0,-1.8974,-1.8653,-1.814,0.0,0.0,0.0,0.0,0.0,0.0,0.0,0.0,0.0,0.0,0.0,0.0,0.0,0.0,0.0,0.0,0.0,0.0,0.0,0.0,0.0,0.0,0.0,0.0,0.0,0.0,0.0,0.0,0.0,0.0,0.0,0.0,0.0,0.0,0.0,0.0,0.0,0.0,0.0,0.0,0.0,0.0,0.0,0.0,0.0,0.0,0.0,0.0,0.0,0.0,0.0,0.0,0.0,0.0,0.0,0.0,0.0,0.0,0.0,0.0,0.0,0.0,0.0,0.0,0.0,0.0,0.0,0.0,0.0,0.0,0.0,0.0,0.0,0.0,0.0,0.0,0.0,0.0,0.0,0.0,0.0,0.0,0.0,0.0,0.0,0.0,0.0,0.0,0.0,0.0,0.0,0.0,0.0,0.0,0.0,0.0,0.0,0.0,0.0,0.0,0.0,0.0,0.0,0.0,0.0,0.0,0.0,0.0,0.0,0.0,-1.8041,0.0,-1.9186,-1.8541,-1.7893,-1.732,0.0,0.0,0.0,0.0,0.0,0.0,0.0,0.0,0.0,0.0,0.0,0.0,0.0,0.0,0.0,0.0,0.0,0.0,0.0,0.0,0.0,0.0,0.0,0.0,0.0,0.0,0.0,0.0,0.0,0.0,0.0,0.0,0.0,0.0,0.0,0.0,0.0,0.0,0.0,0.0,0.0,0.0,0.0,0.0,0.0,0.0,0.0,0.0,0.0,0.0,0.0,0.0,0.0,0.0,0.0,0.0,0.0,0.0,0.0,0.0,0.0,0.0,0.0,0.0,0.0,0.0,0.0,0.0,0.0,0.0,0.0,0.0,0.0,0.0,0.0,0.0,0.0,0.0,0.0,0.0,0.0,0.0,0.0,0.0,0.0,0.0,0.0,0.0,0.0,0.0,0.0,0.0,0.0,0.0,0.0,0.0,0.0,0.0,0.0,0.0,0.0,0.0,0.0,0.0,0.0,0.0,0.0,0.0,0.0,-1.896,-1.9456,-2.0975,-2.0234,-1.9025,0.0,0.0,0.0,0.0,0.0,0.0,0.0,0.0,0.0,0.0,0.0,0.0,0.0,0.0,0.0,0.0,0.0,0.0,0.0,0.0,0.0,0.0,0.0,0.0,0.0,0.0,0.0,0.0,0.0,0.0,0.0,0.0,0.0,0.0,0.0,0.0,0.0,0.0,0.0,0.0,0.0,0.0,0.0,0.0,0.0,0.0,0.0,0.0,0.0,0.0,0.0,0.0,0.0,0.0,0.0,0.0,0.0,0.0,0.0,0.0,0.0,0.0,0.0,0.0,0.0,0.0,0.0,0.0,0.0,0.0,0.0,0.0,0.0,0.0,0.0,0.0,0.0,0.0,0.0,0.0,0.0,0.0,0.0,0.0,0.0,0.0,0.0,0.0,0.0,0.0,0.0,0.0,0.0,0.0,0.0,0.0,0.0,0.0,0.0,0.0,0.0,0.0,0.0,0.0,0.0,0.0,0.0,0.0,0.0,-1.6626,-1.7518,-1.9316,-2.1885,-1.968,-1.8541,0.0,0.0,0.0,0.0,0.0,0.0,0.0,0.0,0.0,0.0,0.0,0.0,0.0,0.0,0.0,0.0,0.0,0.0,0.0,0.0,0.0,0.0,0.0,0.0,0.0,0.0,0.0,0.0,0.0,0.0,0.0,0.0,0.0,0.0,0.0,0.0,0.0,0.0,0.0,0.0,0.0,0.0,0.0,0.0,0.0,0.0,0.0,0.0,0.0,0.0,0.0,0.0,0.0,0.0,0.0,0.0,0.0,0.0,0.0,0.0,0.0,0.0,0.0,0.0,0.0,0.0,0.0,0.0,0.0,0.0,0.0,0.0,0.0,0.0,0.0,0.0,0.0,0.0,0.0,0.0,0.0,0.0,0.0,0.0,0.0,0.0,0.0,0.0,0.0,0.0,0.0,0.0,0.0,0.0,0.0,0.0,0.0,0.0,0.0,0.0,0.0,0.0,0.0,0.0,0.0,0.0,0.0,0.0,0.0,-1.6578,0.0,-2.0069,0.0,-1.9525,-1.8273,0.0,0.0,0.0,0.0,0.0,0.0,0.0,0.0,0.0,0.0,0.0,0.0,0.0,0.0,0.0,0.0,0.0,0.0,0.0,0.0,0.0,0.0,0.0,0.0,0.0,0.0,0.0,0.0,0.0,0.0,0.0,0.0,0.0,0.0,0.0,0.0,0.0,0.0,0.0,0.0,0.0,0.0,0.0,0.0,0.0,0.0,0.0,0.0,0.0,0.0,0.0,0.0,0.0,0.0,0.0,0.0,0.0,0.0,0.0,0.0,0.0,0.0,0.0,0.0,0.0,0.0,0.0,0.0,0.0,0.0,0.0,0.0,0.0,0.0,0.0,0.0,0.0,0.0,0.0,0.0,0.0,0.0,0.0,0.0,0.0,0.0,0.0,0.0,0.0,0.0,0.0,0.0,0.0,0.0,0.0,0.0,0.0,0.0,0.0,0.0,0.0,0.0,0.0,0.0,0.0,0.0,0.0,0.0,-1.6616,-1.9878,-2.1569,-2.1629,-2.0136,-1.9936,-1.8354,0.0,0.0,0.0,0.0,0.0,0.0,0.0,0.0,0.0,0.0,0.0,0.0,0.0,0.0,0.0,0.0,0.0,0.0,0.0,0.0,0.0,0.0,0.0,0.0,0.0,0.0,0.0,0.0,0.0,0.0,0.0,0.0,0.0,0.0,0.0,0.0,0.0,0.0,0.0,0.0,0.0,0.0,0.0,0.0,0.0,0.0,0.0,0.0,0.0,0.0,0.0,0.0,0.0,0.0,0.0,0.0,0.0,0.0,0.0,0.0,0.0,0.0,0.0,0.0,0.0,0.0,0.0,0.0,0.0,0.0,0.0,0.0,0.0,0.0,0.0,0.0,0.0,0.0,0.0,0.0,0.0,0.0,0.0,0.0,0.0,0.0,0.0,0.0,0.0,0.0,0.0,0.0,0.0,0.0,0.0,0.0,0.0,0.0,0.0,0.0,0.0,0.0,0.0,0.0,0.0,0.0,0.0,0.0,0.0,-1.8398,-1.9998,-2.1387,-2.2325,-1.966,-1.8401,0.0,0.0,0.0,0.0,0.0,0.0,0.0,0.0,0.0,0.0,0.0,0.0,0.0,0.0,0.0,0.0,0.0,0.0,0.0,0.0,0.0,0.0,0.0,0.0,0.0,0.0,0.0,0.0,0.0,0.0,0.0,0.0,0.0,0.0,0.0,0.0,0.0,0.0,0.0,0.0,0.0,0.0,0.0,0.0,0.0,0.0,0.0,0.0,0.0,0.0,0.0,0.0,0.0,0.0,0.0,0.0,0.0,0.0,0.0,0.0,0.0,0.0,0.0,0.0,0.0,0.0,0.0,0.0,0.0,0.0,0.0,0.0,0.0,0.0,0.0,0.0,0.0,0.0,0.0,0.0,0.0,0.0,0.0,0.0,0.0,0.0,0.0,0.0,0.0,0.0,0.0,0.0,0.0,0.0,0.0,0.0,0.0,0.0,0.0,0.0,0.0,0.0,0.0,0.0,0.0,0.0,0.0,0.0,0.0,-1.9935,-2.1262,-2.2517,-2.3606,-2.0413,-1.8901,-1.9327,0.0,0.0,0.0,0.0,0.0,0.0,0.0,0.0,0.0,0.0,0.0,0.0,0.0,0.0,0.0,0.0,0.0,0.0,0.0,0.0,0.0,0.0,0.0,0.0,0.0,0.0,0.0,0.0,0.0,0.0,0.0,0.0,0.0,0.0,0.0,0.0,0.0,0.0,0.0,0.0,0.0,0.0,0.0,0.0,0.0,0.0,0.0,0.0,0.0,0.0,0.0,0.0,0.0,0.0,0.0,0.0,0.0,0.0,0.0,0.0,0.0,0.0,0.0,0.0,0.0,0.0,0.0,0.0,0.0,0.0,0.0,0.0,0.0,0.0,0.0,0.0,0.0,0.0,0.0,0.0,0.0,0.0,0.0,0.0,0.0,0.0,0.0,0.0,0.0,0.0,0.0,0.0,0.0,0.0,0.0,0.0,0.0,0.0,0.0,0.0,0.0,0.0,0.0,0.0,0.0,0.0,0.0,0.0,-2.3859,-2.4822,-2.486,-2.3961,-2.2054,-1.9895,0.0,0.0,0.0,0.0,0.0,0.0,0.0,0.0,0.0,0.0,0.0,0.0,0.0,0.0,0.0,0.0,0.0,0.0,0.0,0.0,0.0,0.0,0.0,0.0,0.0,0.0,0.0,0.0,0.0,0.0,0.0,0.0,0.0,0.0,0.0,0.0,0.0,0.0,0.0,0.0,0.0,0.0,0.0,0.0,0.0,0.0,0.0,0.0,0.0,0.0,0.0,0.0,0.0,0.0,0.0,0.0,0.0,0.0,0.0,0.0,0.0,0.0,0.0,0.0,0.0,0.0,0.0,0.0,0.0,0.0,0.0,0.0,0.0,0.0,0.0,0.0,0.0,0.0,0.0,0.0,0.0,0.0,0.0,0.0,0.0,0.0,0.0,0.0,0.0,0.0,0.0,0.0,0.0,0.0,0.0,0.0,0.0,0.0,0.0,0.0,0.0,0.0,0.0,0.0,0.0,0.0,0.0,0.0,0.0,-2.6189,-2.6517,-2.6552,-2.6358,-2.3393,-2.1156,0.0,0.0,0.0,0.0,0.0,0.0,0.0,0.0,0.0,0.0,0.0,0.0,0.0,0.0,0.0,0.0,0.0,0.0,0.0,0.0,0.0,0.0,0.0,0.0,0.0,0.0,0.0,0.0,0.0,0.0,0.0,0.0,0.0,0.0,0.0,0.0,0.0,0.0,0.0,0.0,0.0,0.0,0.0,0.0,0.0,0.0,0.0,0.0,0.0,0.0,0.0,0.0,0.0,0.0,0.0,0.0,0.0,0.0,0.0,0.0,0.0,0.0,0.0,0.0,0.0,0.0,0.0,0.0,0.0,0.0,0.0,0.0,0.0,0.0,0.0,0.0,0.0,0.0,0.0,0.0,0.0,0.0,0.0,0.0,0.0,0.0,0.0,0.0,0.0,0.0,0.0,0.0,0.0,0.0,0.0,0.0,0.0,0.0,0.0,0.0,0.0,0.0,0.0,0.0,0.0,0.0,0.0,0.0,-2.3689,-2.7552,-2.7811,-2.7867,-2.7781,-2.5016,-2.2633,0.0,0.0,0.0,0.0,0.0,0.0,0.0,0.0,0.0,0.0,0.0,0.0,0.0,0.0,0.0,0.0,0.0,0.0,0.0,0.0,0.0,0.0,0.0,0.0,0.0,0.0,0.0,0.0,0.0,0.0,0.0,0.0,0.0,0.0,0.0,0.0,0.0,0.0,0.0,0.0,0.0,0.0,0.0,0.0,0.0,0.0,0.0,0.0,0.0,0.0,0.0,0.0,0.0,0.0,0.0,0.0,0.0,0.0,0.0,0.0,0.0,0.0,0.0,0.0,0.0,0.0,0.0,0.0,0.0,0.0,0.0,0.0,0.0,0.0,0.0,0.0,0.0,0.0,0.0,0.0,0.0,0.0,0.0,0.0,0.0,0.0,0.0,0.0,0.0,0.0,0.0,0.0,0.0,0.0,0.0,0.0,0.0,0.0,0.0,0.0,0.0,0.0,0.0,0.0,0.0,0.0,0.0,0.0,-2.4782,-2.8132,-2.8743,-2.879,-2.8381,-2.6563,-2.4104,0.0,0.0,0.0,0.0,0.0,0.0,0.0,0.0,0.0,0.0,0.0,0.0,0.0,0.0,0.0,0.0,0.0,0.0,0.0,0.0,0.0,0.0,0.0,0.0,0.0,0.0,0.0,0.0,0.0,0.0,0.0,0.0,0.0,0.0,0.0,0.0,0.0,0.0,0.0,0.0,0.0,0.0,0.0,0.0,0.0,0.0,0.0,0.0,0.0,0.0,0.0,0.0,0.0,0.0,0.0,0.0,0.0,0.0,0.0,0.0,0.0,0.0,0.0,0.0,0.0,0.0,0.0,0.0,0.0,0.0,0.0,0.0,0.0,0.0,0.0,0.0,0.0,0.0,0.0,0.0,0.0,0.0,0.0,0.0,0.0,0.0,0.0,0.0,0.0,0.0,0.0,0.0,0.0,0.0,0.0,0.0,0.0,0.0,0.0,0.0,0.0,0.0,0.0,0.0,0.0,0.0,0.0,0.0,-2.5566,-2.8855,-2.8934,-2.8975,-2.9081,-2.6723,-2.4294,0.0,0.0,0.0,0.0,0.0,0.0,0.0,0.0,0.0,0.0,0.0,0.0,0.0,0.0,0.0,0.0,0.0,0.0,0.0,0.0,0.0,0.0,0.0,0.0,0.0,0.0,0.0,0.0,0.0,0.0,0.0,0.0,0.0,0.0,0.0,0.0,0.0,0.0,0.0,0.0,0.0,0.0,0.0,0.0,0.0,0.0,0.0,0.0,-1.0622,0.0,0.0,0.0,0.0,0.0,0.0,0.0,0.0,0.0,0.0,0.0,0.0,0.0,0.0,0.0,0.0,0.0,0.0,0.0,0.0,0.0,0.0,0.0,0.0,0.0,0.0,0.0,0.0,0.0,0.0,0.0,0.0,0.0,0.0,0.0,0.0,0.0,0.0,0.0,0.0,0.0,0.0,0.0,0.0,0.0,0.0,0.0,0.0,0.0,0.0,0.0,0.0,0.0,0.0,0.0,0.0,0.0,0.0,0.0,-2.6305,-2.9471,-2.9189,-2.9193,-2.9606,-2.7632,-2.5279,0.0,0.0,0.0,0.0,0.0,0.0,0.0,0.0,0.0,0.0,0.0,0.0,0.0,0.0,0.0,0.0,0.0,0.0,0.0,0.0,0.0,0.0,0.0,0.0,0.0,0.0,0.0,0.0,0.0,0.0,0.0,0.0,0.0,0.0,0.0,0.0,0.0,0.0,0.0,0.0,0.0,0.0,0.0,0.0,0.0,0.0,0.0,0.0,0.0,0.0,0.0,0.0,0.0,0.0,0.0,0.0,0.0,0.0,0.0,0.0,0.0,0.0,0.0,0.0,0.0,0.0,0.0,0.0,0.0,0.0,0.0,0.0,0.0,0.0,0.0,0.0,0.0,0.0,0.0,0.0,0.0,0.0,0.0,0.0,0.0,0.0,0.0,0.0,0.0,0.0,0.0,0.0,0.0,0.0,0.0,0.0,0.0,0.0,0.0,0.0,0.0,0.0,0.0,0.0,0.0,0.0,0.0,-2.4596,-2.6856,-2.9899,-2.9373,-2.9384,-3.0196,-2.8782,-2.6606,-2.371,0.0,0.0,0.0,0.0,0.0,0.0,0.0,0.0,0.0,0.0,0.0,0.0,0.0,0.0,0.0,0.0,0.0,0.0,0.0,0.0,0.0,0.0,0.0,0.0,0.0,0.0,0.0,0.0,0.0,0.0,0.0,0.0,0.0,0.0,0.0,0.0,0.0,0.0,-1.048,-1.1833,0.0,0.0,0.0,0.0,0.0,0.0,0.0,0.0,-1.2863,0.0,0.0,0.0,0.0,0.0,0.0,0.0,0.0,0.0,0.0,0.0,0.0,0.0,0.0,0.0,0.0,0.0,0.0,0.0,0.0,0.0,0.0,0.0,0.0,0.0,0.0,0.0,0.0,0.0,0.0,0.0,0.0,0.0,0.0,0.0,0.0,0.0,0.0,0.0,0.0,0.0,0.0,0.0,0.0,0.0,0.0,0.0,0.0,0.0,0.0,0.0,0.0,0.0,0.0,0.0,0.0,-2.4842,-2.5121,-2.6794,-2.9978,-2.9338,-2.9442,-3.0439,-2.9418,-2.7685,-2.5334,0.0,0.0,0.0,0.0,0.0,0.0,0.0,0.0,0.0,0.0,0.0,0.0,0.0,0.0,0.0,0.0,0.0,0.0,0.0,0.0,0.0,0.0,0.0,0.0,0.0,0.0,0.0,0.0,0.0,0.0,0.0,0.0,0.0,0.0,0.0,0.0,0.0,0.0,0.0,-1.4116,-1.4909,0.0,0.0,0.0,0.0,0.0,0.0,0.0,0.0,-1.2094,0.0,0.0,0.0,0.0,0.0,0.0,0.0,0.0,0.0,0.0,0.0,0.0,0.0,0.0,0.0,0.0,0.0,0.0,0.0,0.0,0.0,0.0,0.0,0.0,0.0,0.0,0.0,0.0,0.0,0.0,0.0,0.0,0.0,0.0,0.0,0.0,0.0,0.0,0.0,0.0,0.0,0.0,0.0,0.0,0.0,0.0,0.0,0.0,0.0,0.0,0.0,0.0,0.0,0.0,0.0,-2.3896,-2.56,-2.7595,-2.9867,-2.9272,-2.9354,-3.0252,-2.8658,-2.7061,0.0,0.0,0.0,0.0,0.0,0.0,0.0,0.0,0.0,0.0,0.0,0.0,0.0,0.0,0.0,0.0,0.0,0.0,0.0,0.0,0.0,0.0,0.0,0.0,0.0,0.0,0.0,0.0,0.0,0.0,0.0,0.0,0.0,0.0,0.0,0.0,0.0,0.0,0.0,0.0,-1.5155,-1.5612,-1.5629,0.0,0.0,0.0,0.0,0.0,0.0,-1.3515,-1.2795,0.0,0.0,0.0,0.0,0.0,0.0,0.0,0.0,0.0,0.0,0.0,0.0,0.0,0.0,0.0,0.0,0.0,0.0,0.0,0.0,0.0,0.0,0.0,0.0,0.0,0.0,0.0,0.0,0.0,0.0,0.0,0.0,0.0,0.0,0.0,0.0,0.0,0.0,0.0,0.0,0.0,0.0,0.0,0.0,0.0,0.0,0.0,0.0,0.0,0.0,0.0,0.0,0.0,0.0,0.0,-2.3102,-2.5921,-2.8208,-2.983,-2.929,-2.9337,-3.0123,-2.8018,-2.6415,0.0,0.0,0.0,0.0,0.0,0.0,0.0,0.0,0.0,0.0,0.0,0.0,0.0,0.0,0.0,0.0,0.0,0.0,0.0,0.0,0.0,0.0,0.0,0.0,0.0,0.0,0.0,0.0,0.0,0.0,0.0,0.0,0.0,0.0,0.0,0.0,0.0,0.0,0.0,0.0,0.0,-1.6593,-1.6874,-1.6407,0.0,0.0,0.0,0.0,-1.5917,-1.5063,0.0,0.0,0.0,0.0,0.0,0.0,0.0,0.0,0.0,0.0,0.0,0.0,0.0,0.0,0.0,0.0,0.0,0.0,0.0,0.0,0.0,0.0,0.0,0.0,0.0,0.0,0.0,0.0,0.0,0.0,0.0,0.0,0.0,0.0,0.0,0.0,0.0,0.0,0.0,0.0,0.0,0.0,0.0,0.0,0.0,0.0,0.0,0.0,0.0,0.0,0.0,0.0,0.0,0.0,0.0,0.0,-2.3969,-2.5753,-2.7768,-2.999,-2.9385,-2.9487,-3.0479,-2.8691,-2.7093,0.0,0.0,0.0,0.0,0.0,0.0,0.0,0.0,0.0,0.0,0.0,0.0,0.0,0.0,0.0,0.0,0.0,0.0,0.0,0.0,0.0,0.0,0.0,0.0,0.0,0.0,0.0,0.0,0.0,0.0,0.0,0.0,0.0,0.0,0.0,0.0,0.0,0.0,0.0,0.0,0.0,-1.9056,-1.785,-1.7591,-1.7287,0.0,0.0,-1.6688,-1.7428,-1.7394,0.0,0.0,0.0,0.0,0.0,0.0,0.0,0.0,0.0,0.0,0.0,0.0,0.0,0.0,0.0,0.0,0.0,0.0,0.0,0.0,0.0,0.0,0.0,0.0,0.0,0.0,0.0,0.0,0.0,0.0,0.0,0.0,0.0,0.0,0.0,0.0,0.0,0.0,0.0,0.0,0.0,0.0,0.0,0.0,0.0,0.0,0.0,0.0,0.0,0.0,0.0,0.0,0.0,0.0,0.0,-2.1128,-2.3464,-2.5926,-2.7917,-2.932,-2.91,-2.9214,-2.9771,-2.7611,-2.6039,0.0,0.0,0.0,0.0,0.0,0.0,0.0,0.0,0.0,0.0,0.0,0.0,0.0,0.0,0.0,0.0,0.0,0.0,0.0,0.0,0.0,0.0,0.0,0.0,0.0,0.0,0.0,0.0,0.0,0.0,0.0,0.0,0.0,0.0,0.0,0.0,0.0,0.0,0.0,0.0,0.0,0.0,-1.8504,-1.842,0.0,0.0,0.0,-1.758,-1.8302,0.0,0.0,0.0,0.0,0.0,0.0,0.0,0.0,0.0,0.0,0.0,0.0,0.0,0.0,0.0,0.0,0.0,0.0,0.0,0.0,0.0,0.0,0.0,0.0,0.0,0.0,0.0,0.0,0.0,0.0,0.0,0.0,0.0,0.0,0.0,0.0,0.0,0.0,0.0,0.0,0.0,0.0,0.0,0.0,0.0,0.0,0.0,0.0,0.0,0.0,0.0,0.0,0.0,0.0,0.0,0.0,0.0,-2.3206,-2.619,-2.8107,-2.8827,-2.9076,-2.9228,-2.9172,-2.7155,0.0,0.0,0.0,0.0,0.0,0.0,0.0,0.0,0.0,0.0,0.0,0.0,0.0,0.0,0.0,0.0,0.0,0.0,0.0,0.0,0.0,0.0,0.0,0.0,0.0,0.0,0.0,-0.5277,0.0,0.0,0.0,0.0,0.0,0.0,0.0,0.0,0.0,0.0,0.0,0.0,0.0,0.0,-1.9401,-1.9198,-1.9362,-1.9469,0.0,0.0,-1.8843,-1.9396,-1.9164,-1.8527,0.0,0.0,0.0,0.0,0.0,0.0,0.0,0.0,0.0,0.0,0.0,0.0,0.0,0.0,0.0,0.0,0.0,0.0,0.0,0.0,0.0,0.0,0.0,0.0,0.0,0.0,0.0,0.0,0.0,0.0,0.0,0.0,0.0,0.0,0.0,0.0,0.0,0.0,0.0,0.0,0.0,0.0,0.0,0.0,0.0,0.0,0.0,0.0,0.0,0.0,0.0,0.0,0.0,0.0,0.0,-2.4012,-2.6499,-2.8198,-2.8994,-2.9721,-2.9856,-2.9301,-2.8351,-2.6814,0.0,0.0,0.0,0.0,0.0,0.0,0.0,0.0,0.0,0.0,0.0,0.0,0.0,0.0,0.0,0.0,0.0,0.0,0.0,0.0,0.0,0.0,0.0,0.0,0.0,0.0,0.0,0.0,0.0,0.0,0.0,0.0,0.0,0.0,0.0,0.0,0.0,0.0,0.0,0.0,0.0,-2.0784,-2.0031,-2.0568,-2.1038,0.0,0.0,-2.1004,-2.1021,-2.1566,-2.1262,-1.908,0.0,0.0,0.0,0.0,0.0,0.0,0.0,0.0,0.0,0.0,0.0,0.0,0.0,0.0,0.0,0.0,0.0,0.0,0.0,0.0,0.0,0.0,0.0,0.0,0.0,0.0,0.0,0.0,0.0,0.0,0.0,0.0,0.0,0.0,0.0,0.0,0.0,0.0,0.0,0.0,0.0,0.0,0.0,0.0,0.0,0.0,0.0,0.0,0.0,0.0,0.0,0.0,0.0,-2.1208,-2.4142,-2.6576,-2.8429,-2.9684,-3.0032,-3.015,-3.0033,-2.8223,-2.6405,0.0,0.0,0.0,0.0,0.0,0.0,0.0,0.0,0.0,0.0,0.0,0.0,0.0,0.0,0.0,0.0,0.0,0.0,0.0,0.0,0.0,0.0,0.0,0.0,0.0,0.0,0.0,0.0,-0.7786,-0.8344,-0.9077,0.0,0.0,0.0,0.0,0.0,0.0,0.0,0.0,0.0,0.0,-2.0534,-2.0703,-2.1021,0.0,0.0,-2.1495,-2.136,-2.182,-2.1177,-2.0069,-1.8486,-1.7087,0.0,0.0,0.0,0.0,0.0,0.0,0.0,0.0,0.0,0.0,0.0,0.0,0.0,0.0,0.0,0.0,0.0,0.0,0.0,0.0,0.0,0.0,0.0,0.0,0.0,0.0,0.0,0.0,0.0,0.0,0.0,0.0,0.0,0.0,0.0,0.0,0.0,0.0,0.0,0.0,0.0,0.0,0.0,0.0,0.0,0.0,0.0,0.0,0.0,0.0,0.0,0.0,-2.0904,-2.4124,-2.6381,-2.8319,-2.9892,-3.0169,-3.0283,-3.0174,-2.8275,-2.6395,0.0,0.0,0.0,0.0,0.0,0.0,0.0,0.0,0.0,0.0,0.0,0.0,0.0,0.0,0.0,0.0,0.0,0.0,0.0,0.0,0.0,0.0,0.0,0.0,0.0,0.0,0.0,0.0,-0.9055,-0.9349,-0.9635,0.0,0.0,0.0,0.0,0.0,0.0,0.0,0.0,0.0,0.0,-2.0302,-2.1072,-2.1393,-2.1718,-2.2212,-2.1784,-2.1521,-2.1924,-2.0997,-1.9771,-1.8356,0.0,0.0,0.0,0.0,0.0,0.0,0.0,0.0,0.0,0.0,0.0,0.0,0.0,0.0,0.0,0.0,0.0,0.0,0.0,0.0,0.0,0.0,0.0,0.0,0.0,0.0,0.0,0.0,0.0,0.0,-1.6292,0.0,0.0,0.0,0.0,0.0,0.0,0.0,0.0,0.0,0.0,0.0,0.0,0.0,0.0,0.0,0.0,0.0,0.0,0.0,0.0,0.0,0.0,0.0,-2.3991,-2.6004,-2.7752,-2.9312,-3.0089,-3.0222,-2.9664,-2.8746,-2.7144,-2.4718,0.0,0.0,0.0,0.0,0.0,0.0,0.0,0.0,0.0,0.0,0.0,0.0,0.0,0.0,0.0,0.0,0.0,0.0,0.0,0.0,0.0,0.0,0.0,0.0,0.0,0.0,-1.0842,-1.0362,-0.9692,0.0,0.0,0.0,0.0,0.0,0.0,0.0,0.0,0.0,0.0,-1.9072,-2.0302,-2.1106,-2.182,-2.2293,-2.233,-2.2017,-2.1663,-2.1353,-2.1501,-2.1102,0.0,0.0,0.0,0.0,0.0,0.0,0.0,0.0,0.0,0.0,0.0,0.0,0.0,0.0,0.0,0.0,0.0,0.0,0.0,0.0,0.0,0.0,0.0,0.0,0.0,0.0,0.0,-2.1989,-2.0886,0.0,0.0,0.0,0.0,0.0,0.0,0.0,0.0,0.0,0.0,0.0,-2.5581,-2.6129,0.0,0.0,0.0,0.0,0.0,0.0,0.0,0.0,0.0,0.0,0.0,0.0,-2.2457,-2.5023,-2.7466,-2.9232,-3.0261,-3.055,-3.0538,-3.0205,-2.897,-2.6645,-2.3161,0.0,0.0,0.0,0.0,0.0,0.0,0.0,0.0,0.0,0.0,0.0,0.0,0.0,0.0,0.0,0.0,0.0,0.0,0.0,0.0,0.0,0.0,0.0,0.0,0.0,-0.9569,0.0,0.0,0.0,0.0,0.0,0.0,0.0,0.0,0.0,0.0,0.0,-1.7411,-1.8403,-1.9853,-2.1075,-2.1837,-2.2564,-2.3038,0.0,0.0,0.0,0.0,0.0,0.0,0.0,0.0,0.0,0.0,0.0,0.0,0.0,0.0,-1.7786,-1.3606,-1.2499,-1.2123,-1.1825,0.0,0.0,0.0,0.0,0.0,0.0,0.0,0.0,0.0,0.0,0.0,0.0,0.0,0.0,-2.5373,0.0,-2.3638,0.0,0.0,0.0,0.0,0.0,0.0,0.0,0.0,-2.6141,-2.7517,-2.858,-2.9108,-2.907,0.0,-2.7459,-2.5205,0.0,0.0,0.0,0.0,0.0,0.0,0.0,0.0,-2.3609,-2.5705,-2.8077,-2.967,-3.0443,-3.048,-3.0387,-3.016,-2.8343,-2.6005,-2.3172,-2.0899,-1.9051,0.0,0.0,0.0,0.0,0.0,0.0,0.0,0.0,0.0,0.0,0.0,0.0,0.0,0.0,0.0,0.0,0.0,0.0,0.0,0.0,0.0,0.0,0.0,-1.0443,0.0,0.0,0.0,0.0,0.0,0.0,0.0,0.0,0.0,-1.4894,-1.661,-1.8369,-1.9891,-2.0716,-2.1563,-2.2547,0.0,0.0,0.0,0.0,0.0,0.0,0.0,-2.1064,-2.0823,-2.0689,-2.0468,-2.0094,-2.0733,-2.1006,-2.0195,0.0,0.0,-1.5461,-1.4415,-1.4037,-1.3743,-1.4384,-1.4935,-1.4827,-1.5781,-1.6593,0.0,0.0,0.0,0.0,0.0,0.0,0.0,0.0,-2.8969,-2.9187,0.0,-2.73,0.0,0.0,0.0,0.0,0.0,-2.5294,0.0,0.0,-2.9485,-3.0287,-3.0319,-3.0383,-3.0357,-3.0326,-3.03,-2.9402,-2.7549,-2.2844,0.0,0.0,0.0,0.0,0.0,0.0,-2.4377,-2.6022,-2.7861,-2.914,-2.9886,-2.9924,-2.9794,-2.9514,-2.7047,-2.538,-2.4665,-2.3052,-2.1056,-1.8603,-1.764,0.0,0.0,0.0,0.0,0.0,0.0,0.0,0.0,0.0,0.0,0.0,0.0,0.0,0.0,0.0,0.0,0.0,0.0,0.0,0.0,-1.2465,0.0,0.0,0.0,0.0,0.0,0.0,0.0,0.0,0.0,0.0,-1.7834,-1.7986,-1.9,-2.1874,0.0,0.0,0.0,0.0,-2.3492,-2.3494,-2.3806,-2.3912,-2.3551,-2.3739,-2.3579,-2.2541,0.0,0.0,-2.2558,-2.2565,-2.2088,-1.9942,-1.9931,-1.9999,-1.9688,-1.8718,-1.7929,-1.7254,-1.7117,-1.7135,-1.6924,-1.7531,-1.8158,-3.5678,0.0,0.0,0.0,0.0,-3.1782,-3.2596,-3.4179,-3.3674,-3.2756,-3.1572,-3.1114,0.0,0.0,0.0,0.0,0.0,0.0,-2.8975,-3.0369,-3.1477,-3.2306,-3.2924,-3.3509,-3.3471,-3.2917,-3.2905,-3.2038,-3.0376,-2.8332,-2.5485,-2.1965,0.0,0.0,0.0,0.0,-2.6218,-2.7807,-2.9114,-2.988,-3.0101,-3.0121,-2.9676,-2.8761,-2.7415,-2.5981,-2.4552,-2.347,-2.2028,-2.0124,-1.916,0.0,0.0,0.0,0.0,0.0,0.0,0.0,0.0,0.0,0.0,0.0,0.0,0.0,0.0,0.0,0.0,0.0,0.0,0.0,-1.1049,-1.2017,-1.2432,0.0,0.0,0.0,0.0,0.0,0.0,0.0,0.0,0.0,-2.069,-2.1011,-2.1333,0.0,0.0,-2.3509,-2.3424,-2.4289,-2.4983,-2.4966,0.0,0.0,0.0,-2.4179,-2.3641,-2.3833,-2.4661,-2.5119,-2.4713,-2.4478,-2.377,-2.2055,-2.1599,-2.1311,-2.0639,-1.956,-1.8633,-1.8129,-1.8331,-1.8591,-1.8557,-1.9111,-1.9672,-4.0963,-3.8382,-3.6226,-3.5799,-3.6494,-3.5926,-3.6667,-3.824,-3.7267,-3.6396,-3.566,-3.4972,-3.3394,-3.1114,-3.0121,0.0,0.0,0.0,-3.1821,-3.3425,-3.396,-3.4495,-3.4999,-3.5488,-3.5267,-3.4464,-3.4147,-3.3471,-3.2477,-3.1618,-2.9497,-2.6186,0.0,0.0,-2.5278,-2.6591,-2.774,-2.8707,-2.9696,-3.0204,-3.0204,-3.0128,-2.957,-2.8506,-2.7525,-2.6382,-2.5044,-2.4145,-2.2911,-2.128,-2.0685,-1.9096,0.0,0.0,0.0,0.0,0.0,0.0,0.0,0.0,0.0,0.0,0.0,-0.8014,0.0,0.0,0.0,0.0,-1.0681,-1.1989,-1.3185,-1.376,0.0,0.0,0.0,0.0,0.0,0.0,0.0,-1.8053,-1.9029,-2.0382,-2.2462,-2.3243,-2.3598,-2.3615,-2.4135,-2.444,-2.4289,0.0,-2.5609,-2.5609,-2.5845,-2.6048,-2.6031,-2.5287,-2.4864,-2.5303,-2.571,-2.5896,-2.5626,-2.5396,-2.4796,-2.373,-2.3207,-2.2883,-2.2377,-2.1364,-2.029,-1.9484,-1.9575,-1.9808,-1.9839,-2.0181,-2.0513,-4.5016,-4.4656,-4.0674,-3.9392,-3.999,-3.9985,-4.0286,-4.0744,-3.9958,-3.9865,-4.0195,-3.8609,-3.7415,-3.6443,-3.4151,0.0,-3.43,-3.43,-3.5114,-3.6596,-3.6615,-3.6576,-3.6576,-3.6519,-3.608,-3.5297,-3.4483,-3.409,-3.4052,-3.3272,-3.247,-3.1656,-2.9363,-2.8103,-2.795,-2.8554,-2.8936,-2.9025,-2.9803,-3.0204,-3.0204,-3.0019,-2.9477,-2.8506,-2.748,-2.657,-2.5804,-2.482,-2.3574,-2.2078,-2.1985,-2.0459,-1.7197,0.0,0.0,0.0,0.0,0.0,0.0,0.0,0.0,0.0,0.0,0.0,0.0,0.0,0.0,0.0,-1.2909,0.0,-1.6428,-1.6665,0.0,0.0,0.0,-1.6621,-1.6018,-1.7202,-1.8358,-1.908,0.0,0.0,-2.3477,0.0,-2.5625,-2.5677,-2.5101,-2.4897,-2.5524,-2.5659,-2.5677,-2.5728,-2.6268,-2.6691,-2.6623,-2.6556,-2.6505,-2.6556,-2.6708,-2.642,-2.5879,-2.5711,-2.5423,-2.468,-2.4575,-2.4478,-2.4415,-2.3568,-2.2755,-2.1215,-2.0876,-2.0828,-2.0812,-2.0812,-2.086,-4.6746,-4.656,-4.4889,-4.3588,-4.2607,-4.2477,-4.2542,-4.2628,-4.2393,-4.1582,-4.0353,-3.995,-3.8895,-3.7387,-3.6776,-3.6623,-3.6814,-3.6814,-3.7024,-3.7406,-3.7406,-3.7426,-3.7387,-3.6787,-3.6385,-3.6137,-3.5324,-3.4923,-3.4904,-3.4713,-3.4197,-3.3414,-3.2783,-3.1541,-2.965,-2.9127,-2.9223,-2.9879,-3.0096,-3.0204,-3.0204,-3.015,-2.9341,-2.7729,-2.7334,-2.6386,-2.4811,-2.3849,-2.2876,-2.1917,-2.1844,-2.0623,-1.7968,-1.6872,0.0,0.0,0.0,0.0,0.0,0.0,0.0,0.0,0.0,-1.2299,-0.93,0.0,-1.4423,0.0,-1.5122,-1.5893,-1.5849,-1.6367,0.0,0.0,-1.7958,-1.8533,-1.8915,-1.9824,-2.0683,-2.1414,-2.2448,-2.363,-2.4915,-2.5389,-2.5795,-2.6353,-2.6268,-2.6031,-2.571,-2.6099,-2.6437,-2.6437,-2.6573,-2.6708,-2.6708,-2.6708,-2.6708,-2.6708,-2.6708,-2.6623,-2.6471,-2.6437,-2.6201,-2.5507,-2.5338,-2.5103,-2.4566,-2.3796,-2.317,-2.2548,-2.1792,-2.1183,-2.1183,-2.1183,-2.123,-4.7922,-4.7803,-4.6948,-4.6035,-4.5176,-4.4711,-4.449,-4.4428,-4.4008,-4.3173,-4.2019,-4.1248,-4.0335,-3.9402,-3.9011,-3.8858,-3.8858,-3.8858,-3.8858,-3.8858,-3.8877,-3.8648,-3.8247,-3.7445,-3.6844,-3.6462,-3.5621,-3.5182,-3.5182,-3.5182,-3.4961,-3.4522,-3.4159,-3.3307,-3.1912,-3.0663,-3.03,-3.0765,-3.0402,-3.0204,-3.0204,-2.9822,-2.8947,-2.7594,-2.7021,-2.604,-2.459,-2.3948,-2.3068,-2.1876,-2.2143,-2.1363,-1.93,-1.8401,-1.7385,0.0,0.0,0.0,0.0,0.0,0.0,0.0,0.0,0.0,0.0,0.0,-1.5599,-1.5539,-1.6557,-1.7422,-1.8042,-1.8465,-1.8872,-1.9266,-1.9976,-2.0572,-2.0995,-2.1701,-2.2446,-2.319,-2.3917,-2.4695,-2.5474,-2.5863,-2.6234,-2.664,-2.6708,-2.6556,-2.6218,-2.6454,-2.6708,-2.6708,-2.6708,-2.6708,-2.6708,-2.6708,-2.6708,-2.6708,-2.6708,-2.6708,-2.6708,-2.6708,-2.6573,-2.6184,-2.6099,-2.5981,-2.5476,-2.4771,-2.4189,-2.3927,-2.2959,-2.1999,-2.1591,-2.1526,-2.1602,-4.8773,-4.8694,-4.7828,-4.7395,-4.7254,-4.6482,-4.6055,-4.5861,-4.5105,-4.4578,-4.411,-4.2307,-4.1504,-4.1437,-4.0664,-4.032,-4.032,-4.032,-4.032,-4.032,-4.032,-3.9909,-3.9126,-3.8171,-3.733,-3.6615,-3.566,-3.5182,-3.5182,-3.5182,-3.5182,-3.5171,-3.4483,-3.4159,-3.4082,-3.2592,-3.1675,-3.1331,-3.0593,-3.0204,-3.0204,-2.9452,-2.8631,-2.7714,-2.6825,-2.5823,-2.4745,-2.4416,-2.3541,-2.2087,-2.263,-2.229,-2.0749,-2.0005,-1.9539,0.0,-1.787,0.0,0.0,0.0,0.0,0.0,0.0,0.0,0.0,-1.6913,-1.7062,-1.7156,-1.7861,-1.9043,-2.0869,-2.114,-2.1224,-2.1343,-2.2006,-2.2465,-2.2598,-2.3241,-2.3932,-2.4575,-2.5287,-2.5744,-2.5778,-2.6319,-2.6691,-2.6708,-2.6708,-2.6674,-2.6674,-2.6674,-2.6708,-2.6708,-2.6708,-2.6708,-2.6708,-2.6708,-2.6708,-2.6708,-2.6708,-2.6708,-2.6708,-2.6708,-2.6691,-2.6674,-2.6657,-2.6657,-2.6708,-2.595,-2.5379,-2.5128,-2.3879,-2.2722,-2.2144,-2.1864,-2.1811,-4.9707,-4.9581,-4.87,-4.796,-4.7293,-4.7143,-4.6646,-4.5975,-4.58,-4.5215,-4.4225,-4.2334,-4.1504,-4.1437,-4.0673,-4.032,-4.032,-4.032,-4.032,-4.032,-4.032,-4.0225,-3.9966,-3.8438,-3.7636,-3.7387,-3.5935,-3.5182,-3.5182,-3.5182,-3.5182,-3.5182,-3.5057,-3.498,-3.4923,0.0,0.0,0.0,-3.0307,-3.0204,-3.0204,-3.0032,-2.923,-2.7771,-2.7364,0.0,-2.4771,-2.3875,-2.3236,-2.2804,-2.2914,0.0,0.0,0.0,0.0,0.0,0.0,0.0,0.0,0.0,0.0,0.0,-1.9556,-1.8701,-1.7607,-1.9499,-2.0525,-1.9815,-2.0417,-2.0698,-2.0276,-2.0822,-2.1444,-2.2057,-2.2767,-2.3427,-2.4017,-2.4729,-2.5253,-2.5372,-2.6031,-2.6488,-2.6488,-2.6623,-2.6708,-2.6708,-2.6708,-2.6708,-2.6708,-2.6708,-2.6708,-2.6708,-2.6708,-2.6708,-2.6708,-2.6708,-2.6708,-2.6708,-2.6708,-2.6708,-2.6708,-2.6708,-2.6708,-2.6708,-2.6708,-2.6708,-2.6691,-2.6083,-2.5359,-2.472,-2.3866,-2.3135,-2.283,-2.2284,-2.1884,-5.0228,0.0,-4.9657,-4.9021,0.0,-4.7714,-4.7101,-4.6664,-4.6206,-4.5647,-4.494,-4.3469,-4.2585,-4.2087,-4.1266,-4.0673,-4.032,-4.032,-4.032,-4.032,-4.032,-4.032,-4.0244,-3.8954,-3.8094,-3.7655,-3.6451,-3.5602,-3.5201,-3.5182,-3.5182,-3.5182,-3.5182,-3.5182,-3.5171,-3.3987,-3.2535,-3.0854,-3.0414,-3.0204,-3.0185,-2.9784,-2.8975,-2.7752,0.0,0.0,0.0,0.0,0.0,0.0,0.0,0.0,0.0,0.0,0.0,-2.1643,-2.1232,-2.0814,-2.0389,-2.0662,-2.1025,-2.1451,-2.1487,-2.0877,-1.9432,-2.067,-2.1423,-2.1191,-2.1759,-2.2074,-2.193,-2.2459,-2.2967,-2.3391,-2.4052,-2.4644,-2.5033,-2.5693,-2.6133,-2.6167,-2.6471,-2.6708,-2.6708,-2.6708,-2.6708,-2.6708,-2.6708,-2.6708,-2.6708,-2.6708,-2.6708,-2.6708,-2.6708,-2.6708,-2.6708,-2.6708,-2.6708,-2.6708,-2.6708,-2.6708,-2.6708,-2.6708,-2.6708,-2.6708,-2.6708,-2.6708,-2.664,-2.6066,-2.5443,-2.4955,-2.4,-2.3248,-2.312,-2.2504,-2.1957,-5.0672,-5.125,-5.0529,-5.0135,-4.9878,-4.8304,-4.7447,-4.711,0.0,0.0,0.0,-4.4652,-4.378,-4.2986,-4.1963,-4.1132,-4.054,-4.0358,-4.032,-4.032,-4.032,-4.032,-4.0263,-3.9412,-3.8553,-3.7674,-3.6882,-3.6042,-3.5201,-3.5182,-3.5182,-3.5182,-3.5182,-3.5182,-3.5095,-3.354,-3.2374,-3.1687,-3.072,-3.0204,-3.0185,-2.949,-2.8745,-2.7943,-2.709,-2.6103,-2.5005,-2.4929,-2.4462,-2.3529,-2.3428,-2.3428,-2.3419,-2.3281,-2.3464,-2.3981,-2.4074,-2.376,-2.3002,-2.3531,-2.3331,-2.1994,-2.2644,-2.262,-2.1478,-2.1647,-2.1946,-2.237,-2.292,-2.348,-2.4019,-2.4369,-2.4633,-2.4769,-2.5284,-2.5626,-2.5795,-2.6302,-2.6674,-2.6708,-2.6691,-2.6708,-2.6708,-2.6708,-2.6708,-2.6708,-2.6708,-2.6708,-2.6708,-2.6708,-2.6708,-2.6708,-2.6708,-2.6708,-2.6708,-2.6708,-2.6708,-2.6708,-2.6708,-2.6708,-2.6708,-2.6708,-2.6708,-2.6708,-2.6708,-2.6708,-2.6657,-2.605,-2.5494,-2.536,-2.4201,-2.3115,-2.3055,-2.2555,-2.2061,-5.1263,-5.1366,-5.1197,-5.0695,-4.9917,-4.8939,-4.7681,-4.629,-4.6016,-4.5906,-4.5808,-4.4686,-4.4122,-4.3903,-4.225,-4.1437,-4.1285,-4.0626,-4.032,0.0,-4.032,-4.032,-4.0244,-3.9403,-3.8553,-3.7674,-3.6891,-3.6061,-3.5278,-3.5182,-3.5182,-3.5182,-3.5182,-3.5182,-3.5048,-3.354,-3.2661,-3.2481,-3.0987,-3.0204,-3.0204,-3.0089,-2.9612,-2.8745,-2.7924,-2.7038,-2.6036,-2.583,-2.5577,-2.5245,-2.5132,-2.5062,-2.5026,-2.4401,-2.407,-2.417,-2.4132,-2.4019,-2.383,-2.3881,-2.3785,-2.3552,-2.4212,-2.4046,-2.2668,-2.3699,-2.4388,-2.4266,-2.4853,-2.5316,-2.52,-2.5073,-2.5269,-2.5756,-2.5715,-2.5845,-2.6454,-2.6623,-2.6725,-2.6742,-2.6708,-2.6708,-2.6742,-2.6742,-2.6725,-2.6708,-2.6708,-2.6708,-2.6708,-2.6708,-2.6708,-2.6708,-2.6708,-2.6708,-2.6708,-2.6708,-2.6708,-2.6708,-2.6708,-2.6708,-2.6708,-2.6708,-2.6708,-2.6708,-2.6708,-2.6708,-2.6674,-2.61,-2.5458,-2.4899,-2.4039,-2.3281,-2.2806,-2.2504,-2.2324,-5.1384,-5.1396,-5.1372,-5.1132,-5.0636,-4.9315,-4.8048,-4.6835,-4.625,-4.5964,-4.5841,-4.5351,-4.4776,-4.415,-4.3339,-4.2422,-4.1485,-4.1113,-4.0711,-4.032,-4.032,-4.032,-4.0282,-3.989,-3.9011,-3.7731,-3.7349,-3.6489,-3.5297,-3.5182,-3.5182,-3.5182,-3.5182,-3.5182,-3.5068,-3.354,-3.268,-3.2661,-3.1064,-3.0204,-3.0204,-3.0204,-2.9803,-2.893,-2.8535,-2.7864,-2.6883,-2.6333,-2.5944,-2.5661,-2.5569,-2.5483,-2.5403,-2.5456,-2.5483,-2.5452,-2.5421,-2.5189,-2.4689,-2.4621,-2.4572,-2.4555,-2.5245,-2.5415,-2.4683,-2.5244,-2.5597,-2.5499,-2.6073,-2.6399,-2.63,-2.6367,-2.6615,-2.6931,-2.6816,-2.6895,-2.7125,-2.7052,-2.6972,-2.6972,-2.6989,-2.6955,-2.6972,-2.6972,-2.6972,-2.6956,-2.6841,-2.6708,-2.6708,-2.6708,-2.6708,-2.6708,-2.6708,-2.6708,-2.6708,-2.6708,-2.6708,-2.6708,-2.6708,-2.6708,-2.6708,-2.6708,-2.6708,-2.6708,-2.6708,-2.6708,-2.6691,-2.6116,-2.5541,-2.5203,-2.4508,-2.3881,-2.3577,-2.3509,-2.3329,-5.1394,-5.1394,-5.1394,-5.1297,-5.0982,-4.9464,-4.8296,-4.7421,-4.6514,-4.6063,-4.5966,-4.5925,-4.539,-4.4558,-4.4322,-4.3301,-4.1915,-4.159,-4.1074,-4.0358,-4.032,-4.032,-4.032,-4.032,-3.9489,-3.8094,-3.7808,-3.6948,-3.563,-3.5297,-3.5182,-3.5182,-3.5182,-3.5182,-3.5163,-3.354,-3.268,-3.2585,-3.1045,-3.0204,-3.0204,-3.0204,-2.986,-2.9261,-2.9006,-2.8526,-2.7749,-2.6921,-2.6318,-2.6029,-2.5745,-2.5551,-2.5431,-2.5805,-2.6041,-2.601,-2.6329,-2.6315,-2.5833,-2.5564,-2.5451,-2.5408,-2.6147,-2.655,-2.6528,-2.6668,-2.6668,-2.6579,-2.7016,-2.7368,-2.7383,-2.7564,-2.78,-2.78,-2.7745,-2.7636,-2.7672,-2.7476,-2.7276,-2.7228,-2.726,-2.7274,-2.7228,-2.726,-2.7276,-2.7165,-2.6907,-2.6708,-2.6708,-2.6708,-2.6708,-2.6708,-2.6708,-2.6708,-2.6708,-2.6708,-2.6708,-2.6708,-2.6708,-2.6708,-2.6708,-2.6708,-2.6708,-2.6708,-2.6708,-2.6708,-2.664,-2.6116,-2.5676,-2.5473,-2.4931,-2.4457,-2.4389,-2.4372,-2.4289,-5.1394,-5.1394,-5.1394,-5.0945,-5.0202,-4.9206,-4.832,-4.747,-4.6579,-4.6192,-4.6153,-4.5972,-4.5789,-4.5452,-4.4635,-4.3655,-4.2594,-4.1858,-4.1074,-4.0358,-4.032,-4.032,-4.032,-4.032,-3.9785,-3.882,-3.8056,-3.7215,-3.6233,-3.5534,-3.5182,-3.5182,-3.5182,-3.5182,-3.501,-3.354,-3.268,-3.2661,-3.1045,-3.0204,-3.0204,-3.0204,-3.0166,-3.0077,-2.9318,-2.8872,-2.8737,-2.7811,-2.7198,-2.6925,-2.6124,-2.5569,-2.5404,-2.4832,-2.4483,-2.4602,-2.5831,-2.6819,-2.7325,-2.6739,-2.6286,-2.633,-2.7023,-2.7462,-2.7434,-2.804,-2.8112,-2.7616,-2.7977,-2.835,-2.844,-2.8224,-2.8093,-2.8047,-2.7869,-2.7716,-2.7745,-2.7689,-2.7535,-2.7228,-2.7489,-2.7552,-2.7369,-2.7507,-2.7537,-2.7291,-2.7004,-2.6825,-2.6808,-2.6808,-2.6808,-2.6758,-2.6725,-2.6725,-2.6708,-2.6708,-2.6708,-2.6708,-2.6708,-2.6708,-2.6708,-2.6708,-2.6708,-2.6708,-2.6708,-2.6708,-2.6556,-2.6133,-2.5693,-2.5693,-2.5235,-2.4608,-2.4525,-2.4626,-2.4592,-5.1394,-5.1394,-5.1394,-5.1199,-5.0711,-4.9403,-4.8601,-4.8146,-4.6828,-4.6231,-4.6192,-4.6119,-4.5991,-4.579,-4.5287,-4.4314,-4.2937,-4.2479,-4.1533,-4.0377,-4.032,-4.032,-4.032,-4.032,-3.9575,-3.8304,-3.7865,-3.7024,-3.587,-3.5354,-3.5182,-3.5182,-3.5182,-3.5182,-3.5068,-3.354,-3.268,-3.2661,-3.1045,-3.0204,-3.0204,-3.0204,-3.0204,-3.0173,-2.9841,-2.9669,-2.9586,-2.876,-2.8165,-2.7886,-2.7445,-2.7093,-2.6846,-2.6943,-2.7042,-2.706,-2.7181,-2.7427,-2.7717,-2.7431,-2.7215,-2.717,-2.7919,-2.8341,-2.8282,-2.8579,-2.8585,-2.833,-2.8438,-2.86,-2.8587,-2.8461,-2.8396,-2.8396,-2.8291,-2.8224,-2.8224,-2.8037,-2.7865,-2.7751,-2.7869,-2.7911,-2.7797,-2.7851,-2.7811,-2.7565,-2.7352,-2.731,-2.7274,-2.7289,-2.7289,-2.7289,-2.7289,-2.71,-2.6825,-2.6708,-2.6691,-2.6691,-2.6708,-2.6708,-2.6708,-2.6708,-2.6708,-2.6708,-2.6708,-2.6708,-2.6708,-2.6539,-2.6234,-2.6133,-2.6133,-2.5811,-2.5778,-2.5811,-2.5811,-5.1394,-5.1394,-5.1394,-5.1394,-5.1238,-4.954,-4.8798,-4.8582,-4.7014,-4.6267,-4.6236,-4.6209,-4.6131,-4.5988,-4.5829,-4.4751,-4.315,-4.2899,-4.1915,-4.0444,-4.032,-4.032,-4.032,-4.0301,-3.9642,-3.8514,-3.7922,-3.6833,-3.5354,-3.5182,-3.5182,-3.5182,-3.5182,-3.5182,-3.5018,-3.354,-3.268,-3.2546,-3.1037,-3.0204,-3.0204,-3.0204,-3.0204,-3.0204,-3.0204,-3.0204,-3.0185,-2.9357,-2.8774,-2.8479,-2.8159,-2.783,-2.7614,-2.8059,-2.8436,-2.8601,-2.8136,-2.7897,-2.8117,-2.8136,-2.8113,-2.8105,-2.8636,-2.8905,-2.8846,-2.8822,-2.8822,-2.8767,-2.8712,-2.865,-2.8625,-2.8625,-2.8625,-2.86,-2.8612,-2.8625,-2.8574,-2.8352,-2.8201,-2.8129,-2.8174,-2.8228,-2.8215,-2.8161,-2.801,-2.784,-2.7936,-2.7874,-2.7804,-2.7844,-2.7967,-2.7754,-2.7701,-2.7459,-2.6972,-2.6874,-2.6825,-2.6708,-2.6708,-2.6708,-2.6708,-2.6708,-2.6708,-2.6708,-2.6708,-2.6708,-2.6708,-2.6674,-2.6657,-2.6691,-2.6657,-2.6623,-2.6505,-2.6657,-2.6657,-5.1394,-5.1394,-5.1394,-5.1394,-5.1258,-4.9579,-4.8818,-4.8681,-4.7061,-4.6319,-4.6275,-4.6236,-4.6206,-4.6162,-4.5966,-4.4831,-4.3184,-4.2998,-4.2017,-4.0424,-4.031,-4.032,-4.032,-4.032,-4.0225,-3.9737,-3.8457,-3.6929,-3.5335,-3.5201,-3.5182,-3.5182,-3.5182,-3.5182,-3.4999,-3.3597,-3.2718,-3.2527,-3.1121,-3.023,-3.0204,-3.0204,-3.0204,-3.0204,-3.0204,-3.0204,-3.0128,-2.9376,-2.8848,-2.8704,-2.784,-2.7193,-2.7018,-2.6931,-2.7258,-2.7846,-2.789,-2.8136,-2.8785,-2.8877,-2.8877,-2.8902,-2.892,-2.897,-2.8905,-2.8893,-2.8918,-2.8846,-2.8834,-2.8761,-2.887,-2.8803,-2.8711,-2.8715,-2.8729,-2.8747,-2.8703,-2.884,-2.8458,-2.8362,-2.8527,-2.8704,-2.8639,-2.8299,-2.8282,-2.835,-2.8591,-2.8705,-2.8294,-2.8511,-2.8579,-2.8159,-2.7883,-2.7597,-2.7293,-2.7101,-2.6989,-2.6858,-2.6792,-2.6691,-2.6708,-2.6708,-2.6708,-2.6708,-2.6708,-2.6708,-2.6708,-2.6691,-2.6691,-2.6708,-2.6708,-2.6691,-2.6708,-2.6708,-2.6708,-5.1394,-5.1394,-5.1394,-5.1394,-5.1258,-5.0126,-4.9306,-4.8701,-4.7627,-4.6807,-4.6357,-4.6267,-4.6245,-4.6193,-4.6087,-4.4988,-4.3289,-4.3052,-4.204,-4.0494,-4.0309,-4.032,-4.032,-4.0301,-3.9976,-3.9431,-3.882,-3.7674,-3.6118,-3.5488,-3.5182,-3.5182,-3.5182,-3.5182,-3.4999,-3.4101,-3.3272,-3.2642,-3.158,-3.0777,-3.0268,-3.0204,-3.0204,-3.0204,-3.0204,-3.0204,-3.0204,-2.9879,-2.9637,-2.9485,-2.9082,-2.8822,-2.8624,-2.843,-2.8437,-2.8704,-2.8636,-2.8693,-2.895,-2.8987,-2.8987,-2.8987,-2.8987,-2.9012,-2.8964,-2.897,-2.9142,-2.9484,-2.9119,-2.9223,-2.9929,-2.9435,-2.898,-2.9404,-2.9526,-2.972,-3.0132,-3.022,-3.0155,-2.9985,-2.9717,-2.9536,-2.9826,-2.9583,-2.9422,-2.9877,-3.0118,-3.003,-2.9922,-3.0084,-3.0055,-2.9797,-2.9366,-2.8929,-2.8597,-2.7674,-2.7151,-2.7038,-2.6907,-2.6775,-2.6725,-2.6758,-2.6758,-2.6708,-2.6708,-2.6708,-2.6708,-2.6708,-2.6708,-2.6708,-2.6708,-2.6708,-2.6708,-2.6708,-2.6708,-5.1394,-5.1394,-5.1394,-5.1394,-5.1277,-5.0455,-4.9616,-4.8759,-4.7957,-4.71,-4.6415,-4.629,-4.627,-4.6186,-4.6141,-4.5324,-4.3832,-4.3311,-4.225,-4.0858,-4.047,-4.032,-4.032,-4.032,-3.9995,-3.9393,-3.8801,-3.7827,-3.6538,-3.5621,-3.5201,-3.5182,-3.5182,-3.5182,-3.5048,-3.4388,-3.3566,-3.2718,-3.1897,-3.1083,-3.0319,-3.0204,-3.0204,-3.0204,-3.0204,-3.0204,-3.0204,-3.0204,-3.0123,-3.0019,-2.9948,-2.9794,-2.9617,-2.9474,-2.9375,-2.9312,-2.9174,-2.9067,-2.8998,-2.8987,-2.8987,-2.8987,-2.9005,-2.9078,-2.9317,-2.939,-2.9776,-3.0216,-3.0131,-3.0259,-3.0796,-3.0301,-2.9862,-3.0312,-3.0403,-3.0604,-3.1115,-3.1136,-3.1073,-3.0969,-3.0579,-3.0552,-3.0866,-3.0521,-3.0526,-3.1003,-3.1225,-3.1352,-3.1071,-3.1252,-3.1266,-3.1043,-3.0482,-2.9931,-2.9456,-2.862,-2.7742,-2.7504,-2.7244,-2.7036,-2.6825,-2.6841,-2.6792,-2.6742,-2.6708,-2.6708,-2.6708,-2.6708,-2.6708,-2.6708,-2.6708,-2.6708,-2.6708,-2.6708,-2.6708,-5.1394,-5.1394,-5.1394,-5.1394,-5.1297,-5.0553,-4.9657,-4.8857,-4.8035,-4.7256,-4.6532,-4.6329,-4.6255,-4.6231,-4.6183,-4.5696,-4.4829,-4.3814,-4.2729,-4.162,-4.0792,-4.0395,-4.0338,-4.032,-4.0282,-4.0091,-3.8572,-3.7406,-3.6596,-3.5774,-3.5297,-3.5201,-3.5182,-3.5182,-3.5182,-3.4464,-3.3643,-3.2833,-3.205,-3.1159,-3.0319,-3.0249,-3.0204,-3.0204,-3.0204,-3.0204,-3.0204,-3.0204,-3.0204,-3.0183,-3.0019,-2.9822,-2.9689,-2.9617,-2.9532,-2.9385,-2.9314,-2.9206,-2.9044,-2.9021,-2.9021,-2.9023,-2.9023,-2.939,-2.9922,-3.0155,-3.054,-3.1201,-3.1274,-3.1384,-3.1494,-3.139,-3.1261,-3.1214,-3.1276,-3.1344,-3.1378,-3.1279,-3.1261,-3.137,-3.1271,-3.123,-3.1248,-3.1235,-3.1281,-3.1483,-3.1906,-3.2096,-3.1601,-3.1896,-3.1855,-3.1461,-3.1152,-3.0844,-3.0207,-2.9512,-2.8706,-2.8044,-2.7727,-2.7459,-2.7148,-2.7053,-2.6908,-2.6825,-2.6725,-2.6708,-2.6708,-2.6708,-2.6708,-2.6708,-2.6708,-2.6708,-2.6708,-2.6708,-2.6708,-5.1394,-5.1394,-5.1394,-5.1394,-5.1375,-5.1102,-5.0496,-4.9616,-4.8798,-4.7978,-4.7176,-4.655,-4.6288,-4.6255,-4.6223,-4.6053,-4.5712,-4.4686,-4.3438,-4.2102,-4.1521,-4.0962,-4.051,-4.0342,-4.0319,-4.0119,-3.9164,-3.8171,-3.7311,-3.6481,-3.5832,-3.5324,-3.5182,-3.5182,-3.5182,-3.4923,-3.4426,-3.3586,-3.2764,-3.1935,-3.1102,-3.0498,-3.0223,-3.0204,-3.0204,-3.0204,-3.0204,-3.0204,-3.0204,-3.0204,-3.0123,-3.0072,-2.9992,-2.988,-2.9796,-2.9726,-2.958,-2.9425,-2.923,-2.9177,-2.9138,-2.9143,-2.9482,-2.9898,-3.0228,-3.0742,-3.1366,-3.2008,-3.177,-3.1751,-3.2687,-3.2522,-3.2239,-3.2182,-3.2177,-3.241,-3.275,-3.2888,-3.2908,-3.2798,-3.2379,-3.2306,-3.2579,-3.2465,-3.2228,-3.2625,-3.2976,-3.2944,-3.2861,-3.2829,-3.3134,-3.2834,-3.2365,-3.166,-3.1007,-3.0386,-2.9683,-2.8832,-2.8294,-2.7818,-2.7519,-2.7244,-2.7085,-2.6891,-2.6775,-2.6725,-2.6725,-2.6758,-2.6758,-2.6725,-2.6708,-2.6708,-2.6708,-2.6708,-2.6708,-5.1394,-5.1394,-5.1394,-5.1394,-5.1394,-5.1394,-5.0711,-4.9657,-4.9052,-4.8174,-4.7139,-4.6554,-4.6294,-4.6286,-4.6262,-4.6233,-4.6162,-4.5543,-4.4357,-4.2794,-4.2078,-4.1383,-4.0576,-4.0364,-4.0308,-4.0147,-3.9421,-3.8553,-3.7712,-3.6891,-3.6061,-3.5335,-3.5182,-3.5182,-3.5182,-3.5163,-3.4808,-3.4033,-3.3433,-3.2623,-3.1637,-3.0949,-3.051,-3.0268,-3.0204,-3.0204,-3.0204,-3.0204,-3.0204,-3.0204,-3.0204,-3.0204,-3.0197,-3.0064,-2.9988,-2.9888,-2.9769,-2.9598,-2.9355,-2.9283,-2.9217,-2.9191,-2.9751,-3.0356,-3.0687,-3.1384,-3.2173,-3.2779,-3.2651,-3.27,-3.3495,-3.3385,-3.3073,-3.3036,-3.3041,-3.3275,-3.3702,-3.3748,-3.3689,-3.3502,-3.3209,-3.325,-3.336,-3.3342,-3.3104,-3.3552,-3.3629,-3.3601,-3.3619,-3.3536,-3.3601,-3.3546,-3.3168,-3.247,-3.1803,-3.1211,-3.0633,-2.9761,-2.8896,-2.8316,-2.7823,-2.7565,-2.7353,-2.6989,-2.6791,-2.6808,-2.6808,-2.6907,-2.694,-2.6841,-2.6725,-2.6708,-2.6708,-2.6708,-2.6708,-5.1394,-5.1394,-5.1394,-5.1394,-5.1394,-5.1394,-5.0516,-4.9111,-4.8837,-4.7959,-4.671,-4.6378,-4.6296,-4.629,-4.6294,-4.6292,-4.6288,-4.6212,-4.5197,-4.3692,-4.2654,-4.1685,-4.0648,-4.0411,-4.0349,-4.02,-3.9544,-3.8695,-3.7903,-3.7101,-3.6137,-3.5458,-3.5286,-3.5182,-3.5182,-3.5182,-3.4846,-3.4273,-3.4006,-3.3154,-3.1828,-3.1427,-3.1064,-3.0376,-3.0261,-3.0204,-3.0204,-3.0204,-3.0204,-3.0204,-3.0204,-3.0204,-3.0204,-3.0204,-3.0087,-2.9964,-2.9932,-2.9725,-2.9436,-2.9387,-2.9365,-2.9329,-2.9982,-3.0613,-3.1433,-3.221,-3.2926,-3.3568,-3.3623,-3.3678,-3.377,-3.3733,-3.3715,-3.377,-3.3678,-3.3733,-3.3788,-3.3807,-3.3793,-3.3793,-3.3788,-3.3788,-3.3762,-3.372,-3.3698,-3.3707,-3.3712,-3.3684,-3.3661,-3.3661,-3.3661,-3.3602,-3.3506,-3.3013,-3.2271,-3.2002,-3.1422,-3.0622,-2.9782,-2.9179,-2.8269,-2.788,-2.7552,-2.7197,-2.6956,-2.694,-2.7005,-2.7165,-2.7101,-2.694,-2.6841,-2.6741,-2.6708,-2.6691,-2.6725,-5.1394,-5.1394,-5.1394,-5.1394,-5.1394,-5.1394,-5.0789,-4.9714,-4.9052,-4.8193,-4.7256,-4.6573,-4.63,-4.6296,-4.63,-4.6298,-4.6298,-4.6261,-4.5363,-4.3878,-4.3448,-4.226,-4.0962,-4.0531,-4.0454,-4.0396,-4.0062,-3.9525,-3.8648,-3.7759,-3.691,-3.6137,-3.5477,-3.519,-3.5182,-3.5209,-3.5106,-3.4827,-3.4254,-3.3861,-3.323,-3.2019,-3.135,-3.1159,-3.0567,-3.0261,-3.0223,-3.0204,-3.0204,-3.0204,-3.0204,-3.0204,-3.0204,-3.0204,-3.0164,-3.0147,-3.0106,-3.0019,-2.9786,-2.9763,-2.9833,-3.0149,-3.0812,-3.1567,-3.2228,-3.3018,-3.3532,-3.3807,-3.3807,-3.3807,-3.3807,-3.3807,-3.3807,-3.3807,-3.3807,-3.3807,-3.3807,-3.3807,-3.3807,-3.3807,-3.3807,-3.3807,-3.3807,-3.3807,-3.3775,-3.378,-3.3766,-3.3766,-3.3726,-3.3744,-3.3739,-3.3753,-3.3638,-3.3216,-3.2831,-3.2617,-3.2159,-3.1426,-3.0768,-3.0295,-2.9186,-2.8162,-2.7802,-2.7413,-2.7305,-2.7258,-2.7398,-2.7567,-2.7336,-2.7132,-2.7085,-2.7053,-2.6791,-2.6708,-2.6708,-5.1394,-5.1394,-5.1394,-5.1394,-5.1394,-5.1394,-5.0711,-4.9638,-4.9032,-4.8135,-4.712,-4.6534,-4.6302,-4.6302,-4.6302,-4.6302,-4.6262,-4.5929,-4.4992,-4.3782,-4.2863,-4.19,-4.1017,-4.069,-4.0597,-4.0588,-4.0422,-3.9859,-3.9048,-3.8174,-3.7326,-3.6482,-3.5662,-3.5272,-3.5234,-3.5209,-3.5182,-3.5106,-3.4713,-3.4369,-3.3918,-3.3051,-3.2382,-3.1962,-3.1178,-3.0605,-3.028,-3.0204,-3.0204,-3.0204,-3.0204,-3.0204,-3.0204,-3.0204,-3.0204,-3.0204,-3.0204,-3.0094,-3.0013,-3.02,-3.0487,-3.082,-3.1578,-3.2326,-3.2791,-3.339,-3.3807,-3.3807,-3.3807,-3.3807,-3.3807,-3.3807,-3.3807,-3.3807,-3.3807,-3.3807,-3.3807,-3.3807,-3.3807,-3.3807,-3.3807,-3.3807,-3.3807,-3.3807,-3.3807,-3.3807,-3.3807,-3.3807,-3.3793,-3.3807,-3.3807,-3.3807,-3.3807,-3.3482,-3.3335,-3.3175,-3.3065,-3.2362,-3.1816,-3.1318,-3.0071,-2.8791,-2.8253,-2.7936,-2.7742,-2.7609,-2.7728,-2.7803,-2.7698,-2.7532,-2.7459,-2.7274,-2.7036,-2.689,-2.6891,-5.1394,-5.1394,-5.1394,-5.1394,-5.1394,-5.1375,-5.0457,-4.9032,-4.8818,-4.7881,-4.6612,-4.6321,-4.6302,-4.6302,-4.6302,-4.6302,-4.6243,-4.55,-4.4484,-4.3294,-4.2141,-4.112,-4.1055,-4.0844,-4.0743,-4.0692,-4.054,-4.0081,-3.9404,-3.8484,-3.7581,-3.6834,-3.594,-3.5415,-3.5312,-3.5242,-3.5226,-3.5207,-3.5168,-3.4824,-3.4327,-3.388,-3.3394,-3.2802,-3.1771,-3.1045,-3.0548,-3.03,-3.0204,-3.0204,-3.0204,-3.0204,-3.0204,-3.0204,-3.0204,-3.0204,-3.0204,-3.0109,-3.0102,-3.0663,-3.1168,-3.1318,-3.2345,-3.308,-3.3263,-3.3666,-3.3873,-3.3807,-3.3807,-3.3807,-3.3807,-3.3807,-3.3807,-3.3807,-3.3807,-3.3807,-3.3807,-3.3807,-3.3807,-3.3807,-3.3807,-3.3807,-3.3807,-3.3807,-3.3807,-3.3807,-3.3807,-3.3807,-3.3807,-3.3807,-3.3807,-3.3807,-3.3807,-3.3807,-3.3752,-3.3733,-3.3678,-3.3385,-3.2868,-3.22,-3.0884,-2.9745,-2.9005,-2.8536,-2.8234,-2.8018,-2.7961,-2.7975,-2.7986,-2.7869,-2.7739,-2.755,-2.7353,-2.7274,-2.7244,-5.1394,-5.1394,-5.1394,-5.1394,-5.1394,-5.1355,-5.0418,-4.8837,-4.8798,-4.7861,-4.6573,-4.6302,-4.6302,-4.6302,-4.6302,-4.6302,-4.6165,-4.5304,-4.4211,-4.263,-4.1636,-4.114,-4.1072,-4.0974,-4.0902,-4.0837,-4.0756,-4.0526,-4.0042,-3.9299,-3.8507,-3.7574,-3.6642,-3.5952,-3.5369,-3.5285,-3.5285,-3.5278,-3.5293,-3.52,-3.4905,-3.4354,-3.3937,-3.3547,-3.2325,-3.1522,-3.114,-3.0567,-3.0223,-3.0223,-3.0242,-3.03,-3.0223,-3.0204,-3.0242,-3.03,-3.0287,-3.0228,-3.0333,-3.1009,-3.1602,-3.2145,-3.2921,-3.36,-3.3924,-3.4024,-3.4011,-3.3887,-3.3807,-3.3834,-3.3807,-3.3807,-3.3807,-3.3807,-3.3807,-3.3807,-3.3807,-3.3807,-3.3807,-3.3807,-3.3807,-3.3807,-3.3807,-3.3807,-3.3807,-3.3807,-3.3807,-3.3807,-3.3807,-3.3807,-3.3807,-3.3807,-3.3807,-3.3807,-3.3807,-3.3807,-3.3807,-3.3807,-3.3486,-3.3166,-3.186,-3.0689,-2.9936,-2.9265,-2.8694,-2.851,-2.8344,-2.8304,-2.8344,-2.8179,-2.801,-2.784,-2.7713,-2.7639,-2.7522,-5.1394,-5.1394,-5.1394,-5.1394,-5.1394,-5.1355,-5.0418,-4.9032,-4.8798,-4.7842,-4.6554,-4.6302,-4.6302,-4.6302,-4.6302,-4.6302,-4.5989,-4.4933,-4.345,-4.2025,-4.1265,-4.1126,-4.1101,-4.1064,-4.1022,-4.0971,-4.0894,-4.0776,-4.0491,-3.982,-3.8865,-3.7987,-3.7138,-3.6185,-3.5453,-3.5323,-3.5308,-3.53,-3.5312,-3.5308,-3.5189,-3.4886,-3.4308,-3.4033,-3.3108,-3.2535,-3.205,-3.1675,-3.1446,-3.1274,-3.0987,-3.0548,-3.0268,-3.0223,-3.0402,-3.0758,-3.0815,-3.1045,-3.1419,-3.2126,-3.2821,-3.3097,-3.3806,-3.4196,-3.4433,-3.4435,-3.4291,-3.4148,-3.4055,-3.3959,-3.3834,-3.3807,-3.3807,-3.3807,-3.3807,-3.3807,-3.3807,-3.3807,-3.3807,-3.3807,-3.3807,-3.3807,-3.3807,-3.3807,-3.3807,-3.3807,-3.3807,-3.3807,-3.3807,-3.3807,-3.3807,-3.3807,-3.3807,-3.3807,-3.3807,-3.3807,-3.3807,-3.3807,-3.3733,-3.3555,-3.298,-3.1881,-3.0841,-3.0181,-2.9505,-2.8949,-2.8773,-2.8746,-2.8648,-2.8466,-2.8291,-2.8151,-2.8024,-2.7926,-2.7768,-5.1394,-5.1394,-5.1394,-5.1394,-5.1375,-5.1219,-5.0262,-4.8915,-4.8662,-4.7686,-4.6534,-4.6302,-4.6302,-4.6302,-4.6302,-4.6223,-4.5501,-4.4525,-4.2923,-4.1363,-4.1168,-4.1108,-4.1106,-4.1103,-4.1094,-4.1083,-4.0984,-4.0914,-4.0692,-4.0075,-3.9252,-3.8183,-3.7446,-3.6498,-3.5671,-3.5372,-3.5357,-3.5357,-3.5342,-3.5327,-3.5316,-3.5224,-3.4848,-3.4377,-3.3891,-3.349,-3.2967,-3.2661,-3.2565,-3.2661,-3.1992,-3.1293,-3.0758,-3.0452,-3.0777,-3.1599,-3.1675,-3.1904,-3.2413,-3.3261,-3.3853,-3.4017,-3.4568,-3.4851,-3.4822,-3.4693,-3.4559,-3.4428,-3.4279,-3.4086,-3.3913,-3.3834,-3.382,-3.3807,-3.3807,-3.3807,-3.3807,-3.3807,-3.3807,-3.3807,-3.3807,-3.3807,-3.3807,-3.3807,-3.3807,-3.3807,-3.3807,-3.3807,-3.3807,-3.3807,-3.3807,-3.3807,-3.3807,-3.3807,-3.3807,-3.3807,-3.3807,-3.3807,-3.3807,-3.377,-3.3697,-3.3007,-3.1939,-3.1044,-3.0372,-2.9787,-2.9319,-2.919,-2.9025,-2.877,-2.8531,-2.837,-2.8273,-2.8183,-2.8069,-5.1394,-5.1394,-5.1394,-5.1394,-5.1258,-5.0651,-4.9755,-4.8779,-4.8113,-4.7256,-4.6397,-4.6302,-4.6302,-4.6302,-4.6302,-4.554,-4.4504,-4.3764,-4.2768,-4.1343,-4.1109,-4.1109,-4.1109,-4.1109,-4.1104,-4.1104,-4.1068,-4.1028,-4.0994,-4.0737,-3.974,-3.8443,-3.7928,-3.7083,-3.5931,-3.5486,-3.5434,-3.5446,-3.5405,-3.5391,-3.5369,-3.5304,-3.52,-3.4835,-3.4415,-3.4052,-3.3719,-3.31,-3.268,-3.268,-3.2546,-3.2432,-3.2183,-3.1668,-3.1763,-3.2279,-3.2527,-3.268,-3.3062,-3.3586,-3.3956,-3.4159,-3.4691,-3.5016,-3.4936,-3.486,-3.4753,-3.4548,-3.439,-3.4197,-3.4167,-3.3998,-3.3847,-3.3834,-3.3847,-3.3834,-3.382,-3.3807,-3.3807,-3.3807,-3.3807,-3.3807,-3.3807,-3.3807,-3.3807,-3.3807,-3.3807,-3.3807,-3.3807,-3.3807,-3.3807,-3.3807,-3.3807,-3.3807,-3.3807,-3.3807,-3.3807,-3.3807,-3.3807,-3.3807,-3.377,-3.3752,-3.3083,-3.2146,-3.1259,-3.0551,-3.0122,-2.9689,-2.9215,-2.8827,-2.8674,-2.8574,-2.8492,-2.8409,-2.8544,-5.1394,-5.1394,-5.1394,-5.1141,-5.069,-5.0299,-4.9362,-4.8211,-4.7742,-4.71,-4.6515,-4.6302,-4.6302,-4.6302,-4.6302,-4.5326,-4.4096,-4.3686,-4.269,-4.1422,-4.1109,-4.1109,-4.1109,-4.1109,-4.1109,-4.1108,-4.1108,-4.1081,-4.1037,-4.1006,-4.0159,-3.9098,-3.8418,-3.7423,-3.6304,-3.5712,-3.5538,-3.5493,-3.546,-3.5446,-3.5405,-3.5327,-3.5281,-3.5135,-3.4936,-3.4679,-3.4541,-3.4312,-3.4017,-3.3949,-3.3605,-3.3662,-3.3597,-3.331,-3.2917,-3.328,-3.3375,-3.3597,-3.3902,-3.4445,-3.4617,-3.4674,-3.5018,-3.5119,-3.5089,-3.5027,-3.4926,-3.4753,-3.4651,-3.4502,-3.4371,-3.4232,-3.4123,-3.4018,-3.4011,-3.3934,-3.3842,-3.382,-3.382,-3.382,-3.3807,-3.3807,-3.3807,-3.3807,-3.3807,-3.3807,-3.3807,-3.3807,-3.3807,-3.3807,-3.3807,-3.3807,-3.3807,-3.3807,-3.3807,-3.3807,-3.3807,-3.3807,-3.3807,-3.3807,-3.3807,-3.3788,-3.3683,-3.3193,-3.2311,-3.1223,-3.032,-2.9667,-2.9265,-2.8943,-2.8827,-2.8753,-2.8686,-2.8674,-2.877,-5.1394,-5.1394,-5.1394,-5.0887,-5.0143,-4.9909,-4.8992,-4.7762,-4.7391,-4.6924,-4.6358,-4.6302,-4.6302,-4.6302,-4.6124,-4.5441,-4.3979,-4.3862,-4.2786,-4.1675,-4.1187,-4.1109,-4.1109,-4.1109,-4.1109,-4.1109,-4.1109,-4.1109,-4.1081,-4.1037,-4.0393,-3.9274,-3.8378,-3.7519,-3.6471,-3.5731,-3.5538,-3.55,-3.55,-3.546,-3.5405,-3.5357,-3.532,-3.53,-3.5312,-3.5231,-3.5138,-3.5037,-3.4991,-3.4857,-3.4617,-3.4483,-3.4942,-3.4579,-3.4254,-3.4235,-3.4243,-3.4636,-3.4942,-3.5106,-3.5057,-3.5076,-3.5144,-3.5182,-3.5174,-3.5149,-3.5115,-3.5001,-3.4879,-3.4783,-3.4612,-3.4518,-3.4409,-3.4302,-3.4239,-3.4197,-3.3979,-3.3908,-3.3887,-3.386,-3.3834,-3.3807,-3.3807,-3.3807,-3.3807,-3.3807,-3.3807,-3.3807,-3.3807,-3.3807,-3.3807,-3.3807,-3.3807,-3.3807,-3.3807,-3.3807,-3.3807,-3.3807,-3.3807,-3.3807,-3.3807,-3.3807,-3.3715,-3.3573,-3.2711,-3.1603,-3.0625,-3.0033,-3.0021,-2.9807,-2.9247,-2.8888,-2.876,-2.8717,-2.8759,-5.1394,-5.1394,-5.1375,-5.0887,-5.0007,-4.9267,-4.8447,-4.7528,-4.6807,-4.6417,-4.6302,-4.6302,-4.6302,-4.6302,-4.6302,-4.5714,-4.4797,-4.3957,-4.306,-4.1947,-4.1361,-4.1109,-4.1109,-4.1109,-4.1109,-4.1109,-4.1109,-4.1109,-4.1085,-4.108,-4.0235,-3.8988,-3.8496,-3.751,-3.6297,-3.5865,-3.55,-3.55,-3.55,-3.5467,-3.5412,-3.5379,-3.5357,-3.5327,-3.5316,-3.5312,-3.5277,-3.5245,-3.5209,-3.5163,-3.5106,-3.5076,-3.5163,-3.5133,-3.5076,-3.5057,-3.5076,-3.5095,-3.5163,-3.5182,-3.5182,-3.5182,-3.5182,-3.5182,-3.522,-3.5297,-3.5327,-3.5185,-3.5123,-3.5154,-3.5144,-3.4814,-3.4586,-3.4655,-3.4839,-3.4591,-3.4321,-3.4345,-3.4275,-3.386,-3.382,-3.3807,-3.3807,-3.3807,-3.3807,-3.3807,-3.3807,-3.3807,-3.3807,-3.3807,-3.3807,-3.3807,-3.3807,-3.3807,-3.3807,-3.3807,-3.3807,-3.3807,-3.3807,-3.3807,-3.3807,-3.3807,-3.3807,-3.3513,-3.2761,-3.2449,-3.1983,-3.1554,-3.1186,-3.0563,-2.9868,-2.9296,-2.8815,-2.8791,-2.8796,-5.0959,-5.1355,-5.0867,-5.0163,-4.9306,-4.8486,-4.7627,-4.6905,-4.6475,-4.6302,-4.6302,-4.6302,-4.6302,-4.6302,-4.6302,-4.5519,-4.4426,-4.3862,-4.2905,-4.1927,-4.1322,-4.1109,-4.1109,-4.1109,-4.1109,-4.1109,-4.1109,-4.1109,-4.1085,-4.1003,-4.0442,-3.9773,-3.9093,-3.8373,-3.6792,-3.6392,-3.5942,-3.5654,-3.55,-3.5493,-3.5479,-3.5453,-3.542,-3.5364,-3.5342,-3.5331,-3.53,-3.5277,-3.5234,-3.5218,-3.5182,-3.5182,-3.5182,-3.5182,-3.5182,-3.5182,-3.5182,-3.5163,-3.5182,-3.5182,-3.5182,-3.5182,-3.5182,-3.5182,-3.5278,-3.5583,-3.587,-3.5946,-3.6306,-3.6395,-3.6386,-3.6397,-3.6272,-3.6164,-3.5867,-3.5417,-3.5121,-3.4896,-3.4772,-3.426,-3.382,-3.3847,-3.386,-3.382,-3.382,-3.3807,-3.3807,-3.3807,-3.3807,-3.3807,-3.3807,-3.3807,-3.3807,-3.3807,-3.3807,-3.3807,-3.3807,-3.3807,-3.3807,-3.3807,-3.3807,-3.3807,-3.3807,-3.3807,-3.344,-3.3238,-3.3201,-3.2472,-3.1585,-3.0973,-3.0418,-3.0063,-2.9691,-2.8943,-2.8937,-5.035,-5.0661,-5.003,-4.9286,-4.8486,-4.784,-4.712,-4.6358,-4.6302,-4.6302,-4.6302,-4.6302,-4.6302,-4.6302,-4.6204,-4.5539,-4.4114,-4.3803,-4.2807,-4.1831,-4.1207,-4.1109,-4.1109,-4.1109,-4.1109,-4.1109,-4.1109,-4.1109,-4.1101,-4.1003,-4.0844,-4.0539,-3.9678,-3.8858,-3.8009,-3.7095,-3.6318,-3.5577,-3.5769,-3.575,-3.5589,-3.5731,-3.564,-3.5504,-3.5386,-3.5376,-3.5331,-3.5293,-3.5269,-3.5253,-3.519,-3.5182,-3.5182,-3.5182,-3.5182,-3.5182,-3.5182,-3.5182,-3.5182,-3.5182,-3.5182,-3.5182,-3.5182,-3.5182,-3.5267,-3.587,-3.6347,-3.6347,-3.6767,-3.7217,-3.7617,-3.758,-3.7375,-3.7243,-3.7233,-3.6667,-3.6175,-3.5934,-3.5511,-3.4915,-3.4445,-3.3978,-3.3952,-3.3842,-3.382,-3.3807,-3.3807,-3.3807,-3.3807,-3.3807,-3.3807,-3.3807,-3.3807,-3.3807,-3.3807,-3.3807,-3.3807,-3.3807,-3.3807,-3.3807,-3.3807,-3.3807,-3.3807,-3.3807,-3.3807,-3.3715,-3.3495,-3.2669,-3.1916,-3.1653,-3.1407,-3.1144,-3.0655,-2.9777,-2.9223,-4.9657,-4.898,-4.8906,-4.8427,-4.7723,-4.7645,-4.7081,-4.6321,-4.6302,-4.6302,-4.6302,-4.6302,-4.6302,-4.6302,-4.6223,-4.5773,-4.4836,-4.4075,-4.3118,-4.224,-4.1557,-4.1168,-4.1109,-4.1109,-4.1109,-4.1109,-4.1109,-4.1109,-4.1108,-4.1103,-4.0569,-3.9872,-3.9951,-3.9105,-3.8202,-3.7363,-3.6402,-3.5823,-3.5962,-3.5981,-3.5885,-3.5981,-3.6173,-3.5608,-3.5446,-3.5398,-3.541,-3.5358,-3.5312,-3.5277,-3.5234,-3.5209,-3.5209,-3.5182,-3.5182,-3.5182,-3.5182,-3.5182,-3.5182,-3.5182,-3.5182,-3.5182,-3.5201,-3.5259,-3.5477,-3.5343,-3.5717,-3.6691,-3.7368,-3.7521,-3.7731,-3.775,-3.8106,-3.8183,-3.8214,-3.7812,-3.7301,-3.6942,-3.6459,-3.5698,-3.5189,-3.484,-3.4457,-3.4463,-3.396,-3.3915,-3.3807,-3.3807,-3.3807,-3.3807,-3.3807,-3.3807,-3.3807,-3.3807,-3.3807,-3.3807,-3.3807,-3.3807,-3.3807,-3.3807,-3.3807,-3.3807,-3.3807,-3.3807,-3.3807,-3.3807,-3.3788,-3.322,-3.2797,-3.2619,-3.2331,-3.181,-3.1272,-3.0484,-3.0044,-4.8298,-4.7968,-4.7477,-4.7386,-4.7547,-4.7022,-4.6612,-4.6339,-4.6302,-4.6302,-4.6302,-4.6302,-4.6302,-4.6302,-4.6243,-4.5831,-4.4972,-4.4094,-4.3235,-4.2376,-4.1617,-4.1187,-4.1109,-4.1109,-4.1109,-4.1109,-4.1109,-4.1109,-4.1109,-4.1109,-4.0987,-4.0639,-4.0437,-3.9894,-3.8986,-3.7718,-3.6572,-3.5868,-3.5815,-3.5769,-3.5808,-3.6192,-3.6308,-3.5589,-3.6089,-3.583,-3.5501,-3.5395,-3.5339,-3.53,-3.5277,-3.5253,-3.5209,-3.5209,-3.5182,-3.5182,-3.5182,-3.5182,-3.5182,-3.5182,-3.5182,-3.5182,-3.5229,-3.5439,-3.5946,-3.6394,-3.712,-3.7865,-3.8381,-3.8629,-3.9136,-3.9317,-3.9422,-3.9327,-3.9089,-3.8766,-3.8404,-3.8023,-3.7489,-3.6761,-3.6318,-3.5949,-3.5535,-3.517,-3.455,-3.401,-3.3902,-3.382,-3.3847,-3.382,-3.3807,-3.3807,-3.3807,-3.3807,-3.3807,-3.3807,-3.3807,-3.3807,-3.3807,-3.3807,-3.3807,-3.3807,-3.3807,-3.3807,-3.3807,-3.3807,-3.3807,-3.3807,-3.3605,-3.3256,-3.2748,-3.2184,-3.164,-3.1175,-3.0916,-4.7362,-4.7057,-4.6503,-4.6616,-4.7102,-4.6554,-4.6302,-4.6302,-4.6302,-4.6302,-4.6302,-4.6302,-4.6302,-4.6302,-4.6282,-4.5812,-4.4953,-4.4114,-4.3235,-4.2376,-4.1596,-4.1187,-4.1109,-4.1109,-4.1109,-4.1109,-4.1109,-4.1109,-4.1109,-4.1109,-4.1049,-4.1021,-4.1001,-4.0503,-3.9886,-3.8554,-3.7144,-3.6238,-3.6203,-3.5862,-3.5824,-3.6239,-3.6288,-3.5769,-3.6231,-3.6166,-3.5773,-3.5655,-3.5645,-3.5454,-3.53,-3.5277,-3.5253,-3.5218,-3.519,-3.5182,-3.5182,-3.5182,-3.5201,-3.5182,-3.5316,-3.5621,-3.566,-3.6099,-3.6748,-3.7426,-3.7808,-3.8725,-3.9451,-4.0024,-4.0186,-4.011,-4.0034,-3.9862,-3.9881,-3.9624,-3.9357,-3.8985,-3.8451,-3.7856,-3.7373,-3.6756,-3.6539,-3.6062,-3.5266,-3.4587,-3.4086,-3.4029,-3.3991,-3.3926,-3.3807,-3.3807,-3.3807,-3.3807,-3.3807,-3.3807,-3.3807,-3.3807,-3.3807,-3.3807,-3.3807,-3.382,-3.3807,-3.3807,-3.3807,-3.3807,-3.3807,-3.3807,-3.3807,-3.377,-3.3256,-3.2766,-3.2601,-3.219,-3.1821,-4.6992,-4.6269,-4.6217,-4.6269,-4.6424,-4.6319,-4.6302,-4.6302,-4.6302,-4.6302,-4.6302,-4.6302,-4.6302,-4.6302,-4.6302,-4.587,-4.5109,-4.4172,-4.3294,-4.2533,-4.1576,-4.1207,-4.1109,-4.1109,-4.1109,-4.1109,-4.1109,-4.1109,-4.1109,-4.1109,-4.1109,-4.1109,-4.108,-4.0901,-4.0831,-4.0003,-3.8639,-3.732,-3.761,-3.6798,-3.6205,-3.6434,-3.6214,-3.5865,-3.6288,-3.6281,-3.5775,-3.5914,-3.5847,-3.546,-3.5339,-3.5319,-3.5296,-3.5234,-3.5198,-3.5182,-3.5182,-3.5201,-3.5248,-3.522,-3.5641,-3.6214,-3.6271,-3.6844,-3.7445,-3.7846,-3.8228,-3.9221,-3.9393,-3.968,-3.9976,-4.032,-4.032,-4.0301,-4.0301,-4.0225,-3.9929,-3.9748,-3.9175,-3.8889,-3.8126,-3.7401,-3.7301,-3.6974,-3.6074,-3.5289,-3.4533,-3.427,-3.4333,-3.4111,-3.4011,-3.3926,-3.3939,-3.3921,-3.3921,-3.3834,-3.3807,-3.382,-3.382,-3.3847,-3.3834,-3.3847,-3.3834,-3.382,-3.3807,-3.3807,-3.3807,-3.3807,-3.3807,-3.3807,-3.3807,-3.3513,-3.3403,-3.3096,-3.2562,-4.6482,-4.6208,-4.6199,-4.6201,-4.623,-4.6294,-4.6302,-4.6302,-4.6302,-4.6302,-4.6302,-4.6302,-4.6302,-4.6302,-4.6282,-4.6105,-4.5656,-4.425,-4.3372,-4.3118,-4.1791,-4.1246,-4.1109,-4.1109,-4.1109,-4.1109,-4.1109,-4.1109,-4.1109,-4.1109,-4.1109,-4.1109,-4.1067,-4.0719,-4.0254,-3.9685,-3.8987,-3.798,-3.7579,-3.7031,-3.6557,-3.665,-3.6428,-3.5591,-3.6276,-3.6288,-3.5615,-3.5948,-3.5818,-3.547,-3.5369,-3.5346,-3.5327,-3.5269,-3.5253,-3.5218,-3.5201,-3.5515,-3.5851,-3.6099,-3.6175,-3.6596,-3.7073,-3.7674,-3.84,-3.8534,-3.9049,-3.9565,-3.9737,-4.0014,-4.0244,-4.0301,-4.032,-4.032,-4.0301,-4.0301,-4.0158,-4.0081,-3.9843,-3.9834,-3.9338,-3.8785,-3.8499,-3.8155,-3.7354,-3.6723,-3.6074,-3.5375,-3.5221,-3.4633,-3.4302,-3.4154,-3.4099,-3.4086,-3.4061,-3.4011,-3.4068,-3.4148,-3.403,-3.3913,-3.3881,-3.3928,-3.3868,-3.3887,-3.3847,-3.3807,-3.386,-3.3887,-3.3834,-3.3807,-3.3807,-3.3807,-3.3642,-3.3316,-3.2886,-4.618,-4.6173,-4.6164,-4.6145,-4.6173,-4.623,-4.628,-4.6294,-4.6305,-4.6302,-4.6302,-4.6302,-4.6302,-4.6302,-4.6302,-4.6302,-4.6105,-4.4524,-4.3705,-4.3452,-4.191,-4.1285,-4.1109,-4.1109,-4.1109,-4.1109,-4.1109,-4.1109,-4.1109,-4.1109,-4.1109,-4.1109,-4.1109,-4.0846,-4.0415,-4.0172,-3.9791,-3.8958,-3.8426,-3.7759,-3.7195,-3.6807,-3.6443,-3.6016,-3.6099,-3.6327,-3.5827,-3.5666,-3.5736,-3.5542,-3.5405,-3.5383,-3.5339,-3.53,-3.5304,-3.5253,-3.5267,-3.5668,-3.6214,-3.6844,-3.7043,-3.7512,-3.7903,-3.8534,-3.9212,-3.9422,-3.9699,-4.0072,-4.0282,-4.0301,-4.0301,-4.032,-4.032,-4.032,-4.032,-4.032,-4.0301,-4.0225,-4.0225,-4.0263,-4.0225,-3.9804,-3.9546,-3.9222,-3.8689,-3.8185,-3.767,-3.6885,-3.6077,-3.5372,-3.4698,-3.4413,-3.4309,-3.4291,-3.4267,-3.422,-3.4307,-3.4456,-3.4307,-3.4093,-3.4148,-3.4213,-3.408,-3.3985,-3.4068,-3.4093,-3.3998,-3.3965,-3.3939,-3.3873,-3.3807,-3.3807,-3.3788,-3.3537,-3.3193,-4.6117,-4.6102,-4.6103,-4.6109,-4.612,-4.6173,-4.6229,-4.6287,-4.6293,-4.6303,-4.6302,-4.6302,-4.6302,-4.6302,-4.6302,-4.6302,-4.595,-4.4465,-4.3881,-4.3198,-4.189,-4.1402,-4.1109,-4.1109,-4.1109,-4.1109,-4.1109,-4.1109,-4.1109,-4.1109,-4.1109,-4.1109,-4.1109,-4.0968,-4.0908,-4.0789,-4.0434,-3.9872,-3.9326,-3.8614,-3.7913,-3.7083,-3.6585,-3.622,-3.6202,-3.61,-3.5868,-3.5944,-3.5904,-3.5698,-3.5427,-3.5412,-3.5383,-3.5331,-3.5327,-3.5296,-3.5245,-3.5878,-3.6615,-3.7311,-3.8132,-3.8658,-3.8935,-3.9537,-3.9881,-4.0053,-4.0148,-4.0225,-4.032,-4.032,-4.032,-4.032,-4.032,-4.032,-4.032,-4.032,-4.032,-4.0301,-4.0301,-4.0301,-4.0301,-4.0129,-4.0091,-3.9862,-3.9518,-3.9375,-3.8756,-3.7795,-3.6966,-3.6087,-3.5383,-3.4612,-3.4537,-3.4537,-3.4505,-3.442,-3.454,-3.4695,-3.454,-3.4364,-3.4442,-3.4453,-3.4295,-3.4255,-3.4375,-3.4364,-3.4232,-3.413,-3.4061,-3.3985,-3.3887,-3.3807,-3.3807,-3.3807,-3.3592,-4.6177,-4.6158,-4.6119,-4.6127,-4.6157,-4.6199,-4.6241,-4.6288,-4.6303,-4.6297,-4.6302,-4.6302,-4.6303,-4.6302,-4.6302,-4.6302,-4.5636,-4.4719,-4.3959,-4.3061,-4.2025,-4.1382,-4.1109,-4.1109,-4.1109,-4.1109,-4.1109,-4.1109,-4.1109,-4.1109,-4.1109,-4.1109,-4.1109,-4.1109,-4.1109,-4.1109,-4.0894,-4.0618,-4.0137,-3.9457,-3.8614,-3.7776,-3.716,-3.6764,-3.63,-3.6115,-3.6052,-3.5907,-3.5803,-3.5641,-3.5493,-3.546,-3.5405,-3.5335,-3.5297,-3.5321,-3.5763,-3.65,-3.7311,-3.8132,-3.8935,-3.9603,-3.9843,-3.9957,-4.0244,-4.032,-4.032,-4.032,-4.032,-4.032,-4.032,-4.032,-4.032,-4.032,-4.032,-4.032,-4.032,-4.032,-4.032,-4.032,-4.032,-4.032,-4.032,-4.0244,-3.9957,-4.011,-3.9738,-3.8708,-3.7756,-3.6844,-3.5856,-3.5058,-3.4783,-3.4764,-3.4694,-3.4632,-3.4784,-3.4898,-3.4744,-3.4645,-3.4694,-3.4674,-3.4518,-3.4497,-3.4572,-3.4529,-3.4431,-3.4318,-3.4184,-3.4068,-3.3972,-3.3887,-3.3807,-3.3807,-3.3807,-4.6177,-4.6154,-4.6113,-4.6141,-4.6197,-4.6206,-4.6218,-4.6245,-4.6249,-4.6268,-4.6295,-4.6295,-4.6291,-4.6302,-4.6302,-4.6282,-4.6165,-4.5012,-4.4133,-4.3334,-4.2201,-4.1596,-4.1264,-4.1109,-4.1109,-4.1109,-4.1109,-4.1109,-4.1109,-4.1109,-4.1109,-4.1109,-4.1109,-4.1109,-4.1109,-4.1109,-4.1109,-4.0914,-4.0597,-4.0159,-3.9421,-3.8653,-3.815,-3.7486,-3.6841,-3.6668,-3.6527,-3.6327,-3.6074,-3.5926,-3.5856,-3.5474,-3.5535,-3.5606,-3.5787,-3.5952,-3.6547,-3.7349,-3.8113,-3.861,-3.9431,-4.0034,-4.032,-4.0282,-4.0282,-4.032,-4.032,-4.032,-4.032,-4.032,-4.032,-4.032,-4.032,-4.032,-4.032,-4.032,-4.032,-4.032,-4.032,-4.032,-4.032,-4.032,-4.032,-4.032,-4.0301,-4.0282,-3.9938,-3.9146,-3.8258,-3.7402,-3.627,-3.5246,-3.5066,-3.5,-3.4908,-3.4851,-3.4954,-3.5044,-3.5009,-3.4935,-3.4963,-3.4926,-3.4832,-3.4774,-3.4734,-3.4675,-3.4634,-3.4453,-3.4295,-3.4184,-3.4043,-3.3895,-3.3834,-3.3807,-3.3807,-4.6117,-4.6117,-4.6114,-4.6132,-4.6209,-4.6212,-4.6209,-4.6204,-4.621,-4.6248,-4.6288,-4.6307,-4.63,-4.6305,-4.6302,-4.6302,-4.5929,-4.507,-4.4153,-4.3608,-4.2396,-4.1615,-4.1226,-4.1109,-4.1109,-4.1109,-4.1109,-4.1109,-4.1109,-4.1109,-4.1109,-4.1109,-4.1109,-4.1109,-4.1109,-4.1109,-4.1109,-4.1051,-4.0934,-4.0636,-4.0122,-3.9672,-3.9352,-3.8619,-3.8266,-3.812,-3.7964,-3.7579,-3.6999,-3.6704,-3.6382,-3.5906,-3.6073,-3.635,-3.6599,-3.6886,-3.7387,-3.8018,-3.8667,-3.9126,-3.9575,-4.0053,-4.032,-4.032,-4.032,-4.032,-4.032,-4.032,-4.032,-4.032,-4.032,-4.032,-4.032,-4.032,-4.032,-4.032,-4.032,-4.032,-4.032,-4.032,-4.032,-4.032,-4.032,-4.032,-4.032,-4.032,-4.011,-3.9461,-3.8534,-3.7712,-3.6691,-3.5501,-3.5236,-3.5115,-3.5115,-3.5062,-3.5105,-3.5157,-3.5141,-3.5132,-3.5079,-3.5124,-3.5174,-3.5062,-3.4935,-3.4917,-3.486,-3.4674,-3.4505,-3.439,-3.4203,-3.3928,-3.3842,-3.3855,-3.3807,-4.6181,-4.6181,-4.6173,-4.6197,-4.6209,-4.6212,-4.6203,-4.6196,-4.6209,-4.6227,-4.6289,-4.6287,-4.6301,-4.6306,-4.6287,-4.6267,-4.5932,-4.4962,-4.4057,-4.3219,-4.2243,-4.1599,-4.1168,-4.1109,-4.1109,-4.1109,-4.1109,-4.1109,-4.1109,-4.1109,-4.1109,-4.1109,-4.1109,-4.1109,-4.1109,-4.1109,-4.1109,-4.1109,-4.107,-4.1012,-4.0716,-4.009,-3.9591,-3.9228,-3.9006,-3.8627,-3.8445,-3.8226,-3.7979,-3.785,-3.7672,-3.7456,-3.7368,-3.7517,-3.751,-3.7596,-3.8199,-3.8772,-3.9126,-3.9546,-3.9995,-4.0148,-4.032,-4.032,-4.032,-4.032,-4.032,-4.032,-4.032,-4.032,-4.032,-4.032,-4.032,-4.032,-4.032,-4.032,-4.032,-4.032,-4.032,-4.032,-4.032,-4.032,-4.032,-4.032,-4.032,-4.032,-4.032,-3.9766,-3.8591,-3.7655,-3.6852,-3.5842,-3.5346,-3.5193,-3.5201,-3.5182,-3.5182,-3.5182,-3.5166,-3.5174,-3.5182,-3.5182,-3.5182,-3.5182,-3.5132,-3.5089,-3.5018,-3.4917,-3.4753,-3.4599,-3.439,-3.4123,-3.403,-3.4018,-3.3895,-4.6201,-4.6201,-4.6201,-4.6201,-4.6204,-4.6212,-4.6199,-4.6199,-4.6199,-4.6214,-4.6261,-4.6265,-4.6269,-4.6282,-4.6264,-4.5987,-4.5713,-4.4781,-4.3822,-4.2921,-4.2253,-4.1604,-4.1289,-4.1111,-4.1109,-4.1109,-4.1109,-4.1109,-4.1109,-4.1109,-4.1109,-4.1109,-4.1109,-4.1109,-4.1109,-4.1109,-4.1109,-4.1109,-4.1109,-4.1109,-4.1109,-4.062,-4.0366,-4.0104,-3.9921,-3.9533,-3.9404,-3.9256,-3.8935,-3.8688,-3.8341,-3.8007,-3.7973,-3.8251,-3.8394,-3.8595,-3.9028,-3.9583,-3.9708,-3.9947,-4.031,-4.031,-4.032,-4.032,-4.032,-4.032,-4.032,-4.032,-4.032,-4.032,-4.032,-4.032,-4.032,-4.032,-4.032,-4.032,-4.032,-4.032,-4.032,-4.032,-4.032,-4.032,-4.032,-4.032,-4.032,-4.032,-4.032,-3.9957,-3.8801,-3.7731,-3.6891,-3.6126,-3.5572,-3.5239,-3.5182,-3.5182,-3.5182,-3.5182,-3.5182,-3.5182,-3.5182,-3.5182,-3.5182,-3.5182,-3.5182,-3.5174,-3.5115,-3.5009,-3.4936,-3.4792,-3.4577,-3.4325,-3.4255,-3.4196,-3.4136,-4.6196,-4.6199,-4.6196,-4.6196,-4.6199,-4.6199,-4.6199,-4.6199,-4.6199,-4.6203,-4.6199,-4.6201,-4.6235,-4.6248,-4.619,-4.5683,-4.5156,-4.4609,-4.3691,-4.2969,-4.2284,-4.1617,-4.1239,-4.1115,-4.1114,-4.1111,-4.1109,-4.1109,-4.1109,-4.1109,-4.1109,-4.1109,-4.1109,-4.1109,-4.1109,-4.1109,-4.1109,-4.1109,-4.1109,-4.1109,-4.1109,-4.1109,-4.1012,-4.1031,-4.1109,-4.1109,-4.0806,-4.0461,-3.9928,-3.9653,-3.9224,-3.896,-3.8883,-3.9218,-3.9277,-3.9503,-3.9769,-4.0121,-4.0251,-4.0214,-4.031,-4.032,-4.031,-4.032,-4.032,-4.032,-4.032,-4.032,-4.032,-4.032,-4.032,-4.032,-4.032,-4.032,-4.032,-4.032,-4.032,-4.032,-4.032,-4.032,-4.032,-4.032,-4.032,-4.032,-4.032,-4.032,-4.011,-3.9671,-3.9069,-3.8094,-3.7177,-3.6356,-3.5649,-3.5392,-3.522,-3.5182,-3.5182,-3.5182,-3.5182,-3.5182,-3.5182,-3.5182,-3.5182,-3.5182,-3.5182,-3.5182,-3.5157,-3.5062,-3.501,-3.4955,-3.4782,-3.4569,-3.4526,-3.4464,-3.4434,-4.6199,-4.6199,-4.6199,-4.6199,-4.6199,-4.6199,-4.6199,-4.6199,-4.6199,-4.6206,-4.6213,-4.6203,-4.6223,-4.6226,-4.6226,-4.5894,-4.5463,-4.4678,-4.4035,-4.3434,-4.2067,-4.1406,-4.115,-4.1109,-4.1102,-4.1116,-4.1112,-4.1109,-4.1109,-4.1109,-4.1109,-4.1109,-4.1109,-4.1109,-4.1109,-4.1109,-4.1109,-4.1109,-4.1109,-4.1109,-4.1109,-4.1109,-4.1109,-4.1109,-4.1109,-4.1109,-4.1028,-4.0948,-4.0867,-4.0752,-4.049,-4.0205,-4.0111,-4.012,-4.0166,-4.0077,-4.0369,-4.0377,-4.0417,-4.0353,-4.0345,-4.0325,-4.0326,-4.031,-4.031,-4.031,-4.031,-4.032,-4.032,-4.032,-4.032,-4.032,-4.032,-4.032,-4.032,-4.032,-4.032,-4.032,-4.032,-4.032,-4.032,-4.032,-4.032,-4.032,-4.032,-4.032,-4.032,-3.9881,-3.9336,-3.84,-3.7464,-3.668,-3.5897,-3.5411,-3.5182,-3.5182,-3.5182,-3.5182,-3.5182,-3.5182,-3.5182,-3.5182,-3.5182,-3.5182,-3.5182,-3.5182,-3.5149,-3.5124,-3.5124,-3.5072,-3.4964,-3.4831,-3.4773,-3.4724,-3.4685]},{"header":{"parameterUnit":"m.s-1","parameterCategory":1,"la1":31.0,"la2":29.5877,"lo1":-88.7671,"lo2":-86.6584,"dy":0.0162,"dx":0.0185,"nx":115,"ny":88,"refTime":"2026-04-16T12:00:00:Z","depth":0,"parameterNumber":3,"parameterNumberName":"V-component_of_WINDS"},"data":[0.0,0.0,0.0,0.0,0.0,0.0,0.0,0.0,0.0,0.0,0.0,0.0,0.0,0.0,0.0,0.0,0.0,0.0,0.0,0.0,0.0,0.0,0.0,0.0,0.0,0.0,0.0,0.0,0.0,0.0,0.0,0.0,0.0,0.0,0.0,0.0,0.0,0.0,0.0,0.0,0.0,0.0,0.0,0.0,0.0,0.0,0.0,0.0,0.0,0.0,0.0,0.0,0.0,0.0,0.0,0.0,0.0,0.0,0.0,0.0,0.0,0.0,0.0,0.0,0.0,0.0,0.0,0.0,0.0,0.0,0.0,0.0,0.0,0.0,0.0,0.0,0.0,0.0,0.0,0.0,0.0,0.0,0.0,0.0,0.0,0.0,0.0,0.0,0.0,0.0,0.0,0.0,0.0,0.0,0.0,0.0,0.0,0.0,0.0,0.0,0.0,0.0,0.0,0.0,0.0,0.0,0.0,0.0,0.0,0.0,0.0,0.0,0.0,0.0,0.0,0.0,0.0,0.0,0.0,0.0,0.0,0.0,0.0,0.0,0.0,0.0,0.0,0.0,0.0,0.0,0.0,0.0,0.0,0.0,0.0,0.0,0.0,0.0,0.0,0.0,0.0,0.0,0.0,0.0,0.0,0.0,0.0,0.0,0.0,0.0,0.0,0.0,0.0,0.0,0.0,0.0,0.0,0.0,0.0,0.0,0.0,0.0,0.0,0.0,0.0,0.0,0.0,0.0,0.0,0.0,0.0,0.0,0.0,0.0,0.0,0.0,0.0,0.0,0.0,0.0,0.0,0.0,0.0,0.0,0.0,0.0,0.0,0.0,0.0,0.0,0.0,0.0,0.0,0.0,0.0,0.0,0.0,0.0,0.0,0.0,0.0,0.0,0.0,0.0,0.0,0.0,0.0,0.0,0.0,0.0,0.0,0.0,0.0,0.0,0.0,0.0,0.0,0.0,0.0,0.0,0.0,0.0,0.0,0.0,0.0,0.0,0.0,0.0,0.0,0.0,0.0,0.0,0.0,0.0,0.0,0.0,0.0,0.0,0.0,0.0,0.0,0.0,0.0,0.0,0.0,0.0,0.0,0.0,0.0,0.0,0.0,0.0,0.0,0.0,0.0,0.0,0.0,0.0,0.0,0.0,0.0,0.0,0.0,0.0,0.0,0.0,0.0,0.0,0.0,0.0,0.0,0.0,0.0,0.0,0.0,0.0,0.0,0.0,0.0,0.0,0.0,0.0,0.0,0.0,0.0,0.0,0.0,0.0,0.0,0.0,0.0,0.0,0.0,0.0,0.0,0.0,0.0,0.0,0.0,0.0,0.0,0.0,0.0,0.0,0.0,0.0,0.0,0.0,0.0,0.0,0.0,0.0,0.0,0.0,0.0,0.0,0.0,0.0,0.0,0.0,0.0,0.0,0.0,0.0,0.0,0.0,0.0,0.0,0.0,0.0,0.0,0.0,0.0,0.0,0.0,0.0,0.0,0.0,0.0,0.0,0.0,0.0,0.0,0.0,0.0,0.0,0.0,0.0,0.0,0.0,0.0,0.0,0.0,0.0,0.0,0.0,0.0,0.0,0.0,0.0,0.0,0.0,0.0,0.0,0.0,0.0,0.0,0.0,0.0,0.0,0.0,0.0,0.0,0.0,0.0,0.0,0.0,0.0,0.0,0.0,0.0,0.0,0.0,0.0,0.0,0.0,0.0,0.0,0.0,0.0,0.0,0.0,0.0,0.0,0.0,0.0,0.0,0.0,0.0,0.0,0.0,0.0,0.0,0.0,0.0,0.0,0.0,0.0,0.0,0.0,0.0,0.0,0.0,0.0,0.0,0.0,0.0,0.0,0.0,0.0,0.0,0.0,0.0,0.0,0.0,0.0,0.0,0.0,0.0,0.0,0.0,0.0,0.0,0.0,0.0,0.0,0.0,0.0,0.0,0.0,0.0,0.0,0.0,0.0,0.0,0.0,0.0,0.0,0.0,0.0,0.0,0.0,0.0,0.0,0.0,0.0,0.0,0.0,0.0,0.0,0.0,0.0,0.0,0.0,0.0,0.0,0.0,0.0,0.0,0.0,0.0,0.0,0.0,0.0,0.0,0.0,0.0,0.0,0.0,0.0,0.0,0.0,0.0,0.0,0.0,0.0,0.0,0.0,0.0,0.0,0.0,0.0,0.0,0.0,0.0,0.0,0.0,0.0,0.0,0.0,0.0,0.0,0.0,0.0,0.0,0.0,0.0,0.0,0.0,0.0,0.0,0.0,0.0,0.0,0.0,0.0,0.0,0.0,0.0,0.0,0.0,0.0,0.0,0.0,0.0,0.0,0.0,0.0,0.0,0.0,0.0,0.0,0.0,0.0,0.0,0.0,0.0,0.0,0.0,0.0,0.0,0.0,0.0,0.0,0.0,0.0,0.0,0.0,0.0,0.0,0.0,0.0,0.0,0.0,0.0,0.0,0.0,0.0,0.0,0.0,0.0,0.0,0.0,0.0,0.0,0.0,0.0,0.0,0.0,0.0,0.0,0.0,0.0,0.0,0.0,0.0,0.0,0.0,0.0,0.0,0.0,0.0,0.0,0.0,0.0,0.0,0.0,0.0,0.0,0.0,0.0,0.0,0.0,0.0,0.0,0.0,0.0,0.0,0.0,0.0,0.0,0.0,0.0,0.0,0.0,0.0,0.0,0.0,0.0,0.0,0.0,0.0,0.0,0.0,0.0,0.0,0.0,0.0,0.0,0.0,0.0,0.0,0.0,0.0,0.0,0.0,0.0,0.0,0.0,0.0,0.0,0.0,0.0,0.0,0.0,0.0,0.0,0.0,0.0,0.0,0.0,0.0,0.0,0.0,0.0,0.0,0.0,0.0,0.0,0.0,0.0,0.0,0.0,0.0,0.0,0.0,0.0,0.0,0.0,0.0,0.0,0.0,0.0,0.0,0.0,0.0,0.0,0.0,0.0,0.0,0.0,0.0,0.0,0.0,0.0,0.0,0.0,0.0,0.0,0.0,0.0,0.0,0.0,0.0,0.0,0.0,0.0,0.0,0.0,0.0,0.0,0.0,0.0,0.0,0.0,0.0,0.0,0.0,0.0,0.0,0.0,0.0,0.0,0.0,0.0,0.0,0.0,0.0,0.0,0.0,0.0,0.0,0.0,0.0,0.0,0.0,0.0,0.0,0.0,0.0,0.0,0.0,0.0,0.0,0.0,0.0,0.0,0.0,0.0,0.0,0.0,0.0,0.0,0.0,0.0,0.0,0.0,0.0,0.0,0.0,0.0,0.0,0.0,0.0,0.0,0.0,0.0,0.0,0.0,0.0,0.0,0.0,0.0,0.0,0.0,0.0,0.0,0.0,0.0,0.0,0.0,0.0,0.0,0.0,0.0,0.0,0.0,0.0,0.0,0.0,0.0,0.0,0.0,0.0,0.0,0.0,0.0,0.0,0.0,0.0,0.0,0.0,0.0,0.0,0.0,0.0,0.0,0.0,0.0,0.0,0.0,0.0,0.0,0.0,0.0,0.0,0.0,0.0,0.0,0.0,0.0,0.0,0.0,0.0,0.0,0.0,0.0,0.0,0.0,0.0,0.0,0.0,0.0,0.0,0.0,0.0,0.0,0.0,0.0,0.0,0.0,0.0,0.0,0.0,0.0,0.0,0.0,0.0,0.0,0.0,0.0,0.0,0.0,0.0,0.0,0.0,0.0,0.0,0.0,0.0,0.0,0.0,0.0,0.0,0.0,0.0,0.0,0.0,0.0,0.0,0.0,0.0,0.0,0.0,0.0,0.0,0.0,0.0,0.0,0.0,0.0,0.0,0.0,0.0,0.0,0.0,0.0,0.0,0.0,0.0,0.0,0.0,0.0,0.0,0.0,0.0,0.0,0.0,0.0,0.0,0.0,0.0,0.0,0.0,0.0,0.0,0.0,0.0,0.0,0.0,0.0,0.0,0.0,0.0,0.0,0.0,0.0,0.0,0.0,0.0,0.0,0.0,0.0,0.0,0.0,0.0,0.0,0.0,0.0,0.0,0.0,0.0,0.0,0.0,0.0,0.0,0.0,0.0,0.0,0.0,0.0,0.0,0.0,0.0,0.0,0.0,0.0,0.0,0.0,0.0,0.0,0.0,0.0,0.0,0.0,0.0,0.0,0.0,0.0,0.0,0.0,0.0,0.0,0.0,0.0,0.0,0.0,0.0,0.0,0.0,0.0,0.0,0.0,0.0,0.0,0.0,0.0,0.0,0.0,0.0,0.0,0.0,0.0,0.0,0.0,0.0,-0.439,0.0,0.0,0.0,0.0,0.0,0.0,0.0,0.0,0.0,0.0,0.0,0.0,0.0,0.0,0.0,0.0,0.0,0.0,0.0,0.0,0.0,0.0,0.0,0.0,0.0,0.0,0.0,0.0,0.0,0.0,0.0,0.0,0.0,0.0,0.0,0.0,0.0,0.0,0.0,0.0,0.0,0.0,0.0,0.0,0.0,0.0,0.0,0.0,0.0,0.0,0.0,0.0,0.0,0.0,0.0,0.0,0.0,0.0,0.0,0.0,0.0,0.0,0.0,0.0,0.0,0.0,0.0,0.0,0.0,0.0,0.0,0.0,0.0,0.0,0.0,0.0,0.0,0.0,0.0,0.0,0.0,0.0,0.0,0.0,0.0,0.0,0.0,0.0,0.0,0.0,0.0,0.0,0.0,0.0,0.0,0.0,0.0,0.0,0.0,0.0,0.0,0.0,0.0,0.0,0.0,0.0,0.0,0.0,0.0,0.0,-0.5621,-0.6155,-0.5655,-0.5124,-0.4573,0.0,0.0,0.0,0.0,0.0,0.0,0.0,0.0,0.0,0.0,0.0,0.0,0.0,0.0,0.0,0.0,0.0,0.0,0.0,0.0,0.0,0.0,0.0,0.0,0.0,0.0,0.0,0.0,0.0,0.0,0.0,0.0,0.0,0.0,0.0,0.0,0.0,0.0,0.0,0.0,0.0,0.0,0.0,0.0,0.0,0.0,0.0,0.0,0.0,0.0,0.0,0.0,0.0,0.0,0.0,0.0,0.0,0.0,0.0,0.0,0.0,0.0,0.0,0.0,0.0,0.0,0.0,0.0,0.0,0.0,0.0,0.0,0.0,0.0,0.0,0.0,0.0,0.0,0.0,0.0,0.0,0.0,0.0,0.0,0.0,0.0,0.0,0.0,0.0,0.0,0.0,0.0,0.0,0.0,0.0,0.0,0.0,0.0,0.0,0.0,0.0,0.0,0.0,0.0,0.0,0.0,0.0,0.0,0.0,0.0,0.0,0.0,-0.609,-0.5521,-0.4664,0.0,0.0,0.0,0.0,0.0,0.0,0.0,0.0,0.0,0.0,0.0,0.0,0.0,0.0,0.0,0.0,0.0,0.0,0.0,0.0,0.0,0.0,0.0,0.0,0.0,0.0,0.0,0.0,0.0,0.0,0.0,0.0,0.0,0.0,0.0,0.0,0.0,0.0,0.0,0.0,0.0,0.0,0.0,0.0,0.0,0.0,0.0,0.0,0.0,0.0,0.0,0.0,0.0,0.0,0.0,0.0,0.0,0.0,0.0,0.0,0.0,0.0,0.0,0.0,0.0,0.0,0.0,0.0,0.0,0.0,0.0,0.0,0.0,0.0,0.0,0.0,0.0,0.0,0.0,0.0,0.0,0.0,0.0,0.0,0.0,0.0,0.0,0.0,0.0,0.0,0.0,0.0,0.0,0.0,0.0,0.0,0.0,0.0,0.0,0.0,0.0,0.0,0.0,0.0,0.0,0.0,0.0,0.0,0.0,0.0,-0.5314,-0.5753,-0.5338,0.0,-0.4409,0.0,0.0,0.0,0.0,0.0,0.0,0.0,0.0,0.0,0.0,0.0,0.0,0.0,0.0,0.0,0.0,0.0,0.0,0.0,0.0,0.0,0.0,0.0,0.0,0.0,0.0,0.0,0.0,0.0,0.0,0.0,0.0,0.0,0.0,0.0,0.0,0.0,0.0,0.0,0.0,0.0,0.0,0.0,0.0,0.0,0.0,0.0,0.0,0.0,0.0,0.0,0.0,0.0,0.0,0.0,0.0,0.0,0.0,0.0,0.0,0.0,0.0,0.0,0.0,0.0,0.0,0.0,0.0,0.0,0.0,0.0,0.0,0.0,0.0,0.0,0.0,0.0,0.0,0.0,0.0,0.0,0.0,0.0,0.0,0.0,0.0,0.0,0.0,0.0,0.0,0.0,0.0,0.0,0.0,0.0,0.0,0.0,0.0,0.0,0.0,0.0,0.0,0.0,0.0,0.0,0.0,0.0,0.0,0.0,0.0,0.0,-0.5396,-0.4867,-0.4586,0.0,0.0,0.0,0.0,0.0,0.0,0.0,0.0,0.0,0.0,0.0,0.0,0.0,0.0,0.0,0.0,0.0,0.0,0.0,0.0,0.0,0.0,0.0,0.0,0.0,0.0,0.0,0.0,0.0,0.0,0.0,0.0,0.0,0.0,0.0,0.0,0.0,0.0,0.0,0.0,0.0,0.0,0.0,0.0,0.0,0.0,0.0,0.0,0.0,0.0,0.0,0.0,0.0,0.0,0.0,0.0,0.0,0.0,0.0,0.0,0.0,0.0,0.0,0.0,0.0,0.0,0.0,0.0,0.0,0.0,0.0,0.0,0.0,0.0,0.0,0.0,0.0,0.0,0.0,0.0,0.0,0.0,0.0,0.0,0.0,0.0,0.0,0.0,0.0,0.0,0.0,0.0,0.0,0.0,0.0,0.0,0.0,0.0,0.0,0.0,0.0,0.0,0.0,0.0,0.0,0.0,0.0,0.0,0.0,0.0,-0.4961,0.0,-0.5141,-0.4752,-0.4607,-0.4783,0.0,0.0,0.0,0.0,0.0,0.0,0.0,0.0,0.0,0.0,0.0,0.0,0.0,0.0,0.0,0.0,0.0,0.0,0.0,0.0,0.0,0.0,0.0,0.0,0.0,0.0,0.0,0.0,0.0,0.0,0.0,0.0,0.0,0.0,0.0,0.0,0.0,0.0,0.0,0.0,0.0,0.0,0.0,0.0,0.0,0.0,0.0,0.0,0.0,0.0,0.0,0.0,0.0,0.0,0.0,0.0,0.0,0.0,0.0,0.0,0.0,0.0,0.0,0.0,0.0,0.0,0.0,0.0,0.0,0.0,0.0,0.0,0.0,0.0,0.0,0.0,0.0,0.0,0.0,0.0,0.0,0.0,0.0,0.0,0.0,0.0,0.0,0.0,0.0,0.0,0.0,0.0,0.0,0.0,0.0,0.0,0.0,0.0,0.0,0.0,0.0,0.0,0.0,0.0,0.0,0.0,0.0,0.0,0.0,-0.4771,-0.4716,-0.5084,-0.5068,-0.4987,0.0,0.0,0.0,0.0,0.0,0.0,0.0,0.0,0.0,0.0,0.0,0.0,0.0,0.0,0.0,0.0,0.0,0.0,0.0,0.0,0.0,0.0,0.0,0.0,0.0,0.0,0.0,0.0,0.0,0.0,0.0,0.0,0.0,0.0,0.0,0.0,0.0,0.0,0.0,0.0,0.0,0.0,0.0,0.0,0.0,0.0,0.0,0.0,0.0,0.0,0.0,0.0,0.0,0.0,0.0,0.0,0.0,0.0,0.0,0.0,0.0,0.0,0.0,0.0,0.0,0.0,0.0,0.0,0.0,0.0,0.0,0.0,0.0,0.0,0.0,0.0,0.0,0.0,0.0,0.0,0.0,0.0,0.0,0.0,0.0,0.0,0.0,0.0,0.0,0.0,0.0,0.0,0.0,0.0,0.0,0.0,0.0,0.0,0.0,0.0,0.0,0.0,0.0,0.0,0.0,0.0,0.0,0.0,0.0,-0.428,-0.4085,-0.4282,-0.4877,-0.4702,-0.4752,0.0,0.0,0.0,0.0,0.0,0.0,0.0,0.0,0.0,0.0,0.0,0.0,0.0,0.0,0.0,0.0,0.0,0.0,0.0,0.0,0.0,0.0,0.0,0.0,0.0,0.0,0.0,0.0,0.0,0.0,0.0,0.0,0.0,0.0,0.0,0.0,0.0,0.0,0.0,0.0,0.0,0.0,0.0,0.0,0.0,0.0,0.0,0.0,0.0,0.0,0.0,0.0,0.0,0.0,0.0,0.0,0.0,0.0,0.0,0.0,0.0,0.0,0.0,0.0,0.0,0.0,0.0,0.0,0.0,0.0,0.0,0.0,0.0,0.0,0.0,0.0,0.0,0.0,0.0,0.0,0.0,0.0,0.0,0.0,0.0,0.0,0.0,0.0,0.0,0.0,0.0,0.0,0.0,0.0,0.0,0.0,0.0,0.0,0.0,0.0,0.0,0.0,0.0,0.0,0.0,0.0,0.0,0.0,0.0,-0.3904,0.0,-0.4312,0.0,-0.4597,-0.4619,0.0,0.0,0.0,0.0,0.0,0.0,0.0,0.0,0.0,0.0,0.0,0.0,0.0,0.0,0.0,0.0,0.0,0.0,0.0,0.0,0.0,0.0,0.0,0.0,0.0,0.0,0.0,0.0,0.0,0.0,0.0,0.0,0.0,0.0,0.0,0.0,0.0,0.0,0.0,0.0,0.0,0.0,0.0,0.0,0.0,0.0,0.0,0.0,0.0,0.0,0.0,0.0,0.0,0.0,0.0,0.0,0.0,0.0,0.0,0.0,0.0,0.0,0.0,0.0,0.0,0.0,0.0,0.0,0.0,0.0,0.0,0.0,0.0,0.0,0.0,0.0,0.0,0.0,0.0,0.0,0.0,0.0,0.0,0.0,0.0,0.0,0.0,0.0,0.0,0.0,0.0,0.0,0.0,0.0,0.0,0.0,0.0,0.0,0.0,0.0,0.0,0.0,0.0,0.0,0.0,0.0,0.0,0.0,-0.3913,-0.4271,-0.4585,-0.477,-0.4811,-0.4809,-0.4619,0.0,0.0,0.0,0.0,0.0,0.0,0.0,0.0,0.0,0.0,0.0,0.0,0.0,0.0,0.0,0.0,0.0,0.0,0.0,0.0,0.0,0.0,0.0,0.0,0.0,0.0,0.0,0.0,0.0,0.0,0.0,0.0,0.0,0.0,0.0,0.0,0.0,0.0,0.0,0.0,0.0,0.0,0.0,0.0,0.0,0.0,0.0,0.0,0.0,0.0,0.0,0.0,0.0,0.0,0.0,0.0,0.0,0.0,0.0,0.0,0.0,0.0,0.0,0.0,0.0,0.0,0.0,0.0,0.0,0.0,0.0,0.0,0.0,0.0,0.0,0.0,0.0,0.0,0.0,0.0,0.0,0.0,0.0,0.0,0.0,0.0,0.0,0.0,0.0,0.0,0.0,0.0,0.0,0.0,0.0,0.0,0.0,0.0,0.0,0.0,0.0,0.0,0.0,0.0,0.0,0.0,0.0,0.0,0.0,-0.3911,-0.4273,-0.4864,-0.5644,-0.5107,-0.5125,0.0,0.0,0.0,0.0,0.0,0.0,0.0,0.0,0.0,0.0,0.0,0.0,0.0,0.0,0.0,0.0,0.0,0.0,0.0,0.0,0.0,0.0,0.0,0.0,0.0,0.0,0.0,0.0,0.0,0.0,0.0,0.0,0.0,0.0,0.0,0.0,0.0,0.0,0.0,0.0,0.0,0.0,0.0,0.0,0.0,0.0,0.0,0.0,0.0,0.0,0.0,0.0,0.0,0.0,0.0,0.0,0.0,0.0,0.0,0.0,0.0,0.0,0.0,0.0,0.0,0.0,0.0,0.0,0.0,0.0,0.0,0.0,0.0,0.0,0.0,0.0,0.0,0.0,0.0,0.0,0.0,0.0,0.0,0.0,0.0,0.0,0.0,0.0,0.0,0.0,0.0,0.0,0.0,0.0,0.0,0.0,0.0,0.0,0.0,0.0,0.0,0.0,0.0,0.0,0.0,0.0,0.0,0.0,0.0,-0.4557,-0.4617,-0.5095,-0.5995,-0.547,-0.5509,-0.6187,0.0,0.0,0.0,0.0,0.0,0.0,0.0,0.0,0.0,0.0,0.0,0.0,0.0,0.0,0.0,0.0,0.0,0.0,0.0,0.0,0.0,0.0,0.0,0.0,0.0,0.0,0.0,0.0,0.0,0.0,0.0,0.0,0.0,0.0,0.0,0.0,0.0,0.0,0.0,0.0,0.0,0.0,0.0,0.0,0.0,0.0,0.0,0.0,0.0,0.0,0.0,0.0,0.0,0.0,0.0,0.0,0.0,0.0,0.0,0.0,0.0,0.0,0.0,0.0,0.0,0.0,0.0,0.0,0.0,0.0,0.0,0.0,0.0,0.0,0.0,0.0,0.0,0.0,0.0,0.0,0.0,0.0,0.0,0.0,0.0,0.0,0.0,0.0,0.0,0.0,0.0,0.0,0.0,0.0,0.0,0.0,0.0,0.0,0.0,0.0,0.0,0.0,0.0,0.0,0.0,0.0,0.0,0.0,-0.5949,-0.5617,-0.5625,-0.5946,-0.5909,-0.5799,0.0,0.0,0.0,0.0,0.0,0.0,0.0,0.0,0.0,0.0,0.0,0.0,0.0,0.0,0.0,0.0,0.0,0.0,0.0,0.0,0.0,0.0,0.0,0.0,0.0,0.0,0.0,0.0,0.0,0.0,0.0,0.0,0.0,0.0,0.0,0.0,0.0,0.0,0.0,0.0,0.0,0.0,0.0,0.0,0.0,0.0,0.0,0.0,0.0,0.0,0.0,0.0,0.0,0.0,0.0,0.0,0.0,0.0,0.0,0.0,0.0,0.0,0.0,0.0,0.0,0.0,0.0,0.0,0.0,0.0,0.0,0.0,0.0,0.0,0.0,0.0,0.0,0.0,0.0,0.0,0.0,0.0,0.0,0.0,0.0,0.0,0.0,0.0,0.0,0.0,0.0,0.0,0.0,0.0,0.0,0.0,0.0,0.0,0.0,0.0,0.0,0.0,0.0,0.0,0.0,0.0,0.0,0.0,0.0,-0.6773,-0.7136,-0.7083,-0.6664,-0.6708,-0.662,0.0,0.0,0.0,0.0,0.0,0.0,0.0,0.0,0.0,0.0,0.0,0.0,0.0,0.0,0.0,0.0,0.0,0.0,0.0,0.0,0.0,0.0,0.0,0.0,0.0,0.0,0.0,0.0,0.0,0.0,0.0,0.0,0.0,0.0,0.0,0.0,0.0,0.0,0.0,0.0,0.0,0.0,0.0,0.0,0.0,0.0,0.0,0.0,0.0,0.0,0.0,0.0,0.0,0.0,0.0,0.0,0.0,0.0,0.0,0.0,0.0,0.0,0.0,0.0,0.0,0.0,0.0,0.0,0.0,0.0,0.0,0.0,0.0,0.0,0.0,0.0,0.0,0.0,0.0,0.0,0.0,0.0,0.0,0.0,0.0,0.0,0.0,0.0,0.0,0.0,0.0,0.0,0.0,0.0,0.0,0.0,0.0,0.0,0.0,0.0,0.0,0.0,0.0,0.0,0.0,0.0,0.0,0.0,-0.7356,-0.7933,-0.8702,-0.8586,-0.7476,-0.7559,-0.7327,0.0,0.0,0.0,0.0,0.0,0.0,0.0,0.0,0.0,0.0,0.0,0.0,0.0,0.0,0.0,0.0,0.0,0.0,0.0,0.0,0.0,0.0,0.0,0.0,0.0,0.0,0.0,0.0,0.0,0.0,0.0,0.0,0.0,0.0,0.0,0.0,0.0,0.0,0.0,0.0,0.0,0.0,0.0,0.0,0.0,0.0,0.0,0.0,0.0,0.0,0.0,0.0,0.0,0.0,0.0,0.0,0.0,0.0,0.0,0.0,0.0,0.0,0.0,0.0,0.0,0.0,0.0,0.0,0.0,0.0,0.0,0.0,0.0,0.0,0.0,0.0,0.0,0.0,0.0,0.0,0.0,0.0,0.0,0.0,0.0,0.0,0.0,0.0,0.0,0.0,0.0,0.0,0.0,0.0,0.0,0.0,0.0,0.0,0.0,0.0,0.0,0.0,0.0,0.0,0.0,0.0,0.0,0.0,-0.8654,-0.9174,-1.0108,-0.9913,-0.844,-0.8439,-0.7919,0.0,0.0,0.0,0.0,0.0,0.0,0.0,0.0,0.0,0.0,0.0,0.0,0.0,0.0,0.0,0.0,0.0,0.0,0.0,0.0,0.0,0.0,0.0,0.0,0.0,0.0,0.0,0.0,0.0,0.0,0.0,0.0,0.0,0.0,0.0,0.0,0.0,0.0,0.0,0.0,0.0,0.0,0.0,0.0,0.0,0.0,0.0,0.0,0.0,0.0,0.0,0.0,0.0,0.0,0.0,0.0,0.0,0.0,0.0,0.0,0.0,0.0,0.0,0.0,0.0,0.0,0.0,0.0,0.0,0.0,0.0,0.0,0.0,0.0,0.0,0.0,0.0,0.0,0.0,0.0,0.0,0.0,0.0,0.0,0.0,0.0,0.0,0.0,0.0,0.0,0.0,0.0,0.0,0.0,0.0,0.0,0.0,0.0,0.0,0.0,0.0,0.0,0.0,0.0,0.0,0.0,0.0,0.0,-0.8897,-0.9725,-1.0388,-1.0332,-0.9414,-0.9136,-0.8395,0.0,0.0,0.0,0.0,0.0,0.0,0.0,0.0,0.0,0.0,0.0,0.0,0.0,0.0,0.0,0.0,0.0,0.0,0.0,0.0,0.0,0.0,0.0,0.0,0.0,0.0,0.0,0.0,0.0,0.0,0.0,0.0,0.0,0.0,0.0,0.0,0.0,0.0,0.0,0.0,0.0,0.0,0.0,0.0,0.0,0.0,0.0,0.0,-0.6133,0.0,0.0,0.0,0.0,0.0,0.0,0.0,0.0,0.0,0.0,0.0,0.0,0.0,0.0,0.0,0.0,0.0,0.0,0.0,0.0,0.0,0.0,0.0,0.0,0.0,0.0,0.0,0.0,0.0,0.0,0.0,0.0,0.0,0.0,0.0,0.0,0.0,0.0,0.0,0.0,0.0,0.0,0.0,0.0,0.0,0.0,0.0,0.0,0.0,0.0,0.0,0.0,0.0,0.0,0.0,0.0,0.0,0.0,0.0,-0.9444,-1.0509,-1.066,-1.0589,-1.0303,-0.9853,-0.889,0.0,0.0,0.0,0.0,0.0,0.0,0.0,0.0,0.0,0.0,0.0,0.0,0.0,0.0,0.0,0.0,0.0,0.0,0.0,0.0,0.0,0.0,0.0,0.0,0.0,0.0,0.0,0.0,0.0,0.0,0.0,0.0,0.0,0.0,0.0,0.0,0.0,0.0,0.0,0.0,0.0,0.0,0.0,0.0,0.0,0.0,0.0,0.0,0.0,0.0,0.0,0.0,0.0,0.0,0.0,0.0,0.0,0.0,0.0,0.0,0.0,0.0,0.0,0.0,0.0,0.0,0.0,0.0,0.0,0.0,0.0,0.0,0.0,0.0,0.0,0.0,0.0,0.0,0.0,0.0,0.0,0.0,0.0,0.0,0.0,0.0,0.0,0.0,0.0,0.0,0.0,0.0,0.0,0.0,0.0,0.0,0.0,0.0,0.0,0.0,0.0,0.0,0.0,0.0,0.0,0.0,0.0,-0.9227,-1.0041,-1.1216,-1.0836,-1.0695,-1.0804,-1.0405,-0.9356,-0.7675,0.0,0.0,0.0,0.0,0.0,0.0,0.0,0.0,0.0,0.0,0.0,0.0,0.0,0.0,0.0,0.0,0.0,0.0,0.0,0.0,0.0,0.0,0.0,0.0,0.0,0.0,0.0,0.0,0.0,0.0,0.0,0.0,0.0,0.0,0.0,0.0,0.0,0.0,-0.6066,-0.6849,0.0,0.0,0.0,0.0,0.0,0.0,0.0,0.0,-0.7408,0.0,0.0,0.0,0.0,0.0,0.0,0.0,0.0,0.0,0.0,0.0,0.0,0.0,0.0,0.0,0.0,0.0,0.0,0.0,0.0,0.0,0.0,0.0,0.0,0.0,0.0,0.0,0.0,0.0,0.0,0.0,0.0,0.0,0.0,0.0,0.0,0.0,0.0,0.0,0.0,0.0,0.0,0.0,0.0,0.0,0.0,0.0,0.0,0.0,0.0,0.0,0.0,0.0,0.0,0.0,0.0,-0.935,-0.9549,-1.0151,-1.1171,-1.0932,-1.0534,-1.0037,-1.0309,-0.9702,-0.8049,0.0,0.0,0.0,0.0,0.0,0.0,0.0,0.0,0.0,0.0,0.0,0.0,0.0,0.0,0.0,0.0,0.0,0.0,0.0,0.0,0.0,0.0,0.0,0.0,0.0,0.0,0.0,0.0,0.0,0.0,0.0,0.0,0.0,0.0,0.0,0.0,0.0,0.0,0.0,-0.8129,-0.863,0.0,0.0,0.0,0.0,0.0,0.0,0.0,0.0,-0.6982,0.0,0.0,0.0,0.0,0.0,0.0,0.0,0.0,0.0,0.0,0.0,0.0,0.0,0.0,0.0,0.0,0.0,0.0,0.0,0.0,0.0,0.0,0.0,0.0,0.0,0.0,0.0,0.0,0.0,0.0,0.0,0.0,0.0,0.0,0.0,0.0,0.0,0.0,0.0,0.0,0.0,0.0,0.0,0.0,0.0,0.0,0.0,0.0,0.0,0.0,0.0,0.0,0.0,0.0,0.0,-0.9143,-0.9827,-1.0627,-1.1465,-1.1053,-1.072,-1.0527,-1.0289,-0.9649,0.0,0.0,0.0,0.0,0.0,0.0,0.0,0.0,0.0,0.0,0.0,0.0,0.0,0.0,0.0,0.0,0.0,0.0,0.0,0.0,0.0,0.0,0.0,0.0,0.0,0.0,0.0,0.0,0.0,0.0,0.0,0.0,0.0,0.0,0.0,0.0,0.0,0.0,0.0,0.0,-0.875,-0.9014,-0.9023,0.0,0.0,0.0,0.0,0.0,0.0,-0.7803,-0.7369,0.0,0.0,0.0,0.0,0.0,0.0,0.0,0.0,0.0,0.0,0.0,0.0,0.0,0.0,0.0,0.0,0.0,0.0,0.0,0.0,0.0,0.0,0.0,0.0,0.0,0.0,0.0,0.0,0.0,0.0,0.0,0.0,0.0,0.0,0.0,0.0,0.0,0.0,0.0,0.0,0.0,0.0,0.0,0.0,0.0,0.0,0.0,0.0,0.0,0.0,0.0,0.0,0.0,0.0,0.0,-0.8868,-0.9918,-1.0828,-1.1563,-1.106,-1.0823,-1.089,-1.0163,-0.9484,0.0,0.0,0.0,0.0,0.0,0.0,0.0,0.0,0.0,0.0,0.0,0.0,0.0,0.0,0.0,0.0,0.0,0.0,0.0,0.0,0.0,0.0,0.0,0.0,0.0,0.0,0.0,0.0,0.0,0.0,0.0,0.0,0.0,0.0,0.0,0.0,0.0,0.0,0.0,0.0,0.0,-0.958,-0.9718,-0.9473,0.0,0.0,0.0,0.0,-0.9189,-0.8675,0.0,0.0,0.0,0.0,0.0,0.0,0.0,0.0,0.0,0.0,0.0,0.0,0.0,0.0,0.0,0.0,0.0,0.0,0.0,0.0,0.0,0.0,0.0,0.0,0.0,0.0,0.0,0.0,0.0,0.0,0.0,0.0,0.0,0.0,0.0,0.0,0.0,0.0,0.0,0.0,0.0,0.0,0.0,0.0,0.0,0.0,0.0,0.0,0.0,0.0,0.0,0.0,0.0,0.0,0.0,0.0,-0.8783,-0.9533,-1.0279,-1.1027,-1.0804,-1.0406,-0.9977,-1.0019,-0.9263,0.0,0.0,0.0,0.0,0.0,0.0,0.0,0.0,0.0,0.0,0.0,0.0,0.0,0.0,0.0,0.0,0.0,0.0,0.0,0.0,0.0,0.0,0.0,0.0,0.0,0.0,0.0,0.0,0.0,0.0,0.0,0.0,0.0,0.0,0.0,0.0,0.0,0.0,0.0,0.0,0.0,-1.1057,-1.0332,-1.0156,-0.998,0.0,0.0,-0.9611,-1.0087,-1.0068,0.0,0.0,0.0,0.0,0.0,0.0,0.0,0.0,0.0,0.0,0.0,0.0,0.0,0.0,0.0,0.0,0.0,0.0,0.0,0.0,0.0,0.0,0.0,0.0,0.0,0.0,0.0,0.0,0.0,0.0,0.0,0.0,0.0,0.0,0.0,0.0,0.0,0.0,0.0,0.0,0.0,0.0,0.0,0.0,0.0,0.0,0.0,0.0,0.0,0.0,0.0,0.0,0.0,0.0,0.0,-0.7794,-0.8685,-0.9629,-1.0438,-1.1035,-1.0844,-1.0417,-0.9817,-0.9676,-0.8966,0.0,0.0,0.0,0.0,0.0,0.0,0.0,0.0,0.0,0.0,0.0,0.0,0.0,0.0,0.0,0.0,0.0,0.0,0.0,0.0,0.0,0.0,0.0,0.0,0.0,0.0,0.0,0.0,0.0,0.0,0.0,0.0,0.0,0.0,0.0,0.0,0.0,0.0,0.0,0.0,0.0,0.0,-1.0684,-1.0635,0.0,0.0,0.0,-1.0175,-1.0566,0.0,0.0,0.0,0.0,0.0,0.0,0.0,0.0,0.0,0.0,0.0,0.0,0.0,0.0,0.0,0.0,0.0,0.0,0.0,0.0,0.0,0.0,0.0,0.0,0.0,0.0,0.0,0.0,0.0,0.0,0.0,0.0,0.0,0.0,0.0,0.0,0.0,0.0,0.0,0.0,0.0,0.0,0.0,0.0,0.0,0.0,0.0,0.0,0.0,0.0,0.0,0.0,0.0,0.0,0.0,0.0,0.0,-0.8705,-0.9759,-1.0544,-1.0958,-1.0907,-1.0494,-0.9761,-0.9383,0.0,0.0,0.0,0.0,0.0,0.0,0.0,0.0,0.0,0.0,0.0,0.0,0.0,0.0,0.0,0.0,0.0,0.0,0.0,0.0,0.0,0.0,0.0,0.0,0.0,0.0,0.0,-0.3047,0.0,0.0,0.0,0.0,0.0,0.0,0.0,0.0,0.0,0.0,0.0,0.0,0.0,0.0,-1.1201,-1.1084,-1.1151,-1.124,0.0,0.0,-1.0879,-1.117,-1.1064,-1.0723,0.0,0.0,0.0,0.0,0.0,0.0,0.0,0.0,0.0,0.0,0.0,0.0,0.0,0.0,0.0,0.0,0.0,0.0,0.0,0.0,0.0,0.0,0.0,0.0,0.0,0.0,0.0,0.0,0.0,0.0,0.0,0.0,0.0,0.0,0.0,0.0,0.0,0.0,0.0,0.0,0.0,0.0,0.0,0.0,0.0,0.0,0.0,0.0,0.0,0.0,0.0,0.0,0.0,0.0,0.0,-0.8948,-0.9711,-1.0298,-1.0624,-1.0854,-1.0536,-0.9556,-0.9383,-0.8615,0.0,0.0,0.0,0.0,0.0,0.0,0.0,0.0,0.0,0.0,0.0,0.0,0.0,0.0,0.0,0.0,0.0,0.0,0.0,0.0,0.0,0.0,0.0,0.0,0.0,0.0,0.0,0.0,0.0,0.0,0.0,0.0,0.0,0.0,0.0,0.0,0.0,0.0,0.0,0.0,0.0,-1.1969,-1.1594,-1.1875,-1.2116,0.0,0.0,-1.2096,-1.2106,-1.2451,-1.2275,-1.1016,0.0,0.0,0.0,0.0,0.0,0.0,0.0,0.0,0.0,0.0,0.0,0.0,0.0,0.0,0.0,0.0,0.0,0.0,0.0,0.0,0.0,0.0,0.0,0.0,0.0,0.0,0.0,0.0,0.0,0.0,0.0,0.0,0.0,0.0,0.0,0.0,0.0,0.0,0.0,0.0,0.0,0.0,0.0,0.0,0.0,0.0,0.0,0.0,0.0,0.0,0.0,0.0,0.0,-0.7745,-0.8877,-0.9673,-1.0347,-1.0841,-1.0968,-1.064,-0.9831,-0.9272,-0.8548,0.0,0.0,0.0,0.0,0.0,0.0,0.0,0.0,0.0,0.0,0.0,0.0,0.0,0.0,0.0,0.0,0.0,0.0,0.0,0.0,0.0,0.0,0.0,0.0,0.0,0.0,0.0,0.0,-0.4484,-0.4805,-0.5254,0.0,0.0,0.0,0.0,0.0,0.0,0.0,0.0,0.0,0.0,-1.1855,-1.1953,-1.2106,0.0,0.0,-1.2379,-1.2301,-1.2598,-1.2536,-1.2029,-1.0754,-1.0166,0.0,0.0,0.0,0.0,0.0,0.0,0.0,0.0,0.0,0.0,0.0,0.0,0.0,0.0,0.0,0.0,0.0,0.0,0.0,0.0,0.0,0.0,0.0,0.0,0.0,0.0,0.0,0.0,0.0,0.0,0.0,0.0,0.0,0.0,0.0,0.0,0.0,0.0,0.0,0.0,0.0,0.0,0.0,0.0,0.0,0.0,0.0,0.0,0.0,0.0,0.0,0.0,-0.7609,-0.887,-0.9407,-0.9959,-1.0549,-1.0646,-1.0317,-0.9586,-0.8983,-0.8322,0.0,0.0,0.0,0.0,0.0,0.0,0.0,0.0,0.0,0.0,0.0,0.0,0.0,0.0,0.0,0.0,0.0,0.0,0.0,0.0,0.0,0.0,0.0,0.0,0.0,0.0,0.0,0.0,-0.5215,-0.537,-0.5577,0.0,0.0,0.0,0.0,0.0,0.0,0.0,0.0,0.0,0.0,-1.1751,-1.2135,-1.232,-1.2539,-1.2856,-1.2736,-1.2645,-1.269,-1.2647,-1.2145,-1.0705,0.0,0.0,0.0,0.0,0.0,0.0,0.0,0.0,0.0,0.0,0.0,0.0,0.0,0.0,0.0,0.0,0.0,0.0,0.0,0.0,0.0,0.0,0.0,0.0,0.0,0.0,0.0,0.0,0.0,0.0,-0.3482,0.0,0.0,0.0,0.0,0.0,0.0,0.0,0.0,0.0,0.0,0.0,0.0,0.0,0.0,0.0,0.0,0.0,0.0,0.0,0.0,0.0,0.0,0.0,-0.9059,-0.8827,-0.895,-0.9524,-0.9849,-0.9565,-0.8646,-0.8447,-0.8008,-0.7117,0.0,0.0,0.0,0.0,0.0,0.0,0.0,0.0,0.0,0.0,0.0,0.0,0.0,0.0,0.0,0.0,0.0,0.0,0.0,0.0,0.0,0.0,0.0,0.0,0.0,0.0,-0.626,-0.5998,-0.5596,0.0,0.0,0.0,0.0,0.0,0.0,0.0,0.0,0.0,0.0,-1.1067,-1.1751,-1.2155,-1.2598,-1.2871,-1.2925,-1.3262,-1.3243,-1.239,-1.2983,-1.2963,0.0,0.0,0.0,0.0,0.0,0.0,0.0,0.0,0.0,0.0,0.0,0.0,0.0,0.0,0.0,0.0,0.0,0.0,0.0,0.0,0.0,0.0,0.0,0.0,0.0,0.0,0.0,-0.4674,-0.4416,0.0,0.0,0.0,0.0,0.0,0.0,0.0,0.0,0.0,0.0,0.0,-0.5437,-0.5584,0.0,0.0,0.0,0.0,0.0,0.0,0.0,0.0,0.0,0.0,0.0,0.0,-0.7487,-0.8555,-0.8561,-0.8728,-0.9107,-0.9231,-0.9336,-0.9487,-0.8719,-0.7766,-0.6669,0.0,0.0,0.0,0.0,0.0,0.0,0.0,0.0,0.0,0.0,0.0,0.0,0.0,0.0,0.0,0.0,0.0,0.0,0.0,0.0,0.0,0.0,0.0,0.0,0.0,-0.5497,0.0,0.0,0.0,0.0,0.0,0.0,0.0,0.0,0.0,0.0,0.0,-1.0078,-1.0625,-1.1433,-1.2168,-1.2607,-1.3027,-1.3301,0.0,0.0,0.0,0.0,0.0,0.0,0.0,0.0,0.0,0.0,0.0,0.0,0.0,0.0,-1.2224,-0.975,-0.9376,-0.9387,-0.926,0.0,0.0,0.0,0.0,0.0,0.0,0.0,0.0,0.0,0.0,0.0,0.0,0.0,0.0,-0.5191,0.0,-0.4997,0.0,0.0,0.0,0.0,0.0,0.0,0.0,0.0,-0.5527,-0.5817,-0.6075,-0.622,-0.6212,0.0,-0.5805,-0.5329,0.0,0.0,0.0,0.0,0.0,0.0,0.0,0.0,-0.7218,-0.8043,-0.8018,-0.8124,-0.8407,-0.8417,-0.8749,-0.9437,-0.8699,-0.7796,-0.6699,-0.6191,-0.5825,0.0,0.0,0.0,0.0,0.0,0.0,0.0,0.0,0.0,0.0,0.0,0.0,0.0,0.0,0.0,0.0,0.0,0.0,0.0,0.0,0.0,0.0,0.0,-0.6014,0.0,0.0,0.0,0.0,0.0,0.0,0.0,0.0,0.0,-0.8577,-0.959,-1.0605,-1.1484,-1.1931,-1.2418,-1.3018,0.0,0.0,0.0,0.0,0.0,0.0,0.0,-1.2876,-1.2174,-1.2248,-1.2238,-1.1719,-1.2705,-1.3447,-1.3083,0.0,0.0,-1.1677,-1.1338,-1.1342,-1.1178,-1.1752,-1.2312,-1.2441,-1.3067,-1.3617,0.0,0.0,0.0,0.0,0.0,0.0,0.0,0.0,-0.5206,-0.564,0.0,-0.5803,0.0,0.0,0.0,0.0,0.0,-0.5376,0.0,0.0,-0.6234,-0.6403,-0.6444,-0.6423,-0.6453,-0.6411,-0.644,-0.625,-0.5856,-0.4882,0.0,0.0,0.0,0.0,0.0,0.0,-0.6818,-0.7462,-0.7173,-0.7131,-0.7451,-0.7461,-0.7809,-0.8463,-0.8463,-0.8033,-0.716,-0.6692,-0.6212,-0.5754,-0.5562,0.0,0.0,0.0,0.0,0.0,0.0,0.0,0.0,0.0,0.0,0.0,0.0,0.0,0.0,0.0,0.0,0.0,0.0,0.0,0.0,-0.716,0.0,0.0,0.0,0.0,0.0,0.0,0.0,0.0,0.0,0.0,-1.0322,-1.041,-1.0997,-1.2661,0.0,0.0,0.0,0.0,-1.3529,-1.3564,-1.4304,-1.4582,-1.37,-1.4264,-1.4379,-1.3145,0.0,0.0,-1.3155,-1.3828,-1.4038,-1.2827,-1.3412,-1.4036,-1.4304,-1.4073,-1.3882,-1.3541,-1.3464,-1.366,-1.4013,-1.4197,-1.4476,-0.3789,0.0,0.0,0.0,0.0,-0.4573,-0.5199,-0.5681,-0.6507,-0.6813,-0.6747,-0.6649,0.0,0.0,0.0,0.0,0.0,0.0,-0.6192,-0.649,-0.6726,-0.6867,-0.6961,-0.7123,-0.7114,-0.6997,-0.6957,-0.681,-0.6457,-0.6022,-0.5417,-0.4694,0.0,0.0,0.0,0.0,-0.6659,-0.7224,-0.6822,-0.6624,-0.6708,-0.6712,-0.7159,-0.8111,-0.8056,-0.7943,-0.78,-0.74,-0.6972,-0.6514,-0.6504,0.0,0.0,0.0,0.0,0.0,0.0,0.0,0.0,0.0,0.0,0.0,0.0,0.0,0.0,0.0,0.0,0.0,0.0,0.0,-0.6331,-0.692,-0.7178,0.0,0.0,0.0,0.0,0.0,0.0,0.0,0.0,0.0,-1.1976,-1.2162,-1.2347,0.0,0.0,-1.3539,-1.349,-1.4023,-1.4424,-1.4414,0.0,0.0,0.0,-1.4136,-1.3856,-1.376,-1.4238,-1.4539,-1.4304,-1.4854,-1.4997,-1.4017,-1.4432,-1.4887,-1.4722,-1.4049,-1.3662,-1.3911,-1.4289,-1.459,-1.4728,-1.5066,-1.5301,-0.3944,-0.4034,-0.3808,-0.3763,-0.3876,-0.4531,-0.5317,-0.6142,-0.6739,-0.724,-0.762,-0.7473,-0.7098,-0.6649,-0.6437,0.0,0.0,0.0,-0.68,-0.7143,-0.7257,-0.7371,-0.7439,-0.7584,-0.7496,-0.7326,-0.7219,-0.7114,-0.6903,-0.6721,-0.627,-0.5596,0.0,0.0,-0.6069,-0.62,-0.6436,-0.676,-0.655,-0.642,-0.642,-0.6679,-0.7099,-0.7638,-0.7958,-0.8034,-0.7866,-0.7729,-0.7417,-0.694,-0.6996,-0.6692,0.0,0.0,0.0,0.0,0.0,0.0,0.0,0.0,0.0,0.0,0.0,-0.2937,0.0,0.0,0.0,0.0,-0.5664,-0.6732,-0.7593,-0.7924,0.0,0.0,0.0,0.0,0.0,0.0,0.0,-1.0449,-1.0986,-1.1768,-1.2969,-1.3453,-1.3659,-1.3668,-1.3899,-1.4075,-1.4023,0.0,-1.4785,-1.4785,-1.4922,-1.5039,-1.5029,-1.46,-1.4355,-1.4572,-1.4844,-1.4951,-1.4833,-1.5109,-1.5084,-1.4506,-1.4572,-1.4789,-1.4671,-1.4007,-1.3718,-1.4417,-1.4818,-1.5028,-1.5052,-1.5311,-1.5423,-0.4235,-0.4694,-0.4275,-0.414,-0.4247,-0.4291,-0.508,-0.6317,-0.6284,-0.7074,-0.8452,-0.8119,-0.791,-0.7788,-0.7298,0.0,-0.7252,-0.7252,-0.7464,-0.782,-0.7824,-0.7816,-0.7816,-0.7804,-0.771,-0.7543,-0.733,-0.7207,-0.7199,-0.711,-0.6939,-0.6729,-0.6241,-0.5973,-0.5941,-0.6102,-0.6184,-0.6236,-0.6335,-0.642,-0.642,-0.7068,-0.7315,-0.7173,-0.8042,-0.8219,-0.7582,-0.7796,-0.7717,-0.72,-0.717,-0.687,-0.6259,0.0,0.0,0.0,0.0,0.0,0.0,0.0,0.0,0.0,0.0,0.0,0.0,0.0,0.0,0.0,-0.7046,0.0,-0.9437,-0.9573,0.0,0.0,0.0,-0.9572,-0.9248,-0.9932,-1.0625,-1.1016,0.0,0.0,-1.3555,0.0,-1.4795,-1.4862,-1.4492,-1.4338,-1.4736,-1.4814,-1.4862,-1.4891,-1.5166,-1.541,-1.5371,-1.5332,-1.5303,-1.5332,-1.542,-1.5254,-1.4941,-1.4882,-1.4678,-1.4285,-1.4153,-1.4204,-1.4274,-1.4056,-1.4115,-1.482,-1.4994,-1.5028,-1.5017,-1.5017,-1.5017,-0.4604,-0.4894,-0.4718,-0.4581,-0.4572,-0.5027,-0.5459,-0.5849,-0.6383,-0.7005,-0.7661,-0.7585,-0.7693,-0.7947,-0.7817,-0.7784,-0.7825,-0.7825,-0.787,-0.7951,-0.7951,-0.7955,-0.7947,-0.7861,-0.7775,-0.7722,-0.7508,-0.7423,-0.7419,-0.7378,-0.7269,-0.7102,-0.6968,-0.6704,-0.6302,-0.6224,-0.6245,-0.6351,-0.6363,-0.642,-0.642,-0.6581,-0.6706,-0.6817,-0.7484,-0.7816,-0.7823,-0.8125,-0.8129,-0.7734,-0.7708,-0.7354,-0.654,-0.6182,0.0,0.0,0.0,0.0,0.0,0.0,0.0,0.0,0.0,-0.4907,-0.4177,0.0,-0.6918,0.0,-0.8534,-0.9153,-0.915,-0.9425,0.0,0.0,-1.0342,-1.0673,-1.0948,-1.1445,-1.1911,-1.2363,-1.2993,-1.3643,-1.4385,-1.4658,-1.493,-1.5215,-1.5166,-1.5029,-1.4844,-1.5068,-1.5264,-1.5264,-1.5342,-1.542,-1.542,-1.542,-1.542,-1.542,-1.542,-1.5371,-1.5283,-1.5264,-1.5127,-1.4727,-1.4629,-1.4566,-1.4363,-1.4017,-1.3922,-1.4261,-1.4458,-1.4558,-1.4558,-1.4558,-1.4455,-0.4825,-0.5024,-0.4934,-0.4839,-0.4798,-0.5094,-0.5463,-0.58,-0.6136,-0.6838,-0.7788,-0.7971,-0.816,-0.833,-0.8292,-0.826,-0.826,-0.826,-0.826,-0.826,-0.8264,-0.8215,-0.813,-0.7959,-0.7873,-0.7792,-0.7612,-0.7518,-0.7518,-0.7518,-0.7431,-0.7338,-0.7261,-0.7042,-0.6747,-0.6518,-0.644,-0.6504,-0.6428,-0.642,-0.642,-0.6339,-0.6318,-0.6371,-0.6831,-0.7252,-0.7547,-0.7955,-0.8112,-0.7908,-0.8032,-0.7776,-0.7048,-0.672,-0.6371,0.0,0.0,0.0,0.0,0.0,0.0,0.0,0.0,0.0,0.0,0.0,-0.7714,-0.8747,-0.9487,-1.0059,-1.039,-1.0634,-1.0868,-1.1123,-1.1533,-1.1907,-1.2152,-1.2529,-1.2959,-1.3389,-1.3809,-1.4258,-1.4745,-1.497,-1.5146,-1.5381,-1.542,-1.5332,-1.5137,-1.5273,-1.542,-1.542,-1.542,-1.542,-1.542,-1.542,-1.542,-1.542,-1.542,-1.542,-1.542,-1.542,-1.5303,-1.5117,-1.5068,-1.5,-1.482,-1.4555,-1.4426,-1.452,-1.4451,-1.4286,-1.4089,-1.4046,-1.3928,-0.475,-0.4957,-0.4974,-0.4981,-0.5019,-0.4885,-0.5196,-0.5834,-0.5738,-0.6563,-0.8076,-0.8559,-0.8775,-0.8808,-0.869,-0.8616,-0.8616,-0.8616,-0.8616,-0.8616,-0.8616,-0.8483,-0.8316,-0.8113,-0.7935,-0.7824,-0.762,-0.7518,-0.7518,-0.7518,-0.7518,-0.7476,-0.733,-0.7261,-0.7244,-0.6928,-0.6733,-0.666,-0.6468,-0.642,-0.642,-0.6294,-0.6118,-0.5922,-0.6316,-0.6708,-0.7095,-0.7581,-0.7877,-0.7957,-0.8237,-0.8141,-0.7578,-0.7281,-0.7136,0.0,-0.6637,0.0,0.0,0.0,0.0,0.0,0.0,0.0,0.0,-0.7486,-0.8414,-0.9657,-1.0157,-1.0884,-1.2018,-1.2174,-1.2223,-1.2291,-1.2705,-1.3003,-1.3047,-1.3418,-1.3782,-1.4153,-1.46,-1.4863,-1.4921,-1.5195,-1.541,-1.542,-1.542,-1.54,-1.54,-1.54,-1.542,-1.542,-1.542,-1.542,-1.542,-1.542,-1.542,-1.542,-1.542,-1.542,-1.542,-1.542,-1.541,-1.54,-1.5391,-1.5391,-1.542,-1.5247,-1.5099,-1.4987,-1.4562,-1.4095,-1.3803,-1.3662,-1.3563,-0.4185,-0.4501,-0.4689,-0.4829,-0.5023,-0.4955,-0.5006,-0.5035,-0.5016,-0.5802,-0.7302,-0.8325,-0.8775,-0.8808,-0.8645,-0.8616,-0.8616,-0.8616,-0.8616,-0.8616,-0.8616,-0.8596,-0.8495,-0.817,-0.8,-0.7947,-0.7638,-0.7518,-0.7518,-0.7518,-0.7518,-0.7518,-0.7452,-0.7435,-0.7423,0.0,0.0,0.0,-0.6407,-0.642,-0.642,-0.6384,-0.6213,-0.5935,-0.6412,0.0,-0.7074,-0.7414,-0.7803,-0.8272,-0.8368,0.0,0.0,0.0,0.0,0.0,0.0,0.0,0.0,0.0,0.0,0.0,-0.7802,-0.7675,-0.7656,-0.9067,-1.0178,-1.0536,-1.0942,-1.1326,-1.1677,-1.2021,-1.235,-1.2734,-1.3145,-1.3525,-1.3831,-1.4277,-1.458,-1.4648,-1.5029,-1.5293,-1.5293,-1.5371,-1.542,-1.542,-1.542,-1.542,-1.542,-1.542,-1.542,-1.542,-1.542,-1.542,-1.542,-1.542,-1.542,-1.542,-1.542,-1.542,-1.542,-1.542,-1.542,-1.542,-1.542,-1.542,-1.541,-1.5135,-1.4826,-1.4525,-1.4128,-1.3867,-1.3956,-1.3689,-1.3443,-0.3788,0.0,-0.4072,-0.4181,0.0,-0.4332,-0.438,-0.4442,-0.4704,-0.5655,-0.7168,-0.8106,-0.8664,-0.8946,-0.8771,-0.8645,-0.8616,-0.8616,-0.8616,-0.8616,-0.8616,-0.8616,-0.86,-0.828,-0.8097,-0.8004,-0.7748,-0.7608,-0.7522,-0.7518,-0.7518,-0.7518,-0.7518,-0.7518,-0.7476,-0.7224,-0.6915,-0.6558,-0.6465,-0.642,-0.6416,-0.6331,-0.6192,-0.5931,0.0,0.0,0.0,0.0,0.0,0.0,0.0,0.0,0.0,0.0,0.0,-0.8146,-0.8018,-0.7964,-0.8032,-0.8191,-0.8388,-0.8585,-0.8654,-0.8648,-0.855,-0.942,-1.0161,-1.0681,-1.1327,-1.1861,-1.2125,-1.2739,-1.3227,-1.3471,-1.3887,-1.4228,-1.4453,-1.4834,-1.5088,-1.5107,-1.5283,-1.542,-1.542,-1.542,-1.542,-1.542,-1.542,-1.542,-1.542,-1.542,-1.542,-1.542,-1.542,-1.542,-1.542,-1.542,-1.542,-1.542,-1.542,-1.542,-1.542,-1.542,-1.542,-1.542,-1.542,-1.542,-1.5381,-1.5125,-1.4838,-1.4627,-1.4208,-1.3831,-1.3892,-1.3589,-1.3324,-0.3321,-0.3471,-0.3423,-0.3451,-0.3488,-0.359,-0.3786,-0.407,0.0,0.0,0.0,-0.7823,-0.846,-0.8941,-0.8872,-0.8743,-0.8617,-0.8624,-0.8616,-0.8616,-0.8616,-0.8616,-0.8604,-0.8377,-0.8195,-0.8008,-0.7882,-0.7702,-0.7522,-0.7518,-0.7518,-0.7518,-0.7518,-0.7518,-0.746,-0.7167,-0.6918,-0.6771,-0.653,-0.642,-0.6416,-0.6302,-0.6143,-0.5971,-0.5758,-0.6056,-0.6964,-0.709,-0.7566,-0.8332,-0.8498,-0.8556,-0.8524,-0.8502,-0.8685,-0.9086,-0.9061,-0.9061,-0.9177,-0.9328,-0.9249,-0.8858,-0.9178,-0.9341,-0.9283,-0.9384,-0.9771,-1.058,-1.1459,-1.2125,-1.257,-1.3404,-1.3972,-1.405,-1.4488,-1.4833,-1.493,-1.5186,-1.54,-1.542,-1.541,-1.542,-1.542,-1.542,-1.542,-1.542,-1.542,-1.542,-1.542,-1.542,-1.542,-1.542,-1.542,-1.542,-1.542,-1.542,-1.542,-1.542,-1.542,-1.542,-1.542,-1.542,-1.542,-1.542,-1.542,-1.542,-1.5391,-1.5154,-1.4943,-1.4864,-1.4291,-1.3786,-1.3581,-1.3352,-1.319,-0.2574,-0.2861,-0.3075,-0.3267,-0.3491,-0.3476,-0.3543,-0.3796,-0.5192,-0.5942,-0.6234,-0.7628,-0.8227,-0.8335,-0.8644,-0.8808,-0.8775,-0.8682,-0.8616,0.0,-0.8616,-0.8616,-0.86,-0.842,-0.8195,-0.8008,-0.7841,-0.7706,-0.7539,-0.7518,-0.7518,-0.7518,-0.7518,-0.7518,-0.749,-0.7167,-0.698,-0.6978,-0.6587,-0.642,-0.642,-0.6396,-0.6294,-0.6143,-0.5967,-0.6087,-0.6582,-0.7133,-0.7728,-0.8386,-0.8838,-0.9091,-0.9078,-0.8851,-0.8791,-0.8857,-0.8962,-0.904,-0.9207,-0.9347,-0.9429,-0.9486,-0.9782,-0.9776,-0.9274,-0.9695,-1.0227,-1.0804,-1.1261,-1.1704,-1.2223,-1.2913,-1.3507,-1.3839,-1.4401,-1.4922,-1.5196,-1.5332,-1.5352,-1.5362,-1.542,-1.5381,-1.5362,-1.5362,-1.5352,-1.5381,-1.5381,-1.542,-1.542,-1.542,-1.542,-1.542,-1.542,-1.542,-1.542,-1.542,-1.542,-1.542,-1.542,-1.542,-1.542,-1.542,-1.542,-1.542,-1.542,-1.542,-1.54,-1.5107,-1.4772,-1.4412,-1.3949,-1.3543,-1.3233,-1.3091,-1.3052,-0.2075,-0.2244,-0.2355,-0.2456,-0.2598,-0.28,-0.3044,-0.3326,-0.425,-0.5135,-0.5832,-0.6677,-0.7443,-0.8183,-0.8375,-0.8583,-0.8771,-0.8739,-0.8653,-0.8616,-0.8616,-0.8616,-0.8608,-0.8479,-0.8292,-0.802,-0.7939,-0.7756,-0.7543,-0.7518,-0.7518,-0.7518,-0.7518,-0.7518,-0.7494,-0.7167,-0.6984,-0.698,-0.6603,-0.642,-0.642,-0.642,-0.6335,-0.6215,-0.6098,-0.6241,-0.6578,-0.6841,-0.7378,-0.8245,-0.8586,-0.8899,-0.9183,-0.9265,-0.9306,-0.939,-0.9473,-0.948,-0.9477,-0.9544,-0.9617,-0.9765,-1.004,-1.014,-0.9972,-1.0199,-1.0472,-1.0758,-1.1303,-1.1823,-1.209,-1.286,-1.3415,-1.3611,-1.3922,-1.415,-1.4385,-1.4726,-1.4913,-1.4913,-1.4922,-1.4903,-1.4913,-1.4913,-1.4913,-1.4942,-1.5147,-1.5381,-1.542,-1.542,-1.542,-1.542,-1.542,-1.542,-1.542,-1.542,-1.542,-1.542,-1.542,-1.542,-1.542,-1.542,-1.542,-1.542,-1.542,-1.542,-1.541,-1.5078,-1.4746,-1.4551,-1.4114,-1.3753,-1.3578,-1.3539,-1.3537,-0.1795,-0.1795,-0.1795,-0.1791,-0.1836,-0.216,-0.2478,-0.2745,-0.3151,-0.3929,-0.4933,-0.5639,-0.6682,-0.7907,-0.8115,-0.8466,-0.8814,-0.884,-0.8731,-0.8624,-0.8616,-0.8616,-0.8616,-0.8616,-0.8394,-0.8097,-0.8036,-0.7854,-0.7573,-0.7543,-0.7518,-0.7518,-0.7518,-0.7518,-0.7514,-0.7167,-0.6984,-0.6963,-0.6599,-0.642,-0.642,-0.642,-0.6347,-0.6253,-0.6232,-0.6324,-0.6566,-0.6587,-0.7052,-0.8051,-0.8303,-0.8642,-0.9162,-0.9392,-0.9543,-0.9628,-0.9778,-0.9871,-0.982,-0.9813,-0.9834,-0.9945,-1.0201,-1.0458,-1.0617,-1.0741,-1.0741,-1.0806,-1.1433,-1.19,-1.2013,-1.2707,-1.326,-1.326,-1.342,-1.3554,-1.3571,-1.3962,-1.435,-1.444,-1.438,-1.4312,-1.444,-1.438,-1.435,-1.4558,-1.503,-1.5381,-1.542,-1.542,-1.542,-1.542,-1.542,-1.542,-1.542,-1.542,-1.542,-1.542,-1.542,-1.542,-1.542,-1.542,-1.542,-1.542,-1.542,-1.542,-1.5381,-1.5078,-1.4824,-1.4707,-1.4358,-1.4085,-1.4046,-1.4036,-1.4023,-0.1795,-0.1795,-0.1795,-0.1779,-0.1808,-0.1772,-0.1951,-0.2176,-0.239,-0.2674,-0.3278,-0.4883,-0.6232,-0.7301,-0.7921,-0.8486,-0.9005,-0.8897,-0.8731,-0.8624,-0.8616,-0.8616,-0.8616,-0.8616,-0.8502,-0.8251,-0.8089,-0.791,-0.7743,-0.7553,-0.7518,-0.7518,-0.7518,-0.7518,-0.7482,-0.7167,-0.6984,-0.698,-0.6599,-0.642,-0.642,-0.642,-0.6412,-0.6359,-0.6265,-0.6203,-0.6272,-0.6645,-0.7161,-0.7784,-0.8206,-0.8648,-0.9121,-0.9038,-0.8911,-0.8985,-0.9434,-0.9861,-1.0182,-1.013,-1.0057,-1.0107,-1.0373,-1.0645,-1.0772,-1.1045,-1.118,-1.1158,-1.141,-1.1634,-1.1671,-1.2235,-1.2581,-1.2634,-1.307,-1.348,-1.342,-1.358,-1.3803,-1.444,-1.3893,-1.3812,-1.4172,-1.3902,-1.3842,-1.4321,-1.4815,-1.5177,-1.5206,-1.5206,-1.5206,-1.5294,-1.5352,-1.5352,-1.5381,-1.542,-1.542,-1.542,-1.542,-1.542,-1.542,-1.542,-1.542,-1.542,-1.542,-1.542,-1.5332,-1.5088,-1.4834,-1.4834,-1.4533,-1.4136,-1.4124,-1.4182,-1.4163,-0.1795,-0.1795,-0.1795,-0.1788,-0.1771,-0.1725,-0.175,-0.1892,-0.2096,-0.2322,-0.2674,-0.3731,-0.4885,-0.6079,-0.697,-0.7714,-0.8395,-0.8787,-0.8828,-0.8629,-0.8616,-0.8616,-0.8616,-0.8616,-0.8457,-0.8142,-0.8048,-0.787,-0.7665,-0.7555,-0.7518,-0.7518,-0.7518,-0.7518,-0.7494,-0.7167,-0.6984,-0.698,-0.6599,-0.642,-0.642,-0.642,-0.642,-0.6379,-0.6343,-0.6306,-0.6322,-0.6442,-0.6925,-0.7832,-0.8162,-0.8705,-0.9672,-0.9806,-0.9876,-0.9883,-0.9893,-1.0017,-1.0191,-1.012,-1.0141,-1.026,-1.0543,-1.0808,-1.0963,-1.1114,-1.1152,-1.116,-1.1418,-1.1591,-1.1622,-1.1825,-1.1981,-1.1981,-1.2228,-1.2382,-1.2382,-1.2704,-1.3031,-1.3274,-1.307,-1.2978,-1.3221,-1.3061,-1.3191,-1.3743,-1.4163,-1.4369,-1.4312,-1.4282,-1.4282,-1.4282,-1.4282,-1.4638,-1.5177,-1.542,-1.541,-1.541,-1.542,-1.542,-1.542,-1.542,-1.542,-1.542,-1.542,-1.542,-1.542,-1.5322,-1.5146,-1.5088,-1.5088,-1.4864,-1.4883,-1.4864,-1.4864,-0.1795,-0.1795,-0.1795,-0.1795,-0.1789,-0.173,-0.1704,-0.175,-0.1847,-0.1969,-0.2221,-0.2725,-0.358,-0.4732,-0.5932,-0.6988,-0.79,-0.8485,-0.8718,-0.8597,-0.8616,-0.8616,-0.8616,-0.8612,-0.8426,-0.8187,-0.8061,-0.7829,-0.7555,-0.7518,-0.7518,-0.7518,-0.7518,-0.7518,-0.7443,-0.7167,-0.6984,-0.6955,-0.6633,-0.642,-0.642,-0.642,-0.642,-0.642,-0.642,-0.642,-0.6416,-0.6273,-0.6643,-0.7664,-0.7942,-0.8575,-0.9609,-1.0109,-1.0385,-1.0445,-1.0241,-1.0154,-1.0234,-1.0241,-1.0302,-1.0438,-1.0635,-1.0807,-1.0965,-1.1028,-1.1028,-1.1115,-1.131,-1.1466,-1.1529,-1.1529,-1.1529,-1.1591,-1.156,-1.1529,-1.1654,-1.2035,-1.2336,-1.2451,-1.2397,-1.2274,-1.2305,-1.2428,-1.2765,-1.313,-1.3475,-1.3557,-1.3523,-1.3618,-1.3678,-1.3536,-1.3511,-1.3953,-1.4913,-1.5089,-1.5177,-1.5381,-1.542,-1.542,-1.542,-1.542,-1.542,-1.542,-1.542,-1.542,-1.542,-1.54,-1.5391,-1.541,-1.5391,-1.5371,-1.5303,-1.5391,-1.5391,-0.1795,-0.1795,-0.1795,-0.1795,-0.179,-0.1731,-0.1705,-0.17,-0.1643,-0.1618,-0.1768,-0.2221,-0.2775,-0.343,-0.4933,-0.645,-0.7712,-0.7969,-0.8215,-0.85,-0.8568,-0.8616,-0.8616,-0.8616,-0.8596,-0.8446,-0.8174,-0.7849,-0.7551,-0.7522,-0.7518,-0.7518,-0.7518,-0.7518,-0.7439,-0.718,-0.6992,-0.6951,-0.6615,-0.6391,-0.642,-0.642,-0.642,-0.642,-0.642,-0.642,-0.6404,-0.6278,-0.6495,-0.7024,-0.7557,-0.8119,-0.8681,-0.9372,-0.9854,-1.0066,-1.0117,-1.0241,-1.0512,-1.0546,-1.0546,-1.0591,-1.0598,-1.0688,-1.0807,-1.0839,-1.0884,-1.1073,-1.1104,-1.1185,-1.1336,-1.1346,-1.1418,-1.1565,-1.1426,-1.1433,-1.1597,-1.1725,-1.1934,-1.2259,-1.2072,-1.1853,-1.1753,-1.2158,-1.2444,-1.2771,-1.337,-1.3768,-1.3495,-1.3675,-1.367,-1.3506,-1.3449,-1.3722,-1.4359,-1.4677,-1.4883,-1.5118,-1.5274,-1.541,-1.542,-1.542,-1.542,-1.542,-1.542,-1.542,-1.542,-1.541,-1.541,-1.542,-1.542,-1.541,-1.542,-1.542,-1.542,-0.1795,-0.1795,-0.1795,-0.1795,-0.179,-0.175,-0.1722,-0.1701,-0.1663,-0.1635,-0.1669,-0.1969,-0.2424,-0.2977,-0.388,-0.5076,-0.647,-0.7446,-0.7887,-0.7963,-0.8384,-0.8616,-0.8616,-0.8612,-0.8543,-0.8381,-0.8251,-0.8008,-0.7718,-0.7584,-0.7518,-0.7518,-0.7518,-0.7518,-0.7439,-0.7248,-0.711,-0.6975,-0.6712,-0.6542,-0.6399,-0.642,-0.642,-0.642,-0.642,-0.642,-0.642,-0.6351,-0.6638,-0.7283,-0.7521,-0.7892,-0.8513,-0.9203,-0.9618,-0.9744,-1.0176,-1.0479,-1.0573,-1.0586,-1.0586,-1.0586,-1.0586,-1.0631,-1.0649,-1.0688,-1.0787,-1.0987,-1.096,-1.1072,-1.1414,-1.1336,-1.127,-1.1472,-1.1482,-1.152,-1.1755,-1.1904,-1.2069,-1.2229,-1.2006,-1.1933,-1.205,-1.2178,-1.2262,-1.249,-1.2823,-1.2979,-1.2933,-1.3003,-1.3068,-1.2879,-1.2693,-1.2767,-1.3449,-1.4177,-1.4627,-1.4834,-1.503,-1.5264,-1.5352,-1.5332,-1.5332,-1.542,-1.542,-1.542,-1.542,-1.542,-1.542,-1.542,-1.542,-1.542,-1.542,-1.542,-1.542,-0.1795,-0.1795,-0.1795,-0.1795,-0.1791,-0.1817,-0.1787,-0.1703,-0.1727,-0.1645,-0.1672,-0.1869,-0.2324,-0.2774,-0.3176,-0.3866,-0.5042,-0.6715,-0.7497,-0.7619,-0.828,-0.8616,-0.8616,-0.8616,-0.8547,-0.8373,-0.8247,-0.804,-0.7808,-0.7612,-0.7522,-0.7518,-0.7518,-0.7518,-0.749,-0.7309,-0.7135,-0.6992,-0.6816,-0.6607,-0.6444,-0.642,-0.642,-0.642,-0.642,-0.642,-0.642,-0.642,-0.6609,-0.7068,-0.7363,-0.7809,-0.8458,-0.8941,-0.9262,-0.9524,-0.9939,-1.0364,-1.0555,-1.0586,-1.0586,-1.0586,-1.0593,-1.062,-1.0707,-1.0734,-1.0874,-1.1035,-1.1041,-1.1201,-1.1438,-1.1367,-1.1314,-1.156,-1.1595,-1.1671,-1.1866,-1.203,-1.2084,-1.2082,-1.2007,-1.2073,-1.2236,-1.21,-1.214,-1.2369,-1.2497,-1.2548,-1.2514,-1.2587,-1.2553,-1.2424,-1.2354,-1.236,-1.2732,-1.3308,-1.3869,-1.4165,-1.441,-1.4756,-1.5177,-1.5147,-1.5274,-1.5362,-1.542,-1.542,-1.542,-1.542,-1.542,-1.542,-1.542,-1.542,-1.542,-1.542,-1.542,-0.1795,-0.1795,-0.1795,-0.1795,-0.1791,-0.1821,-0.1734,-0.1706,-0.173,-0.165,-0.1676,-0.1871,-0.2222,-0.2676,-0.2825,-0.3095,-0.3922,-0.5671,-0.6768,-0.7245,-0.8068,-0.8448,-0.8436,-0.8524,-0.8608,-0.8567,-0.8199,-0.7951,-0.782,-0.7645,-0.7543,-0.7522,-0.7518,-0.7518,-0.7518,-0.7326,-0.7151,-0.7016,-0.6849,-0.6623,-0.6444,-0.6395,-0.642,-0.642,-0.642,-0.642,-0.642,-0.642,-0.642,-0.6519,-0.7068,-0.7782,-0.8199,-0.8458,-0.8748,-0.923,-0.9454,-0.9843,-1.0428,-1.0491,-1.0491,-1.06,-1.06,-1.0734,-1.0928,-1.0975,-1.1116,-1.1356,-1.1383,-1.1423,-1.1463,-1.1464,-1.1533,-1.1826,-1.1771,-1.1758,-1.1888,-1.1929,-1.1922,-1.1963,-1.2004,-1.1949,-1.1956,-1.199,-1.2086,-1.2322,-1.2528,-1.2684,-1.2608,-1.2765,-1.2709,-1.2432,-1.231,-1.2345,-1.2358,-1.2451,-1.2931,-1.3339,-1.3636,-1.3953,-1.4549,-1.4765,-1.5069,-1.5216,-1.5391,-1.542,-1.542,-1.542,-1.542,-1.542,-1.542,-1.542,-1.542,-1.542,-1.542,-0.1795,-0.1795,-0.1795,-0.1795,-0.1794,-0.1785,-0.1763,-0.1787,-0.1704,-0.1675,-0.1699,-0.1727,-0.192,-0.2222,-0.2473,-0.2716,-0.3146,-0.4401,-0.5045,-0.5356,-0.653,-0.7269,-0.7462,-0.8025,-0.8432,-0.8528,-0.8325,-0.8113,-0.7931,-0.7796,-0.7657,-0.7508,-0.7518,-0.7518,-0.7518,-0.7423,-0.7317,-0.7139,-0.6964,-0.6824,-0.6611,-0.6448,-0.6424,-0.642,-0.642,-0.642,-0.642,-0.642,-0.642,-0.642,-0.6609,-0.6839,-0.7097,-0.7554,-0.7879,-0.8139,-0.8587,-0.9102,-0.9709,-0.9869,-1.0104,-1.0499,-1.0767,-1.0882,-1.1002,-1.1189,-1.1416,-1.165,-1.1563,-1.1557,-1.1897,-1.1837,-1.1814,-1.1913,-1.1871,-1.1916,-1.2123,-1.2256,-1.2427,-1.2549,-1.2389,-1.2361,-1.2465,-1.2381,-1.2291,-1.2564,-1.2741,-1.277,-1.282,-1.2849,-1.2927,-1.2727,-1.2586,-1.2352,-1.2253,-1.2123,-1.2295,-1.2649,-1.2894,-1.3268,-1.3833,-1.441,-1.4706,-1.5098,-1.5303,-1.5391,-1.5391,-1.5332,-1.5294,-1.5391,-1.542,-1.542,-1.542,-1.542,-1.542,-0.1795,-0.1795,-0.1795,-0.1795,-0.1795,-0.1795,-0.1771,-0.1734,-0.1713,-0.1682,-0.1646,-0.1626,-0.1768,-0.197,-0.207,-0.2271,-0.252,-0.3035,-0.3199,-0.3415,-0.5073,-0.6139,-0.6745,-0.7709,-0.8292,-0.8396,-0.8334,-0.8195,-0.8016,-0.7841,-0.7706,-0.7551,-0.7518,-0.7518,-0.7518,-0.7514,-0.7399,-0.7195,-0.7106,-0.6971,-0.6725,-0.6578,-0.6485,-0.6399,-0.642,-0.642,-0.642,-0.642,-0.642,-0.642,-0.642,-0.642,-0.6453,-0.6872,-0.7199,-0.7521,-0.7907,-0.8522,-0.9326,-0.955,-0.9811,-1.0481,-1.0828,-1.1049,-1.1169,-1.1423,-1.171,-1.1931,-1.1884,-1.1862,-1.2191,-1.2151,-1.2037,-1.2024,-1.2067,-1.2111,-1.2308,-1.2409,-1.2512,-1.2567,-1.2458,-1.2514,-1.2556,-1.2549,-1.2459,-1.2712,-1.2783,-1.2856,-1.2863,-1.2915,-1.2856,-1.2835,-1.2732,-1.2423,-1.2089,-1.1942,-1.1759,-1.1949,-1.2154,-1.2607,-1.3122,-1.3743,-1.4201,-1.4883,-1.5235,-1.5206,-1.5206,-1.503,-1.4971,-1.5147,-1.5352,-1.542,-1.542,-1.542,-1.542,-0.1795,-0.1795,-0.1795,-0.1795,-0.1795,-0.1795,-0.1764,-0.1715,-0.1705,-0.1675,-0.1631,-0.162,-0.1718,-0.1869,-0.1768,-0.1819,-0.192,-0.1866,-0.1825,-0.2242,-0.3685,-0.5072,-0.6166,-0.7353,-0.7889,-0.8042,-0.8225,-0.8181,-0.8057,-0.7886,-0.7722,-0.7537,-0.75,-0.7518,-0.7518,-0.7518,-0.7407,-0.7285,-0.7228,-0.7009,-0.6765,-0.668,-0.6603,-0.6457,-0.6432,-0.642,-0.642,-0.642,-0.642,-0.642,-0.642,-0.642,-0.642,-0.642,-0.6773,-0.7297,-0.7428,-0.8069,-0.9,-0.916,-0.9612,-1.0386,-1.0764,-1.1142,-1.1402,-1.1724,-1.1984,-1.2218,-1.2238,-1.2258,-1.2291,-1.2278,-1.2271,-1.2291,-1.2258,-1.2278,-1.2298,-1.2305,-1.2342,-1.2342,-1.2298,-1.2298,-1.2372,-1.2315,-1.2432,-1.2519,-1.2562,-1.2636,-1.2753,-1.2753,-1.2753,-1.2689,-1.2611,-1.2425,-1.2066,-1.2005,-1.1826,-1.1678,-1.1844,-1.2236,-1.2808,-1.341,-1.3812,-1.4499,-1.4942,-1.4971,-1.4854,-1.4558,-1.4677,-1.4971,-1.5147,-1.5323,-1.542,-1.541,-1.5391,-0.1795,-0.1795,-0.1795,-0.1795,-0.1795,-0.1795,-0.1774,-0.179,-0.1713,-0.1683,-0.165,-0.1626,-0.1617,-0.1718,-0.1617,-0.1667,-0.1667,-0.1615,-0.1584,-0.158,-0.2039,-0.3465,-0.5029,-0.6284,-0.6997,-0.7214,-0.7833,-0.8221,-0.8215,-0.7983,-0.7845,-0.7722,-0.7541,-0.748,-0.7518,-0.7484,-0.7502,-0.7403,-0.7281,-0.7159,-0.7025,-0.6806,-0.6664,-0.6623,-0.6497,-0.6432,-0.6424,-0.642,-0.642,-0.642,-0.642,-0.642,-0.642,-0.642,-0.6515,-0.6683,-0.6778,-0.7068,-0.7842,-0.8079,-0.8695,-0.9978,-1.0459,-1.0908,-1.173,-1.2017,-1.2204,-1.2305,-1.2305,-1.2305,-1.2305,-1.2305,-1.2305,-1.2305,-1.2305,-1.2305,-1.2305,-1.2305,-1.2305,-1.2305,-1.2305,-1.2305,-1.2305,-1.2305,-1.2335,-1.2378,-1.2415,-1.2415,-1.2526,-1.2532,-1.2489,-1.2452,-1.2368,-1.2213,-1.2072,-1.2033,-1.1864,-1.1594,-1.1734,-1.2087,-1.2766,-1.3546,-1.3748,-1.4043,-1.4252,-1.4341,-1.4073,-1.3782,-1.4192,-1.4579,-1.4706,-1.4765,-1.5235,-1.5381,-1.5381,-0.1795,-0.1795,-0.1795,-0.1795,-0.1795,-0.1795,-0.1771,-0.1733,-0.1712,-0.1681,-0.1645,-0.1625,-0.1566,-0.1566,-0.1566,-0.1566,-0.1565,-0.1604,-0.1571,-0.1529,-0.1544,-0.2471,-0.3995,-0.5312,-0.6113,-0.6428,-0.7401,-0.7748,-0.7723,-0.781,-0.7764,-0.7505,-0.7418,-0.7377,-0.7369,-0.7484,-0.7518,-0.7502,-0.7378,-0.7305,-0.7171,-0.7025,-0.6883,-0.6794,-0.6627,-0.6505,-0.6436,-0.642,-0.642,-0.642,-0.642,-0.642,-0.642,-0.642,-0.642,-0.642,-0.642,-0.6741,-0.7344,-0.7565,-0.8169,-0.9349,-1.007,-1.0738,-1.1371,-1.1906,-1.2305,-1.2305,-1.2305,-1.2305,-1.2305,-1.2305,-1.2305,-1.2305,-1.2305,-1.2305,-1.2305,-1.2305,-1.2305,-1.2305,-1.2305,-1.2305,-1.2305,-1.2305,-1.2305,-1.2305,-1.2305,-1.2305,-1.2342,-1.2305,-1.2305,-1.2305,-1.2305,-1.2228,-1.2174,-1.2157,-1.2116,-1.1819,-1.1777,-1.21,-1.2533,-1.3311,-1.34,-1.3475,-1.3606,-1.3653,-1.3411,-1.3299,-1.3472,-1.3765,-1.3953,-1.4312,-1.4756,-1.5021,-1.5059,-0.1795,-0.1795,-0.1795,-0.1795,-0.1795,-0.1794,-0.1762,-0.1712,-0.1705,-0.1672,-0.1628,-0.1567,-0.1566,-0.1566,-0.1566,-0.1566,-0.1564,-0.1589,-0.1553,-0.1512,-0.1518,-0.2065,-0.3096,-0.4338,-0.5048,-0.5447,-0.6602,-0.6977,-0.6992,-0.735,-0.739,-0.7243,-0.723,-0.7165,-0.7184,-0.733,-0.7407,-0.7403,-0.7395,-0.7323,-0.7218,-0.7163,-0.7098,-0.6972,-0.6753,-0.6599,-0.6493,-0.644,-0.642,-0.642,-0.642,-0.642,-0.642,-0.642,-0.642,-0.642,-0.642,-0.6675,-0.7227,-0.7397,-0.7879,-0.8759,-0.9773,-1.0629,-1.0888,-1.1592,-1.212,-1.2305,-1.2305,-1.2305,-1.2305,-1.2305,-1.2305,-1.2305,-1.2305,-1.2305,-1.2305,-1.2305,-1.2305,-1.2305,-1.2305,-1.2305,-1.2305,-1.2305,-1.2305,-1.2305,-1.2305,-1.2305,-1.2305,-1.2305,-1.2305,-1.2305,-1.2305,-1.2305,-1.2285,-1.2278,-1.2258,-1.2151,-1.2085,-1.2199,-1.2244,-1.2703,-1.2838,-1.2929,-1.2979,-1.3028,-1.2964,-1.2934,-1.2864,-1.307,-1.3342,-1.3773,-1.4201,-1.4312,-1.441,-0.1795,-0.1795,-0.1795,-0.1795,-0.1795,-0.1793,-0.1761,-0.1705,-0.1704,-0.1671,-0.1626,-0.1566,-0.1566,-0.1566,-0.1566,-0.1566,-0.1562,-0.1582,-0.1544,-0.1489,-0.1408,-0.1616,-0.2242,-0.3135,-0.3534,-0.4022,-0.4779,-0.565,-0.6253,-0.6444,-0.679,-0.7219,-0.6998,-0.707,-0.6995,-0.7019,-0.7019,-0.7057,-0.718,-0.7242,-0.7221,-0.7185,-0.7175,-0.7131,-0.6871,-0.67,-0.6619,-0.6497,-0.6424,-0.6424,-0.6428,-0.644,-0.6424,-0.642,-0.6428,-0.644,-0.6403,-0.6494,-0.6655,-0.6946,-0.7332,-0.8238,-0.8821,-0.9516,-1.0941,-1.1137,-1.1669,-1.2083,-1.2305,-1.2231,-1.2305,-1.2305,-1.2305,-1.2305,-1.2305,-1.2305,-1.2305,-1.2305,-1.2305,-1.2305,-1.2305,-1.2305,-1.2305,-1.2305,-1.2305,-1.2305,-1.2305,-1.2305,-1.2305,-1.2305,-1.2305,-1.2305,-1.2305,-1.2305,-1.2305,-1.2305,-1.2305,-1.2305,-1.2271,-1.2236,-1.227,-1.2205,-1.24,-1.2384,-1.2328,-1.236,-1.2398,-1.2197,-1.2104,-1.2436,-1.2765,-1.313,-1.3442,-1.3593,-1.3872,-0.1795,-0.1795,-0.1795,-0.1795,-0.1795,-0.1793,-0.1761,-0.1712,-0.1704,-0.1671,-0.1626,-0.1566,-0.1566,-0.1566,-0.1566,-0.1566,-0.1556,-0.1569,-0.1517,-0.1468,-0.1396,-0.1481,-0.1615,-0.2017,-0.2419,-0.291,-0.3848,-0.4601,-0.5017,-0.5331,-0.5678,-0.6357,-0.634,-0.6462,-0.6771,-0.6826,-0.6903,-0.6942,-0.6984,-0.7103,-0.7199,-0.7217,-0.7214,-0.7195,-0.7037,-0.6915,-0.6849,-0.6733,-0.6684,-0.6647,-0.6587,-0.6493,-0.6399,-0.6424,-0.6428,-0.6538,-0.655,-0.6599,-0.6714,-0.6865,-0.7164,-0.7717,-0.8194,-0.8963,-0.9873,-1.0282,-1.0689,-1.1136,-1.1477,-1.1818,-1.2231,-1.2305,-1.2305,-1.2305,-1.2305,-1.2305,-1.2305,-1.2305,-1.2305,-1.2305,-1.2305,-1.2305,-1.2305,-1.2305,-1.2305,-1.2305,-1.2305,-1.2305,-1.2305,-1.2305,-1.2305,-1.2305,-1.2305,-1.2305,-1.2305,-1.2305,-1.2305,-1.2305,-1.2278,-1.2254,-1.229,-1.2158,-1.2032,-1.2003,-1.1958,-1.177,-1.1735,-1.1541,-1.1575,-1.1864,-1.2228,-1.2497,-1.2734,-1.2948,-1.3282,-0.1795,-0.1795,-0.1795,-0.1795,-0.1794,-0.1789,-0.1755,-0.1708,-0.1699,-0.1665,-0.1625,-0.1566,-0.1566,-0.1566,-0.1566,-0.1564,-0.1539,-0.1506,-0.1499,-0.1399,-0.1393,-0.1436,-0.148,-0.157,-0.1794,-0.2378,-0.3001,-0.34,-0.3694,-0.3991,-0.4689,-0.5196,-0.5388,-0.5903,-0.645,-0.6676,-0.6753,-0.6753,-0.683,-0.6907,-0.7065,-0.7126,-0.7209,-0.7268,-0.7204,-0.7119,-0.7045,-0.698,-0.6959,-0.698,-0.6837,-0.6652,-0.6538,-0.6473,-0.6542,-0.6717,-0.6733,-0.6781,-0.6926,-0.707,-0.7196,-0.7269,-0.7941,-0.8528,-0.8884,-0.9377,-0.9787,-1.0239,-1.0726,-1.1446,-1.2009,-1.2231,-1.2268,-1.2305,-1.2305,-1.2305,-1.2305,-1.2305,-1.2305,-1.2305,-1.2305,-1.2305,-1.2305,-1.2305,-1.2305,-1.2305,-1.2305,-1.2305,-1.2305,-1.2305,-1.2305,-1.2305,-1.2305,-1.2305,-1.2305,-1.2305,-1.2305,-1.2305,-1.2305,-1.2291,-1.2265,-1.2218,-1.2061,-1.1723,-1.1621,-1.1509,-1.1475,-1.1535,-1.158,-1.1587,-1.1709,-1.2042,-1.222,-1.2328,-1.2681,-0.1795,-0.1795,-0.1795,-0.1795,-0.179,-0.1824,-0.1737,-0.1703,-0.1733,-0.165,-0.162,-0.1566,-0.1566,-0.1566,-0.1566,-0.1541,-0.1554,-0.148,-0.1447,-0.1399,-0.1391,-0.1391,-0.1391,-0.1391,-0.1525,-0.1525,-0.1928,-0.233,-0.2867,-0.3161,-0.4002,-0.5018,-0.533,-0.5708,-0.6214,-0.6377,-0.6447,-0.649,-0.6602,-0.6679,-0.6795,-0.7022,-0.7242,-0.7365,-0.7276,-0.7199,-0.7167,-0.7073,-0.6984,-0.6984,-0.6955,-0.6931,-0.6878,-0.6767,-0.6788,-0.6898,-0.6951,-0.6984,-0.7065,-0.7139,-0.7179,-0.7261,-0.7572,-0.8084,-0.8508,-0.8813,-0.915,-0.9825,-1.0432,-1.1111,-1.1267,-1.1706,-1.2194,-1.2231,-1.2194,-1.2231,-1.2268,-1.2305,-1.2305,-1.2305,-1.2305,-1.2305,-1.2305,-1.2305,-1.2305,-1.2305,-1.2305,-1.2305,-1.2305,-1.2305,-1.2305,-1.2305,-1.2305,-1.2305,-1.2305,-1.2305,-1.2305,-1.2305,-1.2305,-1.2305,-1.2291,-1.2285,-1.2123,-1.1899,-1.1649,-1.1536,-1.1563,-1.1546,-1.1471,-1.1392,-1.1512,-1.1654,-1.1802,-1.195,-1.1933,-0.1795,-0.1795,-0.1795,-0.1786,-0.1825,-0.1811,-0.1778,-0.1736,-0.1719,-0.1645,-0.1624,-0.1566,-0.1566,-0.1566,-0.1566,-0.1533,-0.1492,-0.1478,-0.1444,-0.1401,-0.1391,-0.1391,-0.1391,-0.1391,-0.1391,-0.1436,-0.1436,-0.1614,-0.2151,-0.2688,-0.3513,-0.4498,-0.5058,-0.5676,-0.6238,-0.6337,-0.6306,-0.6338,-0.6412,-0.649,-0.6602,-0.6907,-0.7138,-0.7268,-0.7267,-0.7253,-0.7342,-0.7293,-0.7269,-0.7216,-0.7143,-0.7155,-0.718,-0.7118,-0.6997,-0.7074,-0.7094,-0.718,-0.7245,-0.7322,-0.7358,-0.737,-0.7443,-0.7625,-0.794,-0.8127,-0.8466,-0.915,-0.9528,-1.0056,-1.0426,-1.0875,-1.1211,-1.1589,-1.1669,-1.1892,-1.215,-1.2268,-1.2268,-1.2268,-1.2305,-1.2305,-1.2305,-1.2305,-1.2305,-1.2305,-1.2305,-1.2305,-1.2305,-1.2305,-1.2305,-1.2305,-1.2305,-1.2305,-1.2305,-1.2305,-1.2305,-1.2305,-1.2305,-1.2305,-1.2305,-1.2298,-1.2301,-1.2163,-1.196,-1.1635,-1.1374,-1.1277,-1.1234,-1.1255,-1.1392,-1.1471,-1.1481,-1.1512,-1.1587,-0.1795,-0.1795,-0.1795,-0.1777,-0.1806,-0.1797,-0.1764,-0.172,-0.1707,-0.1639,-0.1619,-0.1566,-0.1566,-0.1566,-0.1611,-0.1587,-0.1488,-0.1484,-0.1494,-0.141,-0.1393,-0.1391,-0.1391,-0.1391,-0.1391,-0.1391,-0.1391,-0.1391,-0.1614,-0.2151,-0.3046,-0.3955,-0.4755,-0.5565,-0.6185,-0.634,-0.6306,-0.63,-0.63,-0.6412,-0.6602,-0.6753,-0.6945,-0.7142,-0.7184,-0.7288,-0.7349,-0.7447,-0.7477,-0.7449,-0.7358,-0.733,-0.7427,-0.735,-0.7281,-0.7277,-0.724,-0.7362,-0.7427,-0.7502,-0.7452,-0.7456,-0.751,-0.7518,-0.7557,-0.7672,-0.7825,-0.8322,-0.8737,-0.9036,-0.9599,-0.9857,-1.0233,-1.0651,-1.0919,-1.1111,-1.17,-1.1966,-1.2083,-1.2157,-1.2231,-1.2305,-1.2305,-1.2305,-1.2305,-1.2305,-1.2305,-1.2305,-1.2305,-1.2305,-1.2305,-1.2305,-1.2305,-1.2305,-1.2305,-1.2305,-1.2305,-1.2305,-1.2305,-1.2305,-1.2305,-1.2305,-1.2271,-1.2261,-1.1946,-1.162,-1.1336,-1.1192,-1.1336,-1.1404,-1.1337,-1.1343,-1.1401,-1.1457,-1.151,-0.1795,-0.1795,-0.1794,-0.1777,-0.1801,-0.172,-0.1692,-0.1712,-0.1635,-0.1621,-0.1566,-0.1566,-0.1566,-0.1566,-0.1566,-0.1596,-0.1564,-0.1535,-0.1504,-0.1465,-0.1444,-0.1391,-0.1391,-0.1391,-0.1391,-0.1391,-0.1391,-0.1391,-0.1524,-0.1659,-0.2505,-0.3668,-0.4258,-0.4772,-0.6278,-0.6364,-0.63,-0.63,-0.63,-0.6374,-0.6563,-0.6637,-0.6753,-0.6907,-0.7065,-0.7184,-0.7257,-0.7411,-0.7484,-0.7514,-0.7502,-0.7456,-0.7514,-0.7468,-0.7456,-0.7452,-0.7456,-0.746,-0.7514,-0.7518,-0.7518,-0.7518,-0.7518,-0.7518,-0.7526,-0.7543,-0.759,-0.7599,-0.823,-0.8684,-0.8966,-0.9451,-0.9836,-1.0019,-1.0155,-1.0576,-1.111,-1.1658,-1.1802,-1.2157,-1.2268,-1.2305,-1.2305,-1.2305,-1.2305,-1.2305,-1.2305,-1.2305,-1.2305,-1.2305,-1.2305,-1.2305,-1.2305,-1.2305,-1.2305,-1.2305,-1.2305,-1.2305,-1.2305,-1.2305,-1.2305,-1.2305,-1.2305,-1.2198,-1.1924,-1.181,-1.172,-1.1641,-1.1621,-1.1503,-1.1353,-1.1319,-1.1314,-1.1377,-1.1416,-0.1334,-0.1793,-0.1776,-0.1807,-0.1722,-0.1693,-0.1663,-0.1638,-0.1623,-0.1566,-0.1566,-0.1566,-0.1566,-0.1566,-0.1566,-0.159,-0.1551,-0.1484,-0.1451,-0.1464,-0.1443,-0.1391,-0.1391,-0.1391,-0.1391,-0.1391,-0.1391,-0.1391,-0.1524,-0.2059,-0.2917,-0.3873,-0.454,-0.5393,-0.6281,-0.6417,-0.6378,-0.6327,-0.63,-0.6338,-0.6416,-0.6451,-0.6525,-0.6714,-0.683,-0.6988,-0.7142,-0.7257,-0.7369,-0.7446,-0.7518,-0.7518,-0.7518,-0.7518,-0.7518,-0.7518,-0.7518,-0.7514,-0.7518,-0.7518,-0.7518,-0.7518,-0.7518,-0.7518,-0.7539,-0.7604,-0.7665,-0.7682,-0.8049,-0.8277,-0.8317,-0.8612,-0.9044,-0.9311,-0.9443,-1.0197,-1.078,-1.117,-1.155,-1.1964,-1.2268,-1.2194,-1.2157,-1.2268,-1.2268,-1.2305,-1.2305,-1.2305,-1.2305,-1.2305,-1.2305,-1.2305,-1.2305,-1.2305,-1.2305,-1.2305,-1.2305,-1.2305,-1.2305,-1.2305,-1.2305,-1.2305,-1.2305,-1.2305,-1.2171,-1.2098,-1.2084,-1.1859,-1.1613,-1.1465,-1.1335,-1.139,-1.1434,-1.1255,-1.1326,-0.0439,-0.1493,-0.1692,-0.1721,-0.1693,-0.1723,-0.1645,-0.1619,-0.1566,-0.1566,-0.1566,-0.1566,-0.1566,-0.1566,-0.1563,-0.159,-0.154,-0.1482,-0.1448,-0.1415,-0.1394,-0.1391,-0.1391,-0.1391,-0.1391,-0.1391,-0.1391,-0.1391,-0.1615,-0.2059,-0.2767,-0.3859,-0.4039,-0.5159,-0.5978,-0.6124,-0.6037,-0.6313,-0.6347,-0.6344,-0.6355,-0.634,-0.6405,-0.65,-0.6598,-0.6756,-0.6988,-0.718,-0.7296,-0.7373,-0.748,-0.7518,-0.7518,-0.7518,-0.7518,-0.7518,-0.7518,-0.7518,-0.7518,-0.7518,-0.7518,-0.7518,-0.7518,-0.7518,-0.7496,-0.7665,-0.7767,-0.7767,-0.7857,-0.7996,-0.7996,-0.8074,-0.8371,-0.8684,-0.8896,-0.9782,-1.0458,-1.0516,-1.0772,-1.1176,-1.1483,-1.1824,-1.1898,-1.215,-1.2268,-1.2305,-1.2305,-1.2305,-1.2305,-1.2305,-1.2305,-1.2305,-1.2305,-1.2305,-1.2305,-1.2305,-1.2305,-1.2305,-1.2305,-1.2305,-1.2305,-1.2305,-1.2305,-1.2305,-1.2305,-1.2271,-1.2191,-1.1891,-1.1617,-1.1599,-1.1587,-1.1567,-1.1538,-1.1319,-1.1291,0.1029,-0.0641,-0.1387,-0.1691,-0.1719,-0.1716,-0.1644,-0.1567,-0.1566,-0.1566,-0.1566,-0.1566,-0.1566,-0.1566,-0.1564,-0.1598,-0.1566,-0.1539,-0.1506,-0.1475,-0.1451,-0.1393,-0.1391,-0.1391,-0.1391,-0.1391,-0.1391,-0.1391,-0.1436,-0.157,-0.2126,-0.2657,-0.3188,-0.4067,-0.4902,-0.5417,-0.5765,-0.6155,-0.6381,-0.6385,-0.6368,-0.6385,-0.6419,-0.6359,-0.649,-0.6641,-0.6683,-0.6953,-0.7184,-0.7257,-0.7369,-0.7484,-0.7484,-0.7518,-0.7518,-0.7518,-0.7518,-0.7518,-0.7518,-0.7518,-0.7518,-0.7518,-0.7522,-0.7535,-0.7541,-0.7512,-0.7633,-0.7841,-0.7943,-0.7975,-0.802,-0.8024,-0.823,-0.8334,-0.8647,-0.9078,-0.9517,-0.9425,-0.9727,-1.0278,-1.0758,-1.1153,-1.1321,-1.1489,-1.2109,-1.2177,-1.2305,-1.2305,-1.2305,-1.2305,-1.2305,-1.2305,-1.2305,-1.2305,-1.2305,-1.2305,-1.2305,-1.2305,-1.2305,-1.2305,-1.2305,-1.2305,-1.2305,-1.2305,-1.2305,-1.2305,-1.2298,-1.2091,-1.1937,-1.1913,-1.1848,-1.1736,-1.1614,-1.1435,-1.1495,0.1476,0.0262,-0.057,-0.1241,-0.1712,-0.1642,-0.1628,-0.1618,-0.1566,-0.1566,-0.1566,-0.1566,-0.1566,-0.1566,-0.1564,-0.16,-0.157,-0.154,-0.151,-0.148,-0.1408,-0.1393,-0.1391,-0.1391,-0.1391,-0.1391,-0.1391,-0.1391,-0.1391,-0.1391,-0.1521,-0.1908,-0.2385,-0.3403,-0.427,-0.484,-0.5425,-0.6002,-0.6315,-0.6347,-0.6354,-0.6422,-0.6443,-0.6355,-0.6445,-0.656,-0.662,-0.676,-0.6949,-0.7142,-0.7257,-0.7373,-0.7484,-0.7484,-0.7518,-0.7518,-0.7518,-0.7518,-0.7518,-0.7518,-0.7518,-0.7518,-0.7488,-0.7533,-0.7682,-0.7736,-0.789,-0.8048,-0.8158,-0.8211,-0.8363,-0.8357,-0.8424,-0.8404,-0.8487,-0.8772,-0.8866,-0.8866,-0.9087,-0.9807,-1.0243,-1.0606,-1.0695,-1.0753,-1.1476,-1.2085,-1.2214,-1.2268,-1.2194,-1.2268,-1.2305,-1.2305,-1.2305,-1.2305,-1.2305,-1.2305,-1.2305,-1.2305,-1.2305,-1.2305,-1.2305,-1.2305,-1.2305,-1.2305,-1.2305,-1.2305,-1.2305,-1.2305,-1.2231,-1.2104,-1.196,-1.1794,-1.1633,-1.154,-1.1674,0.1964,0.1129,0.0304,-0.0661,-0.1593,-0.1626,-0.1566,-0.1566,-0.1566,-0.1566,-0.1566,-0.1566,-0.1566,-0.1566,-0.1566,-0.16,-0.157,-0.154,-0.151,-0.148,-0.1453,-0.1393,-0.1391,-0.1391,-0.1391,-0.1391,-0.1391,-0.1391,-0.1391,-0.1391,-0.1433,-0.1657,-0.2104,-0.2877,-0.3709,-0.4435,-0.5014,-0.5416,-0.5896,-0.5921,-0.5914,-0.6268,-0.6439,-0.6347,-0.6429,-0.6458,-0.6549,-0.6648,-0.6808,-0.6972,-0.7142,-0.7257,-0.7373,-0.7446,-0.748,-0.7518,-0.7518,-0.7518,-0.7522,-0.7518,-0.7547,-0.7612,-0.762,-0.7714,-0.7853,-0.7955,-0.8036,-0.8231,-0.8385,-0.8507,-0.8588,-0.8571,-0.8555,-0.8518,-0.8522,-0.8694,-0.8725,-0.8777,-0.901,-0.9395,-0.9709,-0.9978,-1.0176,-1.0213,-1.0572,-1.1238,-1.1571,-1.1676,-1.1787,-1.1972,-1.2305,-1.2305,-1.2305,-1.2305,-1.2305,-1.2305,-1.2305,-1.2305,-1.2305,-1.2305,-1.2305,-1.2268,-1.2305,-1.2305,-1.2305,-1.2305,-1.2305,-1.2305,-1.2305,-1.2291,-1.2104,-1.1966,-1.1906,-1.1836,-1.1818,0.272,0.1919,0.1109,-0.0101,-0.1418,-0.1618,-0.1566,-0.1566,-0.1566,-0.1566,-0.1566,-0.1566,-0.1566,-0.1566,-0.1566,-0.1602,-0.1575,-0.1543,-0.1512,-0.1485,-0.1452,-0.1394,-0.1391,-0.1391,-0.1391,-0.1391,-0.1391,-0.1391,-0.1391,-0.1391,-0.1391,-0.1391,-0.1659,-0.2144,-0.2945,-0.372,-0.4019,-0.4046,-0.491,-0.509,-0.5371,-0.5934,-0.6182,-0.6364,-0.6439,-0.6479,-0.6429,-0.6535,-0.6684,-0.6732,-0.6949,-0.7146,-0.7261,-0.7369,-0.7442,-0.7518,-0.7518,-0.7522,-0.7492,-0.7526,-0.7616,-0.7739,-0.7751,-0.7873,-0.7959,-0.8044,-0.8126,-0.8337,-0.8373,-0.8434,-0.8543,-0.8616,-0.8616,-0.8612,-0.8612,-0.8596,-0.8669,-0.8675,-0.8909,-0.9023,-0.9109,-0.9282,-0.9517,-0.9691,-0.9877,-1.0286,-1.0764,-1.1011,-1.1197,-1.1372,-1.1669,-1.1972,-1.1935,-1.1929,-1.1929,-1.2231,-1.2305,-1.2268,-1.2268,-1.2194,-1.2231,-1.2194,-1.2231,-1.2268,-1.2305,-1.2305,-1.2305,-1.2305,-1.2305,-1.2305,-1.2305,-1.2198,-1.2158,-1.2087,-1.2013,0.2741,0.1967,0.1714,0.0958,-0.0101,-0.1162,-0.1566,-0.1566,-0.1566,-0.1566,-0.1566,-0.1566,-0.1566,-0.1566,-0.1566,-0.161,-0.1594,-0.1545,-0.1515,-0.1506,-0.1459,-0.1395,-0.1391,-0.1391,-0.1391,-0.1391,-0.1391,-0.1391,-0.1391,-0.1391,-0.1391,-0.1391,-0.1479,-0.1867,-0.2506,-0.308,-0.324,-0.3741,-0.4199,-0.4506,-0.4975,-0.5436,-0.5851,-0.6236,-0.6396,-0.6439,-0.632,-0.646,-0.6517,-0.6574,-0.6795,-0.6911,-0.7107,-0.7296,-0.7373,-0.7446,-0.7522,-0.7549,-0.7661,-0.7714,-0.7731,-0.782,-0.7922,-0.8008,-0.8162,-0.8191,-0.83,-0.841,-0.8446,-0.8551,-0.86,-0.8612,-0.8616,-0.8616,-0.8612,-0.8612,-0.8627,-0.8611,-0.8696,-0.874,-0.8811,-0.8776,-0.8888,-0.9072,-0.9227,-0.9412,-0.9877,-1.0269,-1.0517,-1.0506,-1.0651,-1.118,-1.1409,-1.1446,-1.1521,-1.1669,-1.144,-1.1136,-1.1552,-1.2009,-1.204,-1.1848,-1.2077,-1.2083,-1.2194,-1.2305,-1.2157,-1.2083,-1.2231,-1.2305,-1.2305,-1.2305,-1.2245,-1.2167,-1.2092,0.3179,0.2672,0.247,0.2065,0.131,-0.0101,-0.0909,-0.1162,-0.1465,-0.1566,-0.1566,-0.1566,-0.1566,-0.1566,-0.1566,-0.1566,-0.161,-0.1555,-0.1478,-0.147,-0.1418,-0.1397,-0.1391,-0.1391,-0.1391,-0.1391,-0.1391,-0.1391,-0.1391,-0.1391,-0.1391,-0.1391,-0.1391,-0.1649,-0.2074,-0.2237,-0.239,-0.2852,-0.3151,-0.3594,-0.4115,-0.4723,-0.5365,-0.5825,-0.6162,-0.6446,-0.6358,-0.6369,-0.6422,-0.6507,-0.6602,-0.6718,-0.6949,-0.7142,-0.7223,-0.7373,-0.7496,-0.7581,-0.7739,-0.7873,-0.7874,-0.8016,-0.8057,-0.8191,-0.838,-0.8424,-0.8438,-0.8563,-0.8608,-0.8612,-0.8612,-0.8616,-0.8616,-0.8616,-0.8616,-0.8616,-0.8612,-0.8596,-0.8596,-0.8604,-0.8596,-0.8506,-0.8406,-0.8426,-0.8577,-0.8772,-0.9,-0.941,-0.9793,-0.9851,-0.9868,-1.0357,-1.0694,-1.0689,-1.0763,-1.0913,-1.0571,-1.0002,-1.0571,-1.1366,-1.1136,-1.087,-1.1403,-1.1744,-1.144,-1.1366,-1.1706,-1.1861,-1.1935,-1.212,-1.2305,-1.2305,-1.2298,-1.2248,-1.2163,0.3984,0.3932,0.3426,0.3073,0.2568,0.131,0.0303,-0.0454,-0.1212,-0.1516,-0.1566,-0.1566,-0.1566,-0.1566,-0.1566,-0.1566,-0.1554,-0.1553,-0.1484,-0.1461,-0.1417,-0.1401,-0.1391,-0.1391,-0.1391,-0.1391,-0.1391,-0.1391,-0.1391,-0.1391,-0.1391,-0.1391,-0.1391,-0.152,-0.1563,-0.1603,-0.1677,-0.2002,-0.2319,-0.2742,-0.3192,-0.4061,-0.4614,-0.5131,-0.5653,-0.6041,-0.6123,-0.6257,-0.6371,-0.6415,-0.6486,-0.6563,-0.6718,-0.6988,-0.7107,-0.7261,-0.7411,-0.7626,-0.7824,-0.7931,-0.8105,-0.8261,-0.8276,-0.8449,-0.8522,-0.8559,-0.858,-0.8596,-0.8616,-0.8616,-0.8616,-0.8616,-0.8616,-0.8616,-0.8616,-0.8616,-0.8616,-0.8612,-0.8612,-0.8612,-0.8612,-0.8575,-0.8567,-0.8518,-0.8445,-0.8549,-0.8725,-0.8726,-0.9088,-0.9375,-0.944,-0.9599,-0.9863,-0.9863,-0.9976,-1.0196,-0.9782,-0.9216,-0.9782,-1.0383,-1.0121,-1.0083,-1.0608,-1.0801,-1.0346,-1.0383,-1.0875,-1.1254,-1.1521,-1.1744,-1.2083,-1.2305,-1.2305,-1.2305,-1.2268,0.3736,0.3734,0.3731,0.363,0.3228,0.2169,0.0908,-0.0353,-0.0707,-0.101,-0.1566,-0.1566,-0.1516,-0.1566,-0.1566,-0.1566,-0.1594,-0.1562,-0.1487,-0.1457,-0.1468,-0.14,-0.1391,-0.1391,-0.1391,-0.1391,-0.1391,-0.1391,-0.1391,-0.1391,-0.1391,-0.1391,-0.1391,-0.1391,-0.1391,-0.1391,-0.1383,-0.1463,-0.1752,-0.2068,-0.2446,-0.318,-0.3701,-0.427,-0.4981,-0.5317,-0.5469,-0.6009,-0.6152,-0.6285,-0.6338,-0.6412,-0.6602,-0.6868,-0.7061,-0.7427,-0.7602,-0.78,-0.7931,-0.8105,-0.8276,-0.8418,-0.8514,-0.8539,-0.86,-0.8616,-0.8616,-0.8616,-0.8616,-0.8616,-0.8616,-0.8616,-0.8616,-0.8616,-0.8616,-0.8616,-0.8616,-0.8616,-0.8616,-0.8616,-0.8616,-0.8616,-0.8616,-0.86,-0.8539,-0.8571,-0.8537,-0.8493,-0.8457,-0.876,-0.8857,-0.8985,-0.9036,-0.9031,-0.9296,-0.9523,-0.8955,-0.858,-0.9107,-0.9405,-0.9296,-0.9372,-0.9857,-0.9933,-0.9669,-0.982,-1.0158,-1.0533,-1.1025,-1.144,-1.1781,-1.2083,-1.2305,-1.2305,-1.2305,0.3736,0.3784,0.4034,0.3935,0.3484,0.2775,0.1715,0.0656,0.0202,-0.0404,-0.1111,-0.1111,-0.1263,-0.1566,-0.1566,-0.1566,-0.1562,-0.1572,-0.1541,-0.1466,-0.1474,-0.1453,-0.1441,-0.1391,-0.1391,-0.1391,-0.1391,-0.1391,-0.1391,-0.1391,-0.1391,-0.1391,-0.1391,-0.1391,-0.1391,-0.1391,-0.1391,-0.1384,-0.1506,-0.1709,-0.2023,-0.2449,-0.2919,-0.3362,-0.4116,-0.4421,-0.4606,-0.5348,-0.5714,-0.5891,-0.596,-0.6335,-0.6546,-0.68,-0.72,-0.756,-0.7768,-0.7939,-0.8101,-0.8207,-0.8381,-0.8555,-0.8616,-0.8608,-0.8608,-0.8616,-0.8616,-0.8616,-0.8616,-0.8616,-0.8616,-0.8616,-0.8616,-0.8616,-0.8616,-0.8616,-0.8616,-0.8616,-0.8616,-0.8616,-0.8616,-0.8616,-0.8616,-0.8616,-0.8612,-0.8608,-0.8535,-0.841,-0.8263,-0.8249,-0.8207,-0.8218,-0.8217,-0.8241,-0.8542,-0.877,-0.8351,-0.805,-0.8203,-0.8428,-0.8394,-0.8466,-0.8765,-0.8993,-0.9145,-0.9291,-0.9442,-1.0083,-1.0608,-1.1025,-1.1515,-1.2003,-1.2231,-1.2305,-1.2305,0.3984,0.3984,0.4237,0.4036,0.3586,0.3282,0.2725,0.2068,0.1361,0.0454,-0.0303,-0.0404,-0.0909,-0.1465,-0.1566,-0.1566,-0.1604,-0.1574,-0.1542,-0.1475,-0.148,-0.1453,-0.1395,-0.1391,-0.1391,-0.1391,-0.1391,-0.1391,-0.1391,-0.1391,-0.1391,-0.1391,-0.1391,-0.1391,-0.1391,-0.1391,-0.1391,-0.1389,-0.1385,-0.1508,-0.1664,-0.2079,-0.2536,-0.2658,-0.318,-0.3713,-0.3906,-0.4365,-0.4912,-0.5199,-0.564,-0.613,-0.6645,-0.686,-0.7322,-0.7672,-0.7947,-0.8081,-0.8219,-0.8316,-0.8457,-0.8559,-0.8616,-0.8616,-0.8616,-0.8616,-0.8616,-0.8616,-0.8616,-0.8616,-0.8616,-0.8616,-0.8616,-0.8616,-0.8616,-0.8616,-0.8616,-0.8616,-0.8616,-0.8616,-0.8616,-0.8616,-0.8616,-0.8616,-0.8616,-0.8616,-0.8571,-0.8433,-0.8191,-0.8016,-0.7841,-0.7708,-0.7731,-0.7825,-0.7825,-0.7974,-0.7783,-0.7633,-0.771,-0.7748,-0.7897,-0.7787,-0.7557,-0.7974,-0.8428,-0.8504,-0.8732,-0.9372,-0.9976,-1.0432,-1.1031,-1.1848,-1.215,-1.2114,-1.2305,0.3685,0.3685,0.3786,0.3737,0.3586,0.3282,0.313,0.2927,0.2725,0.1463,-0.0101,-0.0404,-0.0808,-0.1415,-0.1414,-0.1414,-0.1504,-0.1276,-0.149,-0.1415,-0.1383,-0.1362,-0.1393,-0.1391,-0.1391,-0.1391,-0.1391,-0.1391,-0.1391,-0.1391,-0.1391,-0.1391,-0.1391,-0.1391,-0.1391,-0.1391,-0.1391,-0.1391,-0.1389,-0.1387,-0.1466,-0.1488,-0.1729,-0.197,-0.2428,-0.2828,-0.3152,-0.3639,-0.395,-0.4229,-0.5043,-0.5974,-0.7052,-0.7208,-0.7546,-0.7906,-0.8076,-0.8197,-0.8316,-0.8406,-0.8547,-0.858,-0.8616,-0.8616,-0.8616,-0.8616,-0.8616,-0.8616,-0.8616,-0.8616,-0.8616,-0.8616,-0.8616,-0.8616,-0.8616,-0.8616,-0.8616,-0.8616,-0.8616,-0.8616,-0.8616,-0.8616,-0.8616,-0.8616,-0.8616,-0.8616,-0.8616,-0.8498,-0.8203,-0.8004,-0.7833,-0.77,-0.7594,-0.7561,-0.7522,-0.7518,-0.7518,-0.7518,-0.7595,-0.7557,-0.7518,-0.7518,-0.7518,-0.7518,-0.7748,-0.794,-0.8165,-0.8585,-0.915,-0.9717,-1.0432,-1.1211,-1.1552,-1.1589,-1.2003,0.3433,0.3433,0.3433,0.3433,0.3383,0.3282,0.318,0.318,0.318,0.227,0.0858,0.0606,0.005,-0.0808,-0.0707,-0.0903,-0.0948,-0.0635,-0.0717,-0.0843,-0.1014,-0.118,-0.1262,-0.1346,-0.1391,-0.1391,-0.1391,-0.1391,-0.1391,-0.1391,-0.1391,-0.1391,-0.1391,-0.1391,-0.1391,-0.1391,-0.1391,-0.1391,-0.1391,-0.1391,-0.1391,-0.1418,-0.141,-0.162,-0.1787,-0.2115,-0.2324,-0.2788,-0.315,-0.3725,-0.458,-0.5468,-0.644,-0.7003,-0.7507,-0.7896,-0.8118,-0.8324,-0.8395,-0.8491,-0.8568,-0.8568,-0.8616,-0.8616,-0.8616,-0.8616,-0.8616,-0.8616,-0.8616,-0.8616,-0.8616,-0.8616,-0.8616,-0.8616,-0.8616,-0.8616,-0.8616,-0.8616,-0.8616,-0.8616,-0.8616,-0.8616,-0.8616,-0.8616,-0.8616,-0.8616,-0.8616,-0.8539,-0.8247,-0.802,-0.7841,-0.7679,-0.7561,-0.7531,-0.7518,-0.7518,-0.7518,-0.7518,-0.7518,-0.7518,-0.7518,-0.7518,-0.7518,-0.7518,-0.7518,-0.7557,-0.7825,-0.8203,-0.8508,-0.9079,-0.9793,-1.0576,-1.0801,-1.0987,-1.1174,0.323,0.318,0.323,0.323,0.318,0.318,0.318,0.318,0.318,0.2826,0.2169,0.2118,0.116,0.0454,0.0353,0.01,0.0,0.0146,0.0095,-0.0094,-0.0231,-0.059,-0.0945,-0.1211,-0.1256,-0.1346,-0.1391,-0.1391,-0.1391,-0.1391,-0.1391,-0.1391,-0.1391,-0.1391,-0.1391,-0.1391,-0.1391,-0.1391,-0.1391,-0.1391,-0.1391,-0.1391,-0.1387,-0.1388,-0.1391,-0.1391,-0.1648,-0.1943,-0.2398,-0.299,-0.3863,-0.4827,-0.5551,-0.6212,-0.6926,-0.7321,-0.7595,-0.7935,-0.8281,-0.8456,-0.8476,-0.8524,-0.8568,-0.8616,-0.8616,-0.8616,-0.8616,-0.8616,-0.8616,-0.8616,-0.8616,-0.8616,-0.8616,-0.8616,-0.8616,-0.8616,-0.8616,-0.8616,-0.8616,-0.8616,-0.8616,-0.8616,-0.8616,-0.8616,-0.8616,-0.8616,-0.8571,-0.8477,-0.8304,-0.8097,-0.7902,-0.7728,-0.7577,-0.7563,-0.7526,-0.7518,-0.7518,-0.7518,-0.7518,-0.7518,-0.7518,-0.7518,-0.7518,-0.7518,-0.7518,-0.7518,-0.7633,-0.7974,-0.8284,-0.8513,-0.9117,-0.975,-0.99,-1.0045,-1.0078,0.318,0.318,0.318,0.318,0.318,0.318,0.318,0.318,0.318,0.3079,0.2978,0.2826,0.2069,0.0605,0.0656,0.0601,0.0694,0.0926,0.0817,0.0569,0.0505,0.0045,-0.0404,-0.0583,-0.0942,-0.1166,-0.1301,-0.1391,-0.1391,-0.1391,-0.1391,-0.1391,-0.1391,-0.1391,-0.1391,-0.1391,-0.1391,-0.1391,-0.1391,-0.1391,-0.1391,-0.1391,-0.1391,-0.1391,-0.1391,-0.1391,-0.1478,-0.1519,-0.1606,-0.2002,-0.2787,-0.3871,-0.457,-0.5148,-0.5824,-0.6527,-0.6801,-0.721,-0.7536,-0.8072,-0.8208,-0.8113,-0.8204,-0.8568,-0.8568,-0.8568,-0.8568,-0.8616,-0.8616,-0.8616,-0.8616,-0.8616,-0.8616,-0.8616,-0.8616,-0.8616,-0.8616,-0.8616,-0.8616,-0.8616,-0.8616,-0.8616,-0.8616,-0.8616,-0.8616,-0.8616,-0.8616,-0.8522,-0.8361,-0.8162,-0.7963,-0.7797,-0.763,-0.7567,-0.7518,-0.7518,-0.7518,-0.7518,-0.7518,-0.7518,-0.7518,-0.7518,-0.7518,-0.7518,-0.7518,-0.7518,-0.7672,-0.7787,-0.7787,-0.8016,-0.8475,-0.8927,-0.9074,-0.9183,-0.9253]}]]